[[{"header":{"parameterUnit":"m.s-1","parameterCategory":1,"la1":30.6,"la2":28.766,"lo1":-90.7593,"lo2":-88.6598,"dy":0.0162,"dx":0.0183,"nx":116,"ny":114,"refTime":"2024-04-11T12:00:00:Z","depth":0,"parameterNumber":2,"parameterNumberName":"U-component_of_WINDS"},"data":[0.0,0.0,0.0,0.0,0.0,0.0,0.0,0.0,0.0,0.0,0.0,0.0,0.0,0.0,0.0,0.0,0.0,0.0,0.0,0.0,0.0,0.0,0.0,0.0,0.0,0.0,0.0,0.0,0.0,0.0,0.0,0.0,0.0,0.0,0.0,0.0,0.0,0.0,0.0,0.0,0.0,0.0,0.0,0.0,0.0,0.0,0.0,0.0,0.0,0.0,0.0,0.0,0.0,0.0,0.0,0.0,0.0,0.0,0.0,0.0,0.0,0.0,0.0,0.0,0.0,0.0,0.0,0.0,0.0,0.0,0.0,0.0,0.0,0.0,0.0,0.0,0.0,0.0,0.0,0.0,0.0,0.0,0.0,0.0,0.0,0.0,0.0,0.0,0.0,0.0,0.0,0.0,0.0,0.0,0.0,0.0,0.0,0.0,0.0,0.0,0.0,0.0,0.0,0.0,0.0,0.0,0.0,0.0,0.0,0.0,0.0,0.0,0.0,0.0,0.0,0.0,0.0,0.0,0.0,0.0,0.0,0.0,0.0,0.0,0.0,0.0,0.0,0.0,0.0,0.0,0.0,0.0,0.0,0.0,0.0,0.0,0.0,0.0,0.0,0.0,0.0,0.0,0.0,0.0,0.0,0.0,0.0,0.0,0.0,0.0,0.0,0.0,0.0,0.0,0.0,0.0,0.0,0.0,0.0,0.0,0.0,0.0,0.0,0.0,0.0,0.0,0.0,0.0,0.0,0.0,0.0,0.0,0.0,0.0,0.0,0.0,0.0,0.0,0.0,0.0,0.0,0.0,0.0,0.0,0.0,0.0,0.0,0.0,0.0,0.0,0.0,0.0,0.0,0.0,0.0,0.0,0.0,0.0,0.0,0.0,0.0,0.0,0.0,0.0,0.0,0.0,0.0,0.0,0.0,0.0,0.0,0.0,0.0,0.0,0.0,0.0,0.0,0.0,0.0,0.0,0.0,0.0,0.0,0.0,0.0,0.0,0.0,0.0,0.0,0.0,0.0,0.0,0.0,0.0,0.0,0.0,0.0,0.0,0.0,0.0,0.0,0.0,0.0,0.0,0.0,0.0,0.0,0.0,0.0,0.0,0.0,0.0,0.0,0.0,0.0,0.0,0.0,0.0,0.0,0.0,0.0,0.0,0.0,0.0,0.0,0.0,0.0,0.0,0.0,0.0,0.0,0.0,0.0,0.0,0.0,0.0,0.0,0.0,0.0,0.0,0.0,0.0,0.0,0.0,0.0,0.0,0.0,0.0,0.0,0.0,0.0,0.0,0.0,0.0,0.0,0.0,0.0,0.0,0.0,0.0,0.0,0.0,0.0,0.0,0.0,0.0,0.0,0.0,0.0,0.0,0.0,0.0,0.0,0.0,0.0,0.0,0.0,0.0,0.0,0.0,0.0,0.0,0.0,0.0,0.0,0.0,0.0,0.0,0.0,0.0,0.0,0.0,0.0,0.0,0.0,0.0,0.0,0.0,0.0,0.0,0.0,0.0,0.0,0.0,0.0,0.0,0.0,0.0,0.0,0.0,0.0,0.0,0.0,0.0,0.0,0.0,0.0,0.0,0.0,0.0,0.0,0.0,0.0,0.0,0.0,0.0,0.0,0.0,0.0,0.0,0.0,0.0,0.0,0.0,0.0,0.0,0.0,0.0,0.0,0.0,0.0,0.0,0.0,0.0,0.0,0.0,0.0,0.0,0.0,0.0,0.0,0.0,0.0,0.0,0.0,0.0,0.0,0.0,0.0,0.0,0.0,0.0,0.0,0.0,0.0,0.0,0.0,0.0,0.0,0.0,0.0,0.0,0.0,0.0,0.0,0.0,0.0,0.0,0.0,0.0,0.0,0.0,0.0,0.0,0.0,0.0,0.0,0.0,0.0,0.0,0.0,0.0,0.0,0.0,0.0,0.0,0.0,0.0,0.0,0.0,0.0,0.0,0.0,0.0,0.0,0.0,0.0,0.0,0.0,0.0,0.0,0.0,0.0,0.0,0.0,0.0,0.0,0.0,0.0,0.0,0.0,0.0,0.0,0.0,0.0,0.0,0.0,0.0,0.0,0.0,0.0,0.0,0.0,0.0,0.0,0.0,0.0,0.0,0.0,0.0,0.0,0.0,0.0,0.0,0.0,0.0,0.0,0.0,0.0,0.0,0.0,0.0,0.0,0.0,0.0,0.0,0.0,0.0,0.0,0.0,0.0,0.0,0.0,0.0,0.0,0.0,0.0,0.0,0.0,0.0,0.0,0.0,0.0,0.0,0.0,0.0,0.0,0.0,0.0,0.0,0.0,0.0,0.0,0.0,0.0,0.0,0.0,0.0,0.0,0.0,0.0,0.0,0.0,0.0,0.0,0.0,0.0,0.0,0.0,0.0,0.0,0.0,0.0,0.0,0.0,0.0,0.0,0.0,0.0,0.0,0.0,0.0,0.0,0.0,0.0,0.0,0.0,0.0,0.0,0.0,0.0,0.0,0.0,0.0,0.0,0.0,0.0,0.0,0.0,0.0,0.0,0.0,0.0,0.0,0.0,0.0,0.0,0.0,0.0,0.0,0.0,0.0,0.0,0.0,0.0,0.0,0.0,0.0,0.0,0.0,0.0,0.0,0.0,0.0,0.0,0.0,0.0,0.0,0.0,0.0,0.0,0.0,0.0,0.0,0.0,0.0,0.0,0.0,0.0,0.0,0.0,0.0,0.0,0.0,0.0,0.0,0.0,0.0,0.0,0.0,0.0,0.0,0.0,0.0,0.0,0.0,0.0,0.0,0.0,0.0,0.0,0.0,0.0,0.0,0.0,0.0,0.0,0.0,0.0,0.0,0.0,0.0,0.0,0.0,0.0,0.0,0.0,0.0,0.0,0.0,0.0,0.0,0.0,0.0,0.0,0.0,0.0,0.0,0.0,0.0,0.0,0.0,0.0,0.0,0.0,0.0,0.0,0.0,0.0,0.0,0.0,0.0,0.0,0.0,0.0,0.0,0.0,0.0,0.0,0.0,0.0,0.0,0.0,0.0,0.0,0.0,0.0,0.0,0.0,0.0,0.0,0.0,0.0,0.0,0.0,0.0,0.0,0.0,0.0,0.0,0.0,0.0,0.0,0.0,0.0,0.0,0.0,0.0,0.0,0.0,0.0,0.0,0.0,0.0,0.0,0.0,0.0,0.0,0.0,0.0,0.0,0.0,0.0,0.0,0.0,0.0,0.0,0.0,0.0,0.0,0.0,0.0,0.0,0.0,0.0,0.0,0.0,0.0,0.0,0.0,0.0,0.0,0.0,0.0,0.0,0.0,0.0,0.0,0.0,0.0,0.0,0.0,0.0,0.0,0.0,0.0,0.0,0.0,0.0,0.0,0.0,0.0,0.0,0.0,0.0,0.0,0.0,0.0,0.0,0.0,0.0,0.0,0.0,0.0,0.0,0.0,0.0,0.0,0.0,0.0,0.0,0.0,0.0,0.0,0.0,0.0,0.0,0.0,0.0,0.0,0.0,0.0,0.0,0.0,0.0,0.0,0.0,0.0,0.0,0.0,0.0,0.0,0.0,0.0,0.0,0.0,0.0,0.0,0.0,0.0,0.0,0.0,0.0,0.0,0.0,0.0,0.0,0.0,0.0,0.0,0.0,0.0,0.0,0.0,0.0,0.0,0.0,0.0,0.0,0.0,0.0,0.0,0.0,0.0,0.0,0.0,0.0,0.0,0.0,0.0,0.0,0.0,0.0,0.0,0.0,0.0,0.0,0.0,0.0,0.0,0.0,0.0,0.0,0.0,0.0,0.0,0.0,0.0,0.0,0.0,0.0,0.0,0.0,0.0,0.0,0.0,0.0,0.0,0.0,0.0,0.0,0.0,0.0,0.0,0.0,0.0,0.0,0.0,0.0,0.0,0.0,0.0,0.0,0.0,0.0,0.0,0.0,0.0,0.0,0.0,0.0,0.0,0.0,0.0,0.0,0.0,0.0,0.0,0.0,0.0,0.0,0.0,0.0,0.0,0.0,0.0,0.0,0.0,0.0,0.0,0.0,0.0,0.0,0.0,0.0,0.0,0.0,0.0,0.0,0.0,0.0,0.0,0.0,0.0,0.0,0.0,0.0,0.0,0.0,0.0,0.0,0.0,0.0,0.0,0.0,0.0,0.0,0.0,0.0,0.0,0.0,0.0,0.0,0.0,0.0,0.0,0.0,0.0,0.0,0.0,0.0,0.0,0.0,0.0,0.0,0.0,0.0,0.0,0.0,0.0,0.0,0.0,0.0,0.0,0.0,0.0,0.0,0.0,0.0,0.0,0.0,0.0,0.0,0.0,0.0,0.0,0.0,0.0,0.0,0.0,0.0,0.0,0.0,0.0,0.0,0.0,0.0,0.0,0.0,0.0,0.0,0.0,0.0,0.0,0.0,0.0,0.0,0.0,0.0,0.0,0.0,0.0,0.0,0.0,0.0,0.0,0.0,0.0,0.0,0.0,0.0,0.0,0.0,0.0,0.0,0.0,0.0,0.0,0.0,0.0,0.0,0.0,0.0,0.0,0.0,0.0,0.0,0.0,0.0,0.0,0.0,0.0,0.0,0.0,0.0,0.0,0.0,0.0,0.0,0.0,0.0,0.0,0.0,0.0,0.0,0.0,0.0,0.0,0.0,0.0,0.0,0.0,0.0,0.0,0.0,0.0,0.0,0.0,0.0,0.0,0.0,0.0,0.0,0.0,0.0,0.0,0.0,0.0,0.0,0.0,0.0,0.0,0.0,0.0,0.0,0.0,0.0,0.0,0.0,0.0,0.0,0.0,0.0,0.0,0.0,0.0,0.0,0.0,0.0,0.0,0.0,0.0,0.0,0.0,0.0,0.0,0.0,0.0,0.0,0.0,0.0,0.0,0.0,0.0,0.0,0.0,0.0,0.0,0.0,0.0,0.0,0.0,0.0,0.0,0.0,0.0,0.0,0.0,0.0,0.0,0.0,0.0,0.0,0.0,0.0,0.0,0.0,0.0,0.0,0.0,0.0,0.0,0.0,0.0,0.0,0.0,0.0,0.0,0.0,0.0,0.0,0.0,0.0,0.0,0.0,0.0,0.0,0.0,0.0,0.0,0.0,0.0,0.0,0.0,0.0,0.0,0.0,0.0,0.0,0.0,0.0,0.0,0.0,0.0,0.0,0.0,0.0,0.0,0.0,0.0,0.0,0.0,0.0,0.0,0.0,0.0,0.0,0.0,0.0,0.0,0.0,0.0,0.0,0.0,0.0,0.0,0.0,0.0,0.0,0.0,0.0,0.0,0.0,0.0,0.0,0.0,0.0,0.0,0.0,0.0,0.0,0.0,0.0,0.0,0.0,0.0,0.0,0.0,0.0,0.0,0.0,0.0,0.0,0.0,0.0,0.0,0.0,0.0,0.0,0.0,0.0,0.0,0.0,0.0,0.0,0.0,0.0,0.0,0.0,0.0,0.0,0.0,0.0,0.0,0.0,0.0,0.0,0.0,0.0,0.0,0.0,0.0,0.0,0.0,0.0,0.0,0.0,0.0,0.0,0.0,0.0,0.0,0.0,0.0,0.0,0.0,0.0,0.0,0.0,0.0,0.0,0.0,0.0,0.0,0.0,0.0,0.0,0.0,0.0,0.0,0.0,0.0,0.0,0.0,0.0,0.0,0.0,0.0,0.0,0.0,0.0,0.0,0.0,0.0,0.0,0.0,0.0,0.0,0.0,0.0,0.0,0.0,0.0,0.0,0.0,0.0,0.0,0.0,0.0,0.0,0.0,0.0,0.0,0.0,0.0,0.0,0.0,0.0,0.0,0.0,0.0,0.0,0.0,0.0,0.0,0.0,0.0,0.0,0.0,0.0,0.0,0.0,0.0,0.0,0.0,0.0,0.0,0.0,0.0,0.0,0.0,0.0,0.0,0.0,0.0,0.0,0.0,0.0,0.0,0.0,0.0,0.0,0.0,0.0,0.0,0.0,0.0,0.0,0.0,0.0,0.0,0.0,0.0,0.0,0.0,0.0,0.0,0.0,0.0,0.0,0.0,0.0,0.0,0.0,0.0,0.0,0.0,0.0,0.0,0.0,0.0,0.0,0.0,0.0,0.0,0.0,0.0,0.0,0.0,0.0,-6.2381,-6.2381,0.0,0.0,0.0,0.0,0.0,0.0,0.0,0.0,0.0,0.0,0.0,0.0,0.0,0.0,0.0,0.0,0.0,0.0,0.0,0.0,0.0,0.0,0.0,-6.2071,-6.1924,-6.2732,-6.278,-6.278,-6.278,-6.278,0.0,0.0,0.0,0.0,-6.278,-6.278,-6.2755,-6.2705,-6.2578,-6.2291,-6.1887,-6.1544,-6.1228,-6.0938,0.0,0.0,0.0,0.0,0.0,0.0,0.0,0.0,0.0,0.0,0.0,0.0,0.0,0.0,0.0,0.0,0.0,0.0,0.0,0.0,0.0,0.0,0.0,0.0,0.0,0.0,0.0,0.0,0.0,0.0,0.0,0.0,0.0,0.0,0.0,0.0,0.0,0.0,0.0,0.0,0.0,0.0,0.0,0.0,0.0,0.0,0.0,0.0,0.0,0.0,0.0,0.0,0.0,0.0,0.0,0.0,0.0,0.0,0.0,0.0,0.0,0.0,0.0,0.0,0.0,0.0,0.0,0.0,0.0,0.0,-6.2381,-6.2381,0.0,0.0,0.0,0.0,0.0,0.0,0.0,0.0,0.0,0.0,0.0,0.0,0.0,0.0,0.0,0.0,0.0,0.0,0.0,0.0,0.0,-6.1741,-6.267,-6.1961,-6.1777,-6.2707,-6.278,-6.278,-6.278,-6.278,-6.278,-6.278,-6.278,-6.278,-6.278,-6.278,-6.273,-6.2603,-6.237,-6.1914,-6.1205,-6.0508,-6.0294,-6.0388,-5.9943,0.0,0.0,0.0,0.0,0.0,0.0,0.0,0.0,0.0,0.0,0.0,0.0,0.0,0.0,0.0,0.0,0.0,0.0,0.0,0.0,0.0,0.0,0.0,0.0,0.0,0.0,0.0,0.0,0.0,0.0,0.0,0.0,0.0,0.0,0.0,0.0,0.0,0.0,0.0,0.0,0.0,0.0,0.0,0.0,0.0,0.0,0.0,0.0,0.0,0.0,0.0,0.0,0.0,0.0,0.0,0.0,0.0,0.0,0.0,0.0,0.0,0.0,0.0,-6.2263,-6.2263,-6.2263,-6.2263,-6.2263,-6.2263,-6.2263,-6.2302,-6.2381,-6.2381,0.0,0.0,0.0,0.0,0.0,0.0,0.0,0.0,0.0,0.0,0.0,0.0,0.0,0.0,0.0,0.0,0.0,0.0,0.0,-6.1153,-6.2633,-6.1484,-6.1153,-6.267,-6.278,-6.278,-6.278,-6.278,-6.278,-6.278,-6.278,-6.278,-6.278,-6.278,-6.273,-6.2603,-6.1933,-6.1343,-6.0843,-6.0164,-5.9814,-5.9718,-5.9486,-5.9352,-5.9319,0.0,0.0,0.0,0.0,0.0,0.0,0.0,0.0,0.0,0.0,0.0,0.0,0.0,0.0,0.0,0.0,0.0,0.0,0.0,0.0,0.0,0.0,0.0,0.0,0.0,0.0,0.0,0.0,0.0,0.0,0.0,0.0,0.0,0.0,0.0,0.0,0.0,0.0,0.0,0.0,0.0,-6.2048,-6.2381,0.0,0.0,0.0,0.0,0.0,0.0,0.0,0.0,0.0,0.0,0.0,0.0,0.0,-6.2302,-6.2037,-6.2037,-6.1991,-6.179,-6.179,-6.179,-6.179,-6.179,-6.179,-6.179,-6.179,0.0,-6.2381,-6.2381,0.0,0.0,0.0,0.0,0.0,0.0,0.0,0.0,0.0,0.0,0.0,0.0,0.0,0.0,0.0,0.0,0.0,0.0,0.0,0.0,0.0,-6.1374,-6.1043,-6.2633,-6.278,-6.278,-6.278,-6.278,-6.278,-6.278,-6.278,-6.278,-6.278,-6.273,-6.25,-6.2168,-6.1551,-6.1058,-6.0666,-5.9975,-5.9652,-5.9588,-5.9285,-5.9115,-5.9115,-5.8806,0.0,0.0,0.0,0.0,0.0,0.0,0.0,0.0,0.0,0.0,0.0,0.0,0.0,0.0,0.0,0.0,0.0,0.0,0.0,0.0,0.0,0.0,0.0,0.0,0.0,0.0,0.0,0.0,0.0,0.0,0.0,0.0,0.0,0.0,0.0,0.0,0.0,0.0,0.0,-6.1987,-6.2037,-6.215,-6.2076,-6.1997,0.0,0.0,0.0,0.0,0.0,0.0,0.0,0.0,0.0,-6.2024,-6.2024,-6.1951,-6.183,-6.183,-6.179,-6.1709,-6.1709,-6.1709,-6.1709,-6.1709,-6.1709,-6.1709,-6.1709,-6.179,-6.2024,-6.2024,-6.2024,-6.2024,0.0,0.0,0.0,0.0,-6.179,-6.1669,0.0,0.0,0.0,0.0,0.0,0.0,0.0,0.0,0.0,0.0,0.0,0.0,-6.2658,-6.1557,-6.1263,-6.2695,-6.278,-6.278,-6.278,-6.278,-6.278,-6.278,-6.278,-6.278,-6.278,-6.2629,-6.2318,-6.184,-6.1357,-6.0914,-6.0578,-5.9914,-5.9621,-5.9588,-5.9149,-5.9012,-5.8978,-5.884,-5.8701,-5.8561,0.0,0.0,0.0,0.0,0.0,0.0,0.0,0.0,0.0,0.0,0.0,0.0,0.0,0.0,0.0,0.0,0.0,0.0,0.0,0.0,0.0,0.0,0.0,0.0,0.0,0.0,0.0,0.0,0.0,0.0,0.0,0.0,0.0,0.0,0.0,0.0,0.0,-6.211,-6.1917,-6.1917,-6.1877,-6.1797,0.0,0.0,0.0,0.0,0.0,0.0,-6.1709,-6.1709,-6.1709,-6.1709,-6.1709,-6.1669,-6.1628,-6.1628,-6.1588,-6.1547,-6.1547,-6.1547,-6.1547,-6.1547,-6.1547,-6.1547,-6.1547,-6.1547,-6.1547,-6.1669,-6.1709,-6.1709,-6.1709,-6.1709,-6.1709,-6.1628,-6.1506,-6.1383,0.0,0.0,0.0,0.0,0.0,0.0,0.0,0.0,0.0,0.0,0.0,-6.1851,-6.2732,-6.2034,-6.1887,-6.2732,-6.278,-6.278,-6.278,-6.278,-6.278,-6.278,-6.278,-6.278,-6.278,-6.2526,-6.2265,-6.1969,-6.1415,-6.0914,-6.0578,-5.9914,-5.9621,-5.9588,-5.9149,-5.9012,-5.8978,-5.884,-5.8771,-5.8736,-5.8384,0.0,0.0,0.0,0.0,0.0,0.0,0.0,0.0,0.0,0.0,0.0,0.0,0.0,0.0,0.0,0.0,0.0,0.0,0.0,0.0,0.0,0.0,0.0,0.0,0.0,0.0,0.0,0.0,0.0,0.0,0.0,0.0,0.0,0.0,0.0,0.0,0.0,0.0,-6.1709,-6.1547,0.0,0.0,0.0,0.0,-6.1709,-6.1709,-6.1709,-6.1709,-6.1709,-6.1709,-6.1709,-6.1709,-6.1588,-6.1424,-6.1424,-6.1334,-6.1161,-6.1161,-6.1161,-6.1161,-6.1161,-6.1161,-6.1161,-6.1161,-6.1161,-6.1161,-6.1506,-6.1709,-6.1709,-6.1709,-6.1709,-6.1669,-6.1465,-6.1383,-6.1383,0.0,0.0,0.0,0.0,0.0,-6.278,-6.278,-6.278,-6.278,-6.278,-6.2108,-6.1924,-6.2732,-6.2071,-6.1924,-6.2732,-6.278,-6.278,-6.278,-6.278,-6.278,-6.278,-6.278,-6.2755,-6.2679,-6.2475,-6.2248,-6.1868,-6.1357,-6.0914,-6.0578,-5.9914,-5.9621,-5.9588,-5.9149,-5.9012,-5.9012,-5.8944,-5.8875,-5.8805,-5.849,-5.8312,0.0,0.0,0.0,0.0,0.0,0.0,0.0,0.0,0.0,0.0,0.0,0.0,0.0,0.0,0.0,0.0,0.0,0.0,0.0,0.0,0.0,0.0,0.0,0.0,0.0,0.0,0.0,0.0,0.0,0.0,0.0,0.0,0.0,0.0,0.0,0.0,0.0,-6.1506,-6.1424,0.0,-6.1334,-6.1424,-6.1424,-6.1334,-6.1293,-6.1293,-6.1293,-6.1293,-6.1293,-6.1293,-6.1293,-6.1293,-6.121,-6.121,-6.1169,-6.1119,-6.1119,-6.1119,-6.1119,-6.1119,-6.1119,-6.1119,-6.1119,-6.1119,-6.1119,-6.1252,-6.1293,-6.1293,-6.1293,-6.1293,-6.1293,-6.121,-6.121,-6.121,0.0,0.0,0.0,0.0,0.0,-6.278,-6.278,-6.278,-6.278,-6.278,-6.2365,-6.2218,-6.2743,-6.2328,-6.2218,-6.2743,-6.278,-6.278,-6.278,-6.278,-6.278,-6.278,-6.278,-6.2755,-6.2679,-6.2475,-6.2248,-6.1868,-6.1357,-6.0914,-6.0578,-5.9978,-5.9619,-5.9588,-5.9251,-5.9047,-5.9012,-5.9012,-5.8944,-5.884,-5.8596,-5.8419,-5.8277,0.0,0.0,0.0,0.0,0.0,0.0,0.0,0.0,0.0,0.0,0.0,0.0,0.0,0.0,0.0,0.0,0.0,0.0,0.0,0.0,0.0,0.0,0.0,0.0,0.0,0.0,0.0,0.0,0.0,0.0,0.0,0.0,0.0,0.0,-6.1588,-6.1383,-6.1334,-6.1293,-6.1252,-6.1119,-6.121,-6.1252,-6.1119,-6.1119,-6.1119,-6.1119,-6.1119,-6.1119,-6.1119,-6.1119,-6.1218,-6.145,-6.145,-6.1583,-6.1848,-6.1848,-6.1715,-6.145,-6.145,-6.1351,-6.1119,-6.1119,-6.1119,-6.1119,-6.1119,-6.1119,-6.1119,-6.1119,-6.1119,-6.1119,-6.1119,-6.1119,-6.1119,0.0,0.0,0.0,0.0,0.0,-6.278,-6.278,-6.278,-6.278,-6.278,-6.278,-6.278,-6.278,-6.278,-6.278,-6.278,-6.278,-6.278,-6.278,-6.278,-6.278,-6.278,-6.278,-6.278,-6.278,-6.2526,-6.2265,-6.1996,-6.1415,-6.0944,-6.0578,-6.0072,-5.9716,-5.9588,-5.9386,-5.9217,-5.9012,-5.9012,-5.9012,-5.8978,-5.8631,-5.849,-5.8455,0.0,0.0,0.0,0.0,0.0,0.0,0.0,0.0,0.0,0.0,0.0,0.0,0.0,0.0,0.0,0.0,0.0,0.0,0.0,0.0,0.0,0.0,0.0,0.0,0.0,0.0,0.0,0.0,0.0,0.0,0.0,0.0,0.0,-6.1342,-6.1383,-6.1334,-6.1086,-6.1119,-6.1119,-6.1119,-6.1119,-6.1119,-6.1119,-6.1119,-6.1152,-6.1152,-6.1152,-6.1185,-6.1185,-6.1185,-6.1516,-6.2255,-6.2255,-6.2619,-6.3315,-6.3315,-6.2951,-6.2255,-6.2255,-6.1815,-6.1185,-6.1185,-6.1185,-6.1185,-6.1152,-6.1152,-6.1152,-6.1119,-6.1119,-6.1119,-6.1119,-6.1119,-6.1119,0.0,0.0,0.0,-6.278,-6.278,-6.278,-6.278,-6.278,-6.278,-6.278,-6.278,-6.278,-6.278,-6.278,-6.278,-6.278,-6.278,-6.278,-6.278,-6.278,-6.278,-6.278,-6.278,-6.278,-6.278,-6.2629,-6.2397,-6.2132,-6.1636,-6.1176,-6.0727,-6.0231,-5.9881,-5.9588,-5.9386,-5.9217,-5.9012,-5.9012,-5.9012,-5.8978,-5.8631,-5.849,-5.8455,0.0,0.0,0.0,0.0,0.0,0.0,0.0,0.0,0.0,0.0,0.0,0.0,0.0,0.0,0.0,0.0,0.0,0.0,0.0,0.0,0.0,0.0,0.0,0.0,0.0,0.0,0.0,0.0,0.0,0.0,0.0,-6.1169,-6.1169,-6.1342,-6.1293,-6.1127,-6.1119,-6.1119,-6.1119,-6.1119,-6.1119,-6.1119,-6.1119,-6.1583,-6.1881,-6.1881,-6.2378,-6.2676,-6.2676,-6.2676,-6.2775,-6.3017,-6.3017,-6.3116,-6.3315,-6.3315,-6.3216,-6.3017,-6.3017,-6.2917,-6.2676,-6.2676,-6.2676,-6.2643,-6.2113,-6.1881,-6.1815,-6.1318,-6.1119,-6.1119,-6.1119,-6.1119,-6.1119,0.0,0.0,0.0,-6.278,-6.278,-6.278,-6.278,-6.278,-6.278,-6.278,-6.278,-6.278,-6.278,-6.278,-6.278,-6.278,-6.278,-6.278,-6.278,-6.278,-6.278,-6.278,-6.278,-6.278,-6.278,-6.2679,-6.2475,-6.2185,-6.1712,-6.1257,-6.0782,-6.0423,-5.9978,-5.9588,-5.9453,-5.9285,-5.9012,-5.9012,-5.9012,-5.8978,-5.8736,-5.8561,-5.8455,-5.8027,-5.7881,-5.7881,-5.7881,-5.7881,-5.7881,-5.7881,0.0,0.0,0.0,0.0,0.0,0.0,0.0,0.0,0.0,0.0,0.0,0.0,0.0,0.0,0.0,0.0,0.0,0.0,0.0,0.0,0.0,0.0,0.0,0.0,-6.1119,-6.1127,-6.1252,-6.1169,-6.1119,-6.1119,-6.1119,-6.1119,-6.1119,-6.1384,-6.155,-6.155,-6.2212,-6.2685,-6.2685,-6.3083,-6.3315,-6.3315,-6.3315,-6.3405,-6.3703,-6.3736,-6.3868,-6.4167,-6.4167,-6.4001,-6.3779,-6.3779,-6.357,-6.3315,-6.3315,-6.3315,-6.3282,-6.2851,-6.2487,-6.2155,0.0,0.0,0.0,0.0,-6.1119,-6.1119,0.0,0.0,0.0,-6.278,-6.278,-6.278,-6.278,-6.278,-6.278,-6.278,-6.278,-6.278,-6.278,-6.278,-6.278,-6.278,-6.278,-6.278,-6.278,-6.278,-6.278,-6.278,-6.278,-6.278,-6.278,-6.2679,-6.25,-6.2238,-6.1804,-6.1315,-6.0843,-6.0547,-6.0142,-5.9621,-5.9588,-5.9352,-5.9012,-5.9012,-5.9012,-5.8978,-5.884,-5.8666,-5.8455,-5.8063,-5.7918,-5.7881,-5.7881,-5.7881,-5.7881,-5.7881,0.0,0.0,0.0,0.0,0.0,0.0,0.0,0.0,0.0,0.0,0.0,0.0,0.0,0.0,0.0,0.0,0.0,0.0,0.0,0.0,0.0,0.0,0.0,0.0,-6.1119,-6.1119,-6.1119,-6.1119,-6.1119,-6.1119,-6.1185,-6.1218,-6.1218,-6.1881,-6.2321,-6.2321,-6.3017,-6.3448,-6.3448,-6.3514,0.0,0.0,0.0,-6.3802,-6.4432,-6.4465,-6.4796,-6.5425,-6.5425,-6.5094,-6.4498,-6.4498,-6.4133,-6.3504,-6.3504,-6.3504,-6.3504,-6.3481,-6.3017,-6.2255,-6.1417,-6.1119,-6.1119,-6.1119,-6.1119,-6.1119,0.0,0.0,0.0,-6.278,-6.278,-6.278,-6.278,-6.278,-6.278,-6.278,-6.278,-6.278,-6.278,-6.278,-6.278,-6.278,-6.278,-6.278,-6.278,-6.278,-6.278,-6.278,-6.278,-6.278,-6.278,-6.278,-6.2679,-6.2526,-6.2212,-6.1776,-6.1169,-6.0757,-6.0234,-5.9588,-5.9419,-5.9251,-5.9012,-5.9012,-5.9012,-5.8978,-5.884,-5.8666,-5.849,-5.8207,-5.8027,-5.7881,-5.7881,-5.7881,-5.7881,-5.7881,-5.7881,-5.7881,-5.7881,-5.8795,0.0,0.0,0.0,0.0,0.0,0.0,0.0,0.0,0.0,0.0,0.0,0.0,0.0,0.0,0.0,0.0,0.0,0.0,0.0,-6.1119,-6.1119,-6.1119,-6.1119,-6.1119,-6.1119,-6.1119,-6.1616,-6.2022,-6.2022,-6.2685,-6.3116,-6.3116,-6.3736,-6.421,-6.421,-6.4697,-6.4995,-6.4995,-6.4995,-6.5061,-6.5194,-6.5194,-6.5293,-6.5425,-6.5425,0.0,-6.5227,-6.5227,-6.5127,-6.4995,-6.4995,-6.4995,-6.4962,-6.4399,-6.3736,-6.2941,-6.1616,-6.1119,-6.1119,-6.1119,-6.1119,-6.1119,0.0,0.0,0.0,-6.278,-6.278,-6.278,-6.278,-6.278,-6.278,-6.278,-6.278,-6.278,-6.278,-6.278,-6.278,-6.278,-6.278,-6.278,-6.278,-6.278,-6.278,-6.278,-6.278,-6.278,-6.278,-6.278,-6.273,-6.2603,-6.2318,-6.1942,-6.1372,-6.0938,-6.0356,-5.9718,-5.952,-5.9285,-5.9012,-5.9012,-5.9012,-5.8978,-5.8944,-5.8736,-5.849,-5.8277,-5.8063,-5.7881,-5.7881,-5.7881,-5.7881,-5.7881,-5.7881,-5.7881,-5.7881,-5.8896,-6.0114,0.0,0.0,0.0,0.0,0.0,0.0,0.0,0.0,0.0,0.0,0.0,0.0,0.0,0.0,-6.1119,-6.1119,0.0,-6.1119,-6.1119,-6.1119,-6.1218,-6.1583,-6.1649,-6.1649,-6.1649,-6.1989,-6.2354,-6.2719,-6.3448,-6.3835,-6.3835,-6.4498,-6.4895,-6.4895,-6.5591,-6.5955,-6.5955,-6.632,-6.6519,-6.6519,-6.6519,-6.6519,-6.6519,-6.6519,-6.6519,-6.6519,-6.6154,-6.5955,-6.5955,-6.5591,-6.5425,-6.5359,-6.4664,-6.4167,-6.3746,-6.261,-6.198,-6.1616,-6.1251,-6.1119,-6.1119,0.0,0.0,0.0,-6.278,-6.278,-6.278,-6.278,-6.278,-6.278,-6.278,-6.278,-6.278,-6.278,-6.278,-6.278,-6.278,-6.278,-6.278,-6.278,-6.278,-6.278,-6.278,-6.278,-6.278,-6.278,-6.278,-6.2755,-6.2654,-6.237,-6.1996,-6.1487,-6.1022,-6.0415,-5.9748,-5.9619,-5.9352,-5.9012,-5.9012,-5.9012,-5.9012,-5.9012,-5.8806,-5.849,-5.8348,-5.8099,-5.7881,-5.7881,-5.7881,-5.7881,-5.7881,-5.7881,-5.7915,-5.8051,-5.9032,-6.0148,-6.0283,-6.1298,0.0,0.0,0.0,0.0,0.0,0.0,0.0,0.0,-6.1119,-6.1119,-6.1119,-6.1119,-6.1119,-6.1119,-6.1119,-6.1119,-6.1119,-6.1218,-6.1516,-6.2122,-6.2321,-6.2487,-6.2619,-6.2652,-6.2884,-6.3438,-6.4167,-6.4597,-6.4597,-6.5094,-6.5492,-6.5624,-6.6187,-6.6585,-6.6717,-6.7268,-6.7566,-6.7566,-6.7566,-6.7566,-6.7566,-6.7566,-6.7566,-6.7566,-6.697,-6.6651,-6.6485,-6.5724,-6.5425,-6.5359,-6.4829,-6.4597,-6.4498,-6.3769,-6.315,-6.2553,-6.1616,-6.1318,-6.1285,0.0,0.0,0.0,0.0,0.0,-6.278,-6.278,-6.278,-6.278,-6.278,-6.278,-6.278,-6.278,-6.278,-6.278,-6.278,-6.278,-6.278,-6.278,-6.278,-6.278,-6.278,-6.278,-6.278,-6.278,-6.278,-6.278,-6.278,-6.25,-6.2078,-6.1487,-6.1022,-6.0388,-5.9586,-5.9419,-5.9217,-5.9012,-5.9012,-5.9012,-5.9012,-5.9012,-5.8806,-5.849,-5.849,-5.8241,-5.7881,-5.7881,-5.7881,-5.7881,-5.7881,-5.7881,-5.8017,-5.8693,-5.9438,-6.025,-6.096,-6.1738,-6.2341,-6.2076,-6.1716,-6.1424,-6.1383,-6.121,-6.1119,0.0,-6.1119,-6.1119,-6.1119,-6.1119,-6.1119,-6.1119,-6.1119,-6.1119,-6.1119,-6.1649,-6.2122,-6.2188,-6.2785,-6.3448,-6.4111,-6.41,-6.41,-6.4233,-6.4895,-6.5293,-6.5293,-6.5359,-6.569,-6.6353,-6.6485,-6.6817,-6.7433,-6.7533,-6.7566,-6.7566,-6.7566,-6.7566,-6.7566,-6.7566,-6.7566,-6.7566,-6.7499,-6.7148,-6.6485,-6.5724,-6.5425,-6.5392,-6.5326,-6.5293,-6.5227,-6.4531,-6.42,-6.3968,-6.2619,-6.2089,-6.1989,0.0,0.0,0.0,0.0,0.0,-6.278,-6.278,-6.278,-6.278,-6.278,-6.278,-6.278,-6.278,-6.278,-6.278,-6.278,-6.278,-6.278,-6.278,-6.278,-6.278,-6.278,-6.278,-6.278,-6.278,-6.278,-6.278,-6.278,-6.2526,-6.2132,-6.16,-6.1176,-6.0512,-5.9683,-5.9553,-5.9319,-5.9012,-5.9012,-5.9012,-5.9012,-5.9012,-5.8806,-5.849,-5.849,-5.8277,-5.7881,-5.7881,-5.7881,0.0,-5.7881,-5.7881,-5.8017,-5.8795,-5.9505,-6.025,-6.1061,-6.1806,-6.2341,-6.2076,-6.1756,-6.1547,-6.1424,-6.1252,-6.1119,-6.1119,-6.1119,-6.1119,-6.1119,-6.1119,-6.1119,-6.1119,-6.1119,-6.1119,-6.1119,-6.1715,-6.2354,-6.2785,-6.3481,-6.42,-6.4895,-6.4962,-6.4962,-6.4995,-6.526,-6.5591,-6.6022,-6.6055,-6.6386,-6.7069,-6.7546,-6.791,-6.8241,-6.8672,-6.8904,-6.8904,-6.8904,-6.8904,-6.8904,-6.8904,-6.8904,-6.8871,-6.844,-6.7612,-6.6485,-6.6187,-6.5823,-6.5425,-6.5425,-6.5425,-6.5392,-6.5094,-6.4995,-6.4796,-6.3338,-6.2586,-6.2188,0.0,0.0,0.0,0.0,0.0,-6.278,-6.278,-6.278,-6.278,-6.278,-6.278,-6.278,-6.278,-6.278,-6.278,-6.278,-6.278,-6.278,-6.278,-6.278,-6.278,-6.278,-6.278,-6.278,-6.278,-6.278,-6.278,-6.273,-6.2475,-6.2105,-6.1572,-6.1205,-6.0543,-5.9748,-5.9619,-5.9386,-5.9012,-5.9012,-5.9012,-5.9012,-5.9012,-5.8806,-5.849,-5.849,-5.8277,-5.7881,-5.7881,-5.7881,-5.7881,-5.7881,-5.7881,-5.8051,-5.8998,-5.9674,-6.0283,-6.1298,-6.1975,-6.2341,-6.215,-6.1951,-6.175,-6.1547,-6.1334,-6.1169,-6.1119,-6.1119,-6.1119,-6.1119,-6.1119,-6.1119,-6.1119,-6.1119,-6.1119,-6.1119,-6.1881,-6.2719,-6.3249,-6.4067,-6.4862,-6.5359,-6.5425,-6.5425,-6.5425,-6.5591,-6.5922,-6.6485,-6.6717,-6.7148,-6.7877,-6.8407,-6.8771,-6.9003,-6.95,-6.9798,-6.9798,-6.9798,-6.9798,-6.9798,-6.9798,-6.9798,-6.9765,-6.9036,-6.8109,-6.7082,-6.6684,-6.622,-6.569,-6.5492,-6.5425,-6.5425,-6.5425,-6.5425,-6.5293,-6.4266,-6.3405,-6.2752,0.0,0.0,0.0,0.0,0.0,-6.278,-6.278,-6.278,-6.278,-6.278,-6.278,-6.278,-6.278,-6.278,-6.278,-6.278,-6.278,-6.278,-6.278,-6.278,-6.278,-6.278,-6.278,-6.278,-6.278,-6.278,-6.273,-6.2603,-6.2344,-6.1914,-6.1321,-6.0962,-6.0388,-5.9621,-5.9621,-5.9386,-5.9012,-5.9012,-5.9012,-5.9012,-5.9012,-5.8806,-5.849,-5.849,-5.8277,-5.7881,-5.7881,-5.7881,-5.7881,-5.7881,-5.7881,-5.8152,-5.9607,-6.008,-6.0385,-6.1907,-6.2381,-6.2381,-6.2381,-6.2189,-6.1957,-6.175,-6.1547,-6.1342,-6.1127,-6.1119,-6.1119,-6.1119,-6.1119,-6.1119,-6.1119,-6.1119,-6.1119,-6.1119,-6.2312,-6.3282,-6.3315,-6.4498,-6.5392,-6.5425,-6.5425,-6.5425,-6.5425,-6.6055,-6.6485,-6.6519,-6.7135,-6.791,-6.8606,-6.8672,-6.9003,-6.9732,-6.9765,-6.9798,-6.9798,-6.9798,-6.9798,-6.9798,-6.9798,-6.9798,-6.9765,-6.9036,-6.8672,-6.8539,-6.7148,-6.6519,-6.6419,-6.5724,-6.5425,-6.5425,-6.5425,-6.5425,-6.5392,-6.5359,-6.4895,-6.41,0.0,0.0,0.0,0.0,0.0,0.0,-6.278,-6.278,-6.278,-6.278,-6.278,0.0,0.0,0.0,0.0,0.0,-6.278,-6.278,-6.278,-6.278,-6.278,-6.278,-6.278,-6.278,-6.278,-6.2705,-6.2654,-6.2603,-6.2238,-6.1804,-6.1292,-6.0933,-6.0388,-5.9621,-5.9621,-5.9386,-5.9012,-5.9012,-5.9012,-5.9012,-5.9012,-5.8806,-5.849,-5.849,-5.8277,-5.7881,0.0,-5.7881,-5.7881,-5.7881,-5.7881,-5.8152,-5.9641,-6.0114,-6.0385,-6.1941,-6.2381,-6.2381,-6.2381,-6.2189,-6.1997,-6.1917,-6.1669,-6.1383,-6.1301,-6.121,-6.1119,-6.1119,-6.1119,-6.1119,-6.1119,-6.1119,-6.1251,-6.1748,-6.2643,-6.3481,-6.3935,-6.4829,-6.5425,-6.5425,-6.5425,-6.5591,-6.6088,-6.6386,-6.6672,-6.7168,-6.791,-6.8639,-6.9368,-6.9434,-6.9533,-6.9798,-6.9798,-6.9798,-6.9798,-6.9798,-6.9798,-6.9798,-6.9798,-6.9798,-6.9765,-6.9533,-6.9136,-6.8672,-6.8175,-6.7413,-6.6485,-6.6254,-6.5856,-6.5425,-6.5425,-6.5425,-6.5425,-6.5425,-6.526,-6.4929,0.0,0.0,0.0,0.0,0.0,0.0,0.0,0.0,0.0,0.0,0.0,0.0,0.0,0.0,0.0,0.0,0.0,-6.278,-6.278,-6.278,-6.278,-6.278,-6.2755,-6.273,-6.273,-6.2552,-6.2423,-6.2397,-6.1969,-6.1551,-6.1081,-6.0788,-6.0297,-5.9621,-5.9621,-5.9386,-5.9012,-5.9012,-5.9012,-5.9012,-5.9012,-5.8806,-5.849,-5.849,-5.8277,0.0,-5.7881,-5.7881,-5.7881,-5.7881,-5.7881,-5.8084,-5.9336,-6.008,-6.0791,-6.2009,-6.2381,-6.2381,-6.2381,-6.2268,-6.215,-6.2037,-6.1797,-6.1628,-6.1506,-6.1375,-6.121,-6.121,-6.1127,-6.1119,-6.1119,-6.1119,-6.1351,-6.2089,-6.2818,-6.358,-6.431,-6.4962,-6.5425,-6.5425,-6.5425,-6.569,-6.6452,-6.6751,-6.7214,-6.7943,-6.8672,-6.9301,-6.9765,-6.9798,-6.9798,-6.9798,-6.9798,-6.9798,-6.9798,-6.9798,-6.9798,-6.9798,-6.9798,-6.9798,-6.9798,-6.9798,-6.9533,-6.9069,-6.8804,-6.8009,-6.6837,-6.6618,-6.6088,-6.5425,-6.5425,-6.5425,-6.5425,-6.5425,-6.5425,-6.5326,0.0,0.0,0.0,0.0,0.0,0.0,0.0,0.0,0.0,0.0,0.0,0.0,0.0,0.0,0.0,0.0,0.0,0.0,-6.278,-6.278,-6.278,-6.278,-6.2654,-6.2578,-6.2578,-6.2318,-6.2105,-6.1969,-6.1523,-6.1117,-6.0752,-6.0516,-6.011,-5.9588,-5.9588,-5.9352,-5.9012,-5.9012,-5.9012,-5.9012,-5.9012,-5.8806,-5.849,-5.849,-5.8277,-5.7881,-5.7881,-5.7881,-5.7881,-5.7881,-5.7915,-5.8084,-5.8829,-6.008,-6.1434,-6.2178,-6.2381,-6.2381,-6.2381,-6.2381,-6.2341,-6.2076,-6.1997,-6.1957,-6.175,-6.1547,-6.1424,-6.1383,-6.1252,-6.1119,-6.1119,-6.1119,-6.1351,-6.2155,-6.2851,-6.358,-6.4332,-6.4995,-6.5425,-6.5425,-6.5459,-6.5757,-6.6485,-6.7202,-6.7976,-6.8705,-6.9401,-6.9798,-6.9798,-6.9798,-6.9798,-6.9798,-6.9798,-6.9798,-6.9798,-6.9798,-6.9798,-6.9798,-6.9798,-6.9798,-6.9798,-6.9798,-6.9798,-6.9765,-6.9036,-6.8307,-6.7533,-6.6804,-6.6121,-6.5425,-6.5425,-6.5425,-6.5425,-6.5425,-6.5425,-6.5326,0.0,0.0,0.0,0.0,0.0,0.0,0.0,0.0,0.0,0.0,0.0,0.0,0.0,0.0,0.0,0.0,0.0,0.0,-6.278,-6.2705,-6.2654,-6.2654,-6.2423,-6.2291,-6.2291,-6.206,-6.184,-6.1636,-6.1292,-6.0908,-6.045,-6.0266,-5.9881,-5.9386,-5.9386,-5.9251,-5.9012,-5.9012,-5.9012,-5.9012,-5.9012,-5.8806,-5.849,-5.849,-5.8277,-5.7881,-5.7881,-5.7881,-5.7881,-5.7881,-5.8254,-5.8863,-5.9607,-6.052,-6.1434,-6.2178,-6.2381,-6.2381,-6.2381,-6.2381,-6.2381,-6.2341,-6.215,-6.1997,-6.1917,-6.179,-6.1588,-6.1424,-6.1342,-6.1293,-6.1161,-6.1119,-6.1516,-6.2818,-6.3183,-6.3703,-6.4962,-6.5293,-6.5425,-6.5425,-6.5922,-6.6519,-6.7235,-6.8009,-6.8738,-6.9467,-6.9666,-6.9798,-6.9798,-6.9798,-6.9798,-6.9798,-6.9798,-6.9798,-6.9798,-6.9798,-6.9798,-6.9798,-6.9798,-6.9798,-6.9798,-6.9798,-6.9798,-6.9765,-6.9599,-6.8804,-6.7566,-6.7367,-6.6585,-6.5425,-6.5425,-6.5425,-6.5425,-6.5425,-6.5425,-6.5392,0.0,0.0,0.0,0.0,0.0,0.0,0.0,0.0,0.0,0.0,0.0,0.0,0.0,0.0,0.0,0.0,0.0,0.0,0.0,-6.25,-6.2397,-6.2344,-6.2051,-6.1887,-6.1804,-6.1523,-6.1321,-6.1198,-6.0944,-6.0609,-6.0199,-6.004,-5.9716,-5.9319,-5.9319,-5.9217,-5.9012,-5.9012,-5.9012,0.0,0.0,-5.8806,-5.849,-5.849,-5.8277,-5.7881,-5.7881,-5.7881,-5.7881,-5.7881,-5.8152,-5.8693,-5.9776,-6.0419,-6.0994,-6.2076,-6.2381,-6.2381,-6.2381,-6.2381,-6.2381,-6.2381,-6.2302,-6.2189,-6.2189,-6.1991,-6.179,-6.1588,-6.1465,-6.1342,-6.1161,-6.1119,-6.1483,-6.2652,-6.3116,-6.367,-6.4763,-6.5227,-6.5425,-6.5425,-6.6055,-6.6817,-6.7499,-6.8274,-6.9003,-6.9732,-6.9798,-6.9798,-6.9798,-6.9798,-6.9798,-6.9798,-6.9798,-6.9798,-6.9798,-6.9798,-6.9798,-6.9798,-6.9798,-6.9798,-6.9798,-6.9798,-6.9798,-6.9798,-6.9798,-6.9136,-6.8076,-6.7744,-6.6904,-6.5856,-6.5558,-6.5425,-6.5425,-6.5425,-6.5425,-6.5425,0.0,0.0,0.0,0.0,0.0,0.0,0.0,0.0,0.0,0.0,-6.2755,-6.278,0.0,0.0,0.0,0.0,0.0,0.0,0.0,0.0,-6.2078,-6.1942,-6.1636,-6.1408,-6.1263,-6.0938,-6.0757,-6.0727,-6.0485,-6.0234,-6.001,-5.9814,-5.9551,-5.9285,-5.9285,-5.9149,-5.9012,-5.9012,-5.9012,-5.9012,-5.8978,-5.8771,-5.849,0.0,-5.8241,-5.7881,-5.7881,-5.7881,-5.7881,-5.7881,-5.7881,-5.8152,-5.9641,-6.0114,-6.0385,-6.1941,-6.2381,-6.2381,-6.2381,-6.2381,-6.2381,-6.2381,-6.2381,-6.2381,-6.2381,-6.2229,-6.1997,-6.175,-6.1547,-6.1342,-6.1127,-6.1119,-6.1351,-6.2089,-6.2818,-6.3504,-6.4233,-6.4962,-6.5425,-6.5425,-6.6154,-6.6916,-6.7533,-6.8374,-6.9103,-6.9732,-6.9798,-6.9798,-6.9798,-6.9798,-6.9798,-6.9798,-6.9798,-6.9798,-6.9798,-6.9798,-6.9798,-6.9798,-6.9798,-6.9798,-6.9798,-6.9798,-6.9798,-6.9798,-6.9798,-6.9368,-6.8639,-6.791,-6.7181,-6.6452,-6.569,-6.5425,-6.5425,-6.5425,-6.5425,-6.5425,0.0,0.0,0.0,0.0,0.0,0.0,0.0,0.0,0.0,0.0,-6.2578,-6.278,0.0,0.0,0.0,0.0,0.0,0.0,0.0,0.0,0.0,-6.1572,-6.1321,-6.1058,-6.0873,-6.0696,-6.0516,-6.0199,-6.0171,-5.9914,-5.9453,-5.9385,-5.925,-5.9047,-5.9047,-5.9012,-5.9012,-5.9012,-5.9012,-5.8978,-5.8875,-5.8701,-5.849,-5.8312,0.0,0.0,-5.7881,-5.7881,-5.7881,-5.7881,-5.7881,-5.8152,-5.9641,-6.0114,-6.0385,-6.1941,-6.2381,-6.2381,-6.2381,-6.2381,-6.2381,-6.2381,-6.2381,-6.2381,-6.2381,-6.2381,-6.2223,-6.179,-6.1669,-6.1506,-6.1169,-6.1119,-6.1351,-6.2089,-6.2818,-6.358,-6.4266,-6.4962,-6.5425,-6.5425,-6.6618,-6.7433,-6.7566,-6.8837,-6.9666,-6.9765,-6.9798,-6.9798,-6.9798,-6.9798,-6.9798,-6.9798,-6.9798,-6.9798,-6.9798,-6.9798,-6.9798,-6.9798,-6.9798,-6.9798,-6.9798,-6.9798,-6.9798,-6.9798,-6.9798,-6.9368,-6.8639,-6.791,-6.7181,-6.6452,-6.569,-6.5425,-6.5425,-6.5425,-6.5425,-6.5425,0.0,0.0,0.0,0.0,0.0,0.0,0.0,-6.2158,-6.1996,-6.1859,-6.2041,-6.2281,-6.2475,-6.237,-6.2238,0.0,0.0,0.0,0.0,0.0,0.0,0.0,0.0,0.0,-6.0167,-6.0107,-5.9978,-5.9849,0.0,-5.9652,-5.9319,-5.9319,-5.9183,-5.9012,-5.9012,-5.9012,-5.9012,-5.9012,-5.8944,-5.8909,-5.8806,-5.8596,-5.8348,0.0,0.0,0.0,-5.7881,-5.7881,-5.7881,-5.7881,-5.7881,-5.8084,-5.9201,-5.981,-6.0317,-6.1501,-6.211,-6.2381,-6.2381,-6.2381,-6.2381,-6.2381,-6.2381,-6.2381,-6.2381,-6.2381,-6.2263,-6.179,-6.1709,-6.1547,-6.1169,-6.1119,-6.1218,-6.155,-6.2543,-6.3448,-6.3813,-6.473,-6.5558,-6.5955,-6.6904,-6.7777,-6.8142,-6.9169,-6.9798,-6.9798,-6.9798,-6.9798,-6.9798,-6.9798,-6.9798,-6.9798,-6.9798,-6.9798,-6.9798,-6.9798,-6.9798,-6.9798,-6.9798,-6.9798,-6.9798,-6.9798,-6.9798,-6.9798,-6.9798,-6.9599,-6.9169,-6.8076,-6.7367,-6.6982,-6.5856,-6.5425,-6.5425,-6.5425,-6.5425,-6.5425,0.0,0.0,0.0,0.0,0.0,0.0,-6.1942,-6.1656,-6.1458,-6.1315,-6.1401,-6.1544,-6.1832,-6.1887,-6.1832,0.0,0.0,0.0,0.0,0.0,0.0,0.0,0.0,0.0,-5.9621,0.0,0.0,-5.9554,-5.9554,0.0,0.0,0.0,0.0,0.0,-5.8944,-5.8944,-5.8944,-5.8944,-5.8909,0.0,0.0,-5.849,0.0,0.0,0.0,0.0,0.0,-5.7881,-5.7881,-5.7881,-5.7881,-5.7983,-5.8592,-5.9404,-6.025,-6.1061,-6.1806,-6.2381,-6.2381,-6.2381,-6.2381,-6.2381,-6.2381,-6.2381,-6.2381,-6.2381,-6.2263,-6.179,-6.1709,-6.1547,-6.1169,-6.1119,-6.1119,-6.1119,-6.2345,-6.3315,-6.3315,-6.4498,-6.569,-6.6419,-6.7181,-6.791,-6.8606,-6.9368,-6.9798,-6.9798,-6.9798,-6.9798,-6.9798,-6.9798,-6.9798,-6.9798,-6.9798,-6.9798,-6.9798,-6.9798,-6.9798,-6.9798,-6.9798,-6.9798,-6.9798,-6.9798,-6.9798,-6.9798,-6.9798,-6.9798,-6.9666,-6.8241,-6.7566,-6.7433,-6.5989,-6.5425,-6.5425,-6.5425,-6.5425,-6.5425,0.0,0.0,0.0,0.0,0.0,0.0,-6.1608,-6.1169,-6.0813,-6.0696,-6.0696,-6.0727,-6.0757,-6.1234,-6.1487,0.0,0.0,0.0,0.0,0.0,0.0,0.0,0.0,0.0,0.0,0.0,0.0,-5.9319,-5.9319,0.0,0.0,0.0,0.0,0.0,0.0,-5.8806,-5.8806,-5.8806,0.0,0.0,0.0,0.0,0.0,0.0,0.0,0.0,0.0,-5.7881,-5.7881,-5.7881,-5.7881,-5.7915,-5.7983,-5.8964,-6.025,-6.1061,-6.1806,-6.2381,-6.2381,-6.2381,-6.2381,-6.2381,-6.2381,-6.2381,-6.2381,-6.2381,-6.2263,-6.179,-6.1709,-6.1547,-6.1169,-6.1119,-6.1119,-6.1119,-6.2345,-6.3315,-6.3315,-6.4498,-6.569,-6.6419,-6.7181,-6.791,-6.8606,-6.9368,-6.9798,-6.9798,-6.9798,-6.9798,-6.9798,-6.9798,-6.9798,-6.9798,-6.9798,-6.9798,-6.9798,-6.9798,-6.9798,-6.9798,-6.9798,-6.9798,-6.9798,-6.9798,-6.9798,-6.9798,-6.9798,-6.9798,-6.9666,-6.8241,-6.7566,-6.7433,-6.5989,-6.5425,-6.5425,-6.5425,-6.5425,-6.5425,0.0,0.0,0.0,0.0,0.0,0.0,-6.0843,-6.0446,-6.0167,-6.001,-6.0072,-6.0135,-6.0135,-6.0321,-6.0538,-6.0696,-6.0512,0.0,0.0,0.0,0.0,0.0,0.0,0.0,0.0,0.0,-5.9217,-5.9115,-5.9115,0.0,0.0,0.0,0.0,0.0,0.0,-5.8631,-5.8631,-5.8631,0.0,0.0,0.0,0.0,0.0,0.0,0.0,0.0,0.0,0.0,-5.7881,-5.7881,-5.7881,-5.7881,-5.7881,-5.8896,-6.0148,-6.0486,-6.1434,-6.2381,-6.2381,-6.2381,-6.2381,-6.2381,-6.2381,-6.2381,-6.2381,-6.2381,-6.2302,-6.1951,-6.179,-6.1588,-6.1334,-6.1169,-6.1119,-6.1119,-6.2345,-6.3315,-6.3315,-6.4498,-6.5856,-6.7003,-6.74,-6.8076,-6.9235,-6.9633,-6.9798,-6.9798,-6.9798,-6.9798,-6.9798,-6.9798,-6.9798,-6.9798,-6.9798,-6.9798,-6.9798,-6.9798,-6.9798,-6.9798,-6.9798,-6.9798,-6.9798,-6.9798,-6.9798,-6.9798,-6.9798,-6.9798,-6.9666,-6.8241,-6.7566,-6.7433,-6.5989,-6.5425,-6.5425,-6.5425,-6.5425,-6.5425,0.0,0.0,0.0,0.0,0.0,-6.0661,-6.0294,-5.9911,-5.9617,-5.952,-5.9584,-5.965,-5.965,-5.9716,-5.9814,-6.0008,-5.9943,0.0,0.0,0.0,0.0,0.0,0.0,0.0,0.0,0.0,-5.9012,-5.9012,-5.8944,-5.8909,0.0,0.0,-5.8561,-5.8419,0.0,0.0,0.0,0.0,0.0,0.0,0.0,0.0,0.0,0.0,0.0,0.0,0.0,0.0,0.0,0.0,0.0,-5.7881,-5.7881,-5.8896,-6.0114,-6.0114,-6.1197,-6.2381,-6.2381,-6.2381,-6.2381,-6.2381,-6.2381,-6.2381,-6.2381,-6.2381,-6.2341,-6.2037,-6.1837,-6.1628,-6.1424,-6.1252,-6.1119,-6.1119,-6.2345,-6.3315,-6.3315,-6.4498,-6.5955,-6.74,-6.7566,-6.8208,-6.9666,-6.9798,-6.9798,-6.9798,-6.9798,-6.9798,-6.9798,-6.9798,-6.9798,-6.9798,-6.9798,-6.9798,-6.9798,-6.9798,-6.9798,-6.9798,-6.9798,-6.9798,-6.9798,-6.9798,-6.9798,-6.9798,-6.9798,-6.9798,-6.9666,-6.8241,-6.7566,-6.7433,-6.5989,-6.5425,-6.5425,-6.5425,-6.5425,-6.5425,0.0,0.0,0.0,0.0,0.0,-6.0262,-6.0104,-5.9652,-5.9319,-5.9319,-5.9319,-5.9319,-5.9319,-5.9486,-5.952,-5.9319,-5.9486,0.0,0.0,0.0,0.0,0.0,0.0,0.0,0.0,0.0,-5.9012,-5.9012,-5.8875,-5.8805,-5.8771,-5.8384,-5.8241,-5.8171,0.0,0.0,0.0,0.0,0.0,0.0,0.0,0.0,-5.7881,0.0,0.0,0.0,0.0,0.0,0.0,0.0,0.0,0.0,0.0,-5.8896,-6.0114,-6.0114,-6.1197,-6.2381,-6.2381,-6.2381,-6.2381,-6.2381,-6.2381,-6.2381,-6.2381,-6.2381,-6.2341,-6.2037,-6.1837,-6.1628,-6.1424,-6.1252,-6.1119,-6.1119,-6.2345,-6.3315,-6.3315,-6.4498,-6.5955,-6.74,-6.7566,-6.8208,-6.9666,-6.9798,-6.9798,-6.9798,-6.9798,-6.9798,-6.9798,-6.9798,-6.9798,-6.9798,-6.9798,-6.9798,-6.9798,-6.9798,-6.9798,-6.9798,-6.9798,-6.9798,-6.9798,-6.9798,-6.9798,-6.9798,-6.9798,-6.9798,-6.9666,-6.8241,-6.7566,-6.7433,-6.5989,-6.5425,-6.5425,-6.5425,-6.5425,-6.5425,0.0,0.0,0.0,0.0,0.0,0.0,-5.9586,-5.9284,-5.9081,-5.9081,-5.9081,-5.9081,-5.9081,-5.9149,-5.9149,-5.9081,-5.9285,0.0,0.0,0.0,0.0,0.0,0.0,0.0,0.0,-5.9012,-5.8944,-5.8875,-5.8806,-5.8666,-5.8384,-5.8277,-5.8099,-5.7991,-5.7991,-5.7991,0.0,0.0,0.0,0.0,0.0,-5.7881,-5.7881,0.0,0.0,0.0,0.0,0.0,0.0,0.0,0.0,0.0,0.0,0.0,0.0,-6.0757,-6.1603,-6.2381,-6.2381,-6.2381,-6.2381,-6.2381,-6.2381,-6.2381,-6.2381,-6.2381,-6.2381,-6.2302,-6.1951,-6.1669,-6.1628,-6.1334,-6.1119,-6.1119,-6.2345,-6.3315,-6.3315,-6.4498,-6.5955,-6.74,-6.8506,-6.9301,-6.9732,-6.9798,-6.9798,-6.9798,-6.9798,-6.9798,-6.9798,-6.9798,-6.9798,-6.9798,-6.9798,-6.9798,-6.9798,-6.9798,-6.9798,-6.9798,-6.9798,-6.9798,-6.9798,-6.9798,-6.9798,-6.9798,-6.9798,-6.9798,-6.9666,-6.8241,-6.7566,-6.7433,-6.5989,-6.5425,-6.5425,-6.5425,-6.5425,-6.5425,0.0,0.0,0.0,0.0,0.0,0.0,-5.9352,-5.9115,-5.9012,-5.9012,-5.9012,-5.9012,-5.9012,-5.9012,-5.9012,-5.9012,-5.9115,0.0,0.0,0.0,0.0,0.0,0.0,0.0,-5.9012,-5.8944,-5.8875,-5.8805,-5.8631,-5.8455,-5.8171,-5.8099,-5.8027,-5.7881,-5.7881,-5.7881,0.0,0.0,0.0,0.0,-5.7881,-5.7881,-5.7881,0.0,0.0,0.0,0.0,0.0,0.0,0.0,0.0,0.0,0.0,0.0,0.0,0.0,-6.1806,-6.2381,-6.2381,-6.2381,-6.2381,-6.2381,-6.2381,-6.2381,-6.2381,-6.2381,-6.2381,-6.2381,-6.207,-6.179,-6.1709,-6.1458,-6.1169,-6.1119,-6.2345,-6.3315,-6.3315,-6.4498,-6.5955,-6.74,-6.8904,-6.9798,-6.9798,-6.9798,-6.9798,-6.9798,-6.9798,-6.9798,-6.9798,-6.9798,-6.9798,-6.9798,-6.9798,-6.9798,-6.9798,-6.9798,-6.9798,-6.9798,-6.9798,-6.9798,-6.9798,-6.9798,-6.9798,-6.9798,-6.9798,-6.9798,0.0,-6.8241,-6.7566,-6.7433,-6.5989,-6.5425,-6.5425,-6.5425,-6.5425,-6.5425,0.0,0.0,0.0,0.0,0.0,0.0,0.0,-5.9115,-5.9012,-5.9012,-5.9012,-5.9012,-5.9012,-5.9012,-5.9012,-5.9012,-5.9012,0.0,0.0,0.0,0.0,0.0,0.0,0.0,-5.8978,-5.8875,-5.8805,-5.8736,-5.8384,-5.8171,-5.8171,-5.7991,-5.7881,-5.7881,-5.7881,-5.7881,-5.7881,-5.7881,-5.7881,-5.7881,-5.7881,-5.7881,0.0,0.0,0.0,0.0,0.0,0.0,0.0,0.0,0.0,0.0,0.0,0.0,0.0,0.0,0.0,0.0,0.0,-6.2381,-6.2381,-6.2381,-6.2381,-6.2381,-6.2381,-6.2381,0.0,-6.2381,-6.2189,-6.1957,-6.175,-6.1547,-6.1301,-6.1127,-6.2345,-6.3315,-6.3315,-6.4597,-6.6088,-6.7433,-6.8904,-6.9798,-6.9798,-6.9798,-6.9798,-6.9798,-6.9798,-6.9798,-6.9798,-6.9798,-6.9798,-6.9798,-6.9798,-6.9798,-6.9798,-6.9798,-6.9798,-6.9798,-6.9798,-6.9798,-6.9798,-6.9798,-6.9798,-6.9798,-6.9798,-6.9798,-6.9666,-6.8241,-6.7566,-6.7433,-6.5989,-6.5425,-6.5425,-6.5425,-6.5425,-6.5425,0.0,0.0,0.0,0.0,0.0,0.0,0.0,0.0,0.0,0.0,-5.9012,-5.9012,-5.9012,-5.9012,-5.9012,0.0,0.0,0.0,0.0,0.0,0.0,0.0,0.0,0.0,-5.884,-5.8806,-5.8631,-5.8348,-5.8277,-5.8099,-5.7954,-5.7918,-5.7881,-5.7881,-5.7881,-5.7881,-5.7881,-5.7881,-5.7881,-5.7881,-5.7881,-5.7881,0.0,0.0,0.0,0.0,-5.7881,-5.7881,0.0,0.0,0.0,0.0,0.0,0.0,0.0,0.0,-6.2245,-6.2381,-6.2381,0.0,-6.2381,-6.2381,-6.2381,-6.2381,0.0,-6.2381,-6.2381,-6.2381,-6.2189,-6.1957,-6.175,-6.1547,-6.1301,-6.1127,-6.2345,-6.3315,-6.3315,-6.5492,-6.7202,-6.7533,-6.8904,-6.9798,-6.9798,-6.9798,-6.9798,-6.9798,-6.9798,-6.9798,-6.9798,-6.9798,-6.9798,-6.9798,-6.9798,-6.9798,-6.9798,-6.9798,-6.9798,-6.9798,-6.9798,-6.9798,-6.9798,-6.9798,-6.9798,-6.9798,-6.9798,-6.9798,-6.9666,-6.8241,-6.7566,-6.7433,-6.5989,-6.5425,-6.5425,-6.5425,-6.5425,-6.5425,0.0,0.0,0.0,0.0,0.0,0.0,0.0,0.0,0.0,0.0,-5.9012,-5.9012,-5.9012,-5.9012,-5.9012,0.0,0.0,0.0,0.0,0.0,0.0,0.0,0.0,-5.8944,-5.8771,-5.8701,-5.8525,-5.8171,-5.8099,-5.7991,-5.7881,-5.7881,-5.7881,-5.7881,-5.7881,-5.7881,-5.7881,-5.7881,-5.7881,-5.7881,-5.7881,0.0,0.0,0.0,0.0,0.0,-5.7881,-5.7881,0.0,-5.7881,-5.7881,-5.8152,0.0,0.0,0.0,0.0,-6.2381,-6.2381,-6.2381,-6.2381,-6.2381,-6.2381,-6.2381,-6.2381,-6.2381,-6.2381,-6.2381,-6.2381,-6.2268,-6.207,-6.175,-6.1588,-6.1424,-6.1161,-6.2345,-6.3504,-6.4167,-6.6187,-6.7566,-6.7566,-6.8904,-6.9798,-6.9798,-6.9798,-6.9798,-6.9798,-6.9798,-6.9798,-6.9798,-6.9798,-6.9798,-6.9798,-6.9798,-6.9798,-6.9798,-6.9798,-6.9798,-6.9798,-6.9798,-6.9798,-6.9798,-6.9798,-6.9798,-6.9798,-6.9798,-6.9798,-6.9666,-6.8241,-6.7566,-6.7433,-6.5989,-6.5425,-6.5425,-6.5425,-6.5425,-6.5425,0.0,0.0,0.0,0.0,0.0,0.0,0.0,0.0,0.0,0.0,0.0,0.0,0.0,0.0,0.0,0.0,0.0,0.0,0.0,0.0,0.0,0.0,-5.8944,-5.8909,-5.8736,-5.8561,-5.8384,-5.8135,-5.7991,-5.7881,-5.7881,-5.7881,-5.7881,-5.7881,-5.7881,-5.7881,-5.7881,-5.7881,-5.7881,-5.7881,-5.7881,0.0,0.0,0.0,0.0,0.0,0.0,0.0,0.0,-5.7881,-5.7881,-5.8118,-5.9505,0.0,0.0,0.0,0.0,0.0,-6.2381,-6.2381,-6.2381,-6.2381,-6.2381,-6.2381,-6.2381,-6.2381,-6.2381,-6.2381,-6.2381,-6.2263,-6.179,-6.1709,-6.1547,-6.1202,-6.2345,-6.3769,-6.5227,-6.6684,-6.7566,-6.7566,-6.8904,-6.9798,-6.9798,-6.9798,-6.9798,-6.9798,-6.9798,-6.9798,-6.9798,-6.9798,-6.9798,-6.9798,-6.9798,-6.9798,-6.9798,-6.9798,-6.9798,-6.9798,-6.9798,-6.9798,-6.9798,-6.9798,-6.9798,-6.9798,-6.9798,-6.9798,-6.9666,-6.8241,-6.7566,-6.7433,-6.5989,-6.5425,-6.5425,-6.5425,-6.5425,-6.5425,0.0,0.0,0.0,0.0,0.0,0.0,0.0,0.0,0.0,0.0,0.0,0.0,0.0,0.0,0.0,0.0,0.0,0.0,0.0,0.0,0.0,-5.884,-5.8806,-5.8736,-5.8561,-5.8348,-5.8169,-5.7954,-5.7918,-5.7881,-5.7881,-5.7881,-5.7881,-5.7881,-5.7881,-5.7881,-5.7881,-5.7881,-5.7881,-5.7881,-5.7881,0.0,0.0,0.0,0.0,0.0,0.0,0.0,0.0,-5.7881,-5.7881,-5.8051,-5.8896,0.0,0.0,0.0,0.0,0.0,-6.2381,-6.2381,-6.2381,-6.2381,-6.2381,-6.2381,-6.2381,-6.2381,-6.2381,-6.2381,-6.2381,-6.2263,-6.179,-6.1709,-6.1547,-6.1202,-6.2345,-6.3769,-6.5227,-6.6684,-6.7566,-6.7566,-6.8904,-6.9798,-6.9798,-6.9798,-6.9798,-6.9798,-6.9798,-6.9798,-6.9798,-6.9798,-6.9798,-6.9798,-6.9798,-6.9798,-6.9798,-6.9798,-6.9798,-6.9798,-6.9798,-6.9798,-6.9798,-6.9798,-6.9798,-6.9798,-6.9798,-6.9798,-6.9666,-6.8241,-6.7566,-6.7433,-6.5989,-6.5425,-6.5425,-6.5425,-6.5425,-6.5425,0.0,0.0,0.0,0.0,0.0,0.0,0.0,0.0,0.0,0.0,0.0,0.0,0.0,0.0,0.0,0.0,0.0,0.0,0.0,0.0,-5.8875,-5.8771,-5.8596,-5.8455,-5.8348,-5.8277,-5.8099,-5.7881,-5.7881,-5.7881,-5.7881,-5.7881,-5.7881,-5.7881,-5.7881,-5.7881,-5.7881,-5.7881,-5.7881,-5.7881,0.0,0.0,0.0,0.0,0.0,0.0,0.0,0.0,0.0,0.0,-5.7881,-5.8017,-5.8795,0.0,0.0,0.0,0.0,0.0,-6.2279,-6.2381,-6.2381,-6.2381,-6.2381,-6.2381,-6.2381,-6.2381,-6.2381,-6.2381,-6.2381,-6.2263,-6.179,-6.1709,-6.1814,-6.223,-6.3173,-6.4233,-6.526,-6.6684,-6.7566,-6.7566,-6.8904,-6.9798,-6.9798,-6.9798,-6.9798,-6.9798,-6.9798,-6.9798,-6.9798,-6.9798,-6.9798,-6.9798,-6.9798,-6.9798,-6.9798,-6.9798,-6.9798,-6.9798,-6.9798,-6.9798,-6.9798,-6.9798,-6.9798,-6.9798,-6.9798,-6.9798,-6.9666,-6.8241,-6.7566,-6.7433,-6.5989,-6.5425,-6.5425,-6.5425,-6.5425,-6.5425,0.0,0.0,0.0,0.0,0.0,0.0,0.0,0.0,0.0,0.0,0.0,0.0,0.0,0.0,0.0,0.0,0.0,0.0,0.0,-5.884,-5.8736,-5.8666,-5.8384,-5.8171,-5.8171,-5.8135,-5.8027,-5.7881,-5.7881,-5.7881,-5.7881,-5.7881,-5.7881,-5.7881,-5.7881,-5.7881,-5.7881,-5.7881,-5.7881,-5.7881,0.0,0.0,0.0,0.0,0.0,0.0,0.0,0.0,0.0,0.0,0.0,0.0,0.0,0.0,0.0,-6.0419,-6.0892,-6.1129,-6.1704,-6.2009,-6.2144,-6.2144,-6.2245,-6.2381,-6.2381,-6.2381,-6.2381,-6.2381,-6.2381,-6.2263,-6.179,-6.1762,-6.2124,-6.3159,-6.3945,-6.463,-6.5326,-6.6684,-6.7566,-6.7566,-6.8904,-6.9798,-6.9798,-6.9798,-6.9798,-6.9798,-6.9798,-6.9798,-6.9798,-6.9798,-6.9798,-6.9798,-6.9798,-6.9798,-6.9798,-6.9798,-6.9798,-6.9798,-6.9798,-6.9798,-6.9798,-6.9798,-6.9798,-6.9798,-6.9798,-6.9798,-6.9666,-6.8241,-6.7566,-6.7433,-6.5989,-6.5425,-6.5425,-6.5425,-6.5425,-6.5425,0.0,0.0,0.0,0.0,0.0,0.0,0.0,0.0,0.0,0.0,0.0,0.0,0.0,0.0,0.0,0.0,0.0,0.0,0.0,-5.8805,-5.8631,-5.8277,-5.8241,-5.8171,-5.8171,-5.8027,-5.7918,-5.7881,-5.7881,-5.7881,-5.7881,-5.7881,-5.7881,-5.7881,-5.7881,-5.7881,-5.7881,-5.7881,-5.7881,-5.7881,-5.7881,0.0,0.0,0.0,0.0,0.0,0.0,0.0,0.0,0.0,0.0,0.0,0.0,0.0,-5.9032,-5.9133,-5.9674,-6.0216,-6.025,-6.0825,-6.1366,-6.1366,-6.1873,-6.2381,-6.2381,-6.2381,-6.2381,-6.2381,-6.2381,-6.2263,-6.179,-6.1949,-6.2387,-6.3183,-6.3945,-6.463,-6.5326,-6.6684,-6.7566,-6.7566,-6.8904,-6.9798,-6.9798,-6.9798,-6.9798,-6.9798,-6.9798,-6.9798,-6.9798,-6.9798,-6.9798,-6.9798,-6.9798,-6.9798,-6.9798,-6.9798,-6.9798,-6.9798,-6.9798,-6.9798,-6.9798,-6.9798,-6.9798,-6.9798,-6.9798,-6.9798,-6.9666,-6.8241,-6.7566,-6.7433,-6.5989,-6.5425,-6.5425,-6.5425,-6.5425,-6.5425,0.0,0.0,0.0,0.0,0.0,0.0,0.0,0.0,0.0,0.0,0.0,0.0,0.0,0.0,0.0,0.0,0.0,0.0,0.0,-5.8561,-5.8384,-5.8241,-5.8063,-5.7991,-5.7991,-5.7918,-5.7881,-5.7881,-5.7881,-5.7881,-5.7881,-5.7881,-5.7881,-5.7881,-5.7881,-5.7881,-5.7881,-5.7881,-5.7881,-5.7881,-5.7881,-5.7881,0.0,0.0,0.0,0.0,0.0,0.0,0.0,0.0,-5.7881,-5.7881,-5.7881,-5.8084,-5.8423,-5.8863,-5.9201,-5.9539,-5.9979,-6.0317,-6.0554,-6.0554,-6.1129,-6.1839,-6.2279,-6.2381,-6.2381,-6.2381,-6.2381,-6.2398,-6.2386,-6.2766,-6.3278,-6.3846,-6.4531,-6.5127,-6.5392,-6.6684,-6.7566,-6.7566,-6.8904,-6.9798,-6.9798,-6.9798,-6.9798,-6.9798,-6.9798,-6.9798,-6.9798,-6.9798,-6.9798,-6.9798,-6.9798,-6.9798,-6.9798,-6.9798,-6.9798,-6.9798,-6.9798,-6.9798,-6.9798,-6.9798,-6.9798,-6.9798,-6.9798,-6.9798,-6.9666,-6.8241,-6.7566,-6.7433,-6.5989,-6.5425,-6.5425,-6.5425,-6.5425,-6.5425,0.0,0.0,0.0,0.0,0.0,0.0,0.0,0.0,0.0,0.0,0.0,0.0,0.0,0.0,0.0,0.0,0.0,0.0,-5.8596,-5.8348,-5.8171,-5.8099,-5.7954,-5.7881,-5.7881,-5.7881,-5.7881,-5.7881,-5.7881,-5.7881,-5.7881,-5.7881,-5.7881,-5.7881,-5.7881,-5.7881,-5.7881,-5.7881,-5.7881,-5.7881,-5.7881,-5.7881,0.0,0.0,0.0,0.0,0.0,0.0,0.0,0.0,-5.7881,-5.7881,-5.7881,-5.7881,-5.7983,-5.849,-5.866,-5.8761,-5.9268,-5.9573,-5.9742,-5.9742,-6.052,-6.1434,-6.1941,-6.2212,-6.2381,-6.2381,-6.2263,-6.2306,-6.2721,-6.3199,-6.3677,-6.4277,-6.4929,-6.5425,-6.5425,-6.6485,-6.7301,-6.7566,-6.8705,-6.9533,-6.9765,-6.9798,-6.9798,-6.9798,-6.9798,-6.9798,-6.9798,-6.9798,-6.9798,-6.9798,-6.9798,-6.9798,-6.9798,-6.9798,-6.9798,-6.9798,-6.9798,-6.9798,-6.9798,-6.9798,-6.9798,-6.9798,-6.9798,-6.9798,-6.9666,-6.8241,-6.7301,-6.6817,-6.5823,-6.5425,-6.5425,-6.5425,-6.5425,-6.5425,0.0,0.0,0.0,0.0,0.0,0.0,0.0,0.0,-5.9012,-5.9012,0.0,0.0,0.0,0.0,0.0,0.0,0.0,0.0,-5.8207,-5.8171,-5.8099,-5.7918,-5.7881,-5.7881,-5.7881,-5.7881,-5.7881,-5.7881,-5.7881,-5.7881,-5.7881,-5.7881,-5.7881,-5.7881,-5.7881,-5.7881,-5.7881,-5.7881,-5.7881,-5.7881,-5.7881,-5.7881,-5.7881,0.0,0.0,0.0,0.0,0.0,0.0,0.0,-5.7881,-5.7881,-5.7881,-5.7881,-5.7881,-5.7881,-5.7881,-5.7881,-5.7881,-5.8423,-5.8998,-5.8998,-6.0148,-6.1298,-6.1298,-6.1873,-6.2381,-6.2381,-6.2024,-6.1944,-6.2673,-6.3073,-6.358,-6.4266,-6.4962,-6.5425,-6.5425,-6.6055,-6.6784,-6.7499,-6.8241,-6.897,-6.9732,-6.9798,-6.9798,-6.9798,-6.9798,-6.9798,-6.9798,-6.9798,-6.9798,-6.9798,-6.9798,-6.9798,-6.9798,-6.9798,-6.9798,-6.9798,-6.9798,-6.9798,-6.9798,-6.9798,-6.9798,-6.9798,-6.9798,-6.9798,-6.9666,-6.8241,-6.6705,-6.5425,-6.5425,-6.5425,-6.5425,-6.5425,-6.5425,-6.5425,0.0,0.0,0.0,0.0,0.0,0.0,0.0,0.0,-5.9012,-5.9012,-5.8944,0.0,0.0,0.0,0.0,0.0,0.0,0.0,-5.8171,-5.8063,-5.7954,-5.7881,-5.7881,-5.7881,-5.7881,-5.7881,-5.7881,-5.7881,-5.7881,-5.7881,-5.7881,-5.7881,-5.7881,-5.7881,-5.7881,-5.7881,-5.7881,-5.7881,-5.7881,-5.7881,-5.7881,-5.7881,-5.7881,0.0,0.0,0.0,0.0,0.0,0.0,0.0,0.0,0.0,-5.7881,-5.7881,-5.7881,-5.7881,-5.7881,-5.7881,-5.7881,-5.8051,-5.822,-5.822,-5.9336,-6.0452,-6.0452,-6.1467,-6.2381,-6.2381,-6.2548,-6.2878,-6.3484,-6.3967,-6.4441,-6.4995,-6.5293,-6.5425,-6.5425,-6.6055,-6.6784,-6.7499,-6.8241,-6.897,-6.9732,-6.9798,-6.9798,-6.9798,-6.9798,-6.9798,-6.9798,-6.9798,-6.9798,-6.9798,-6.9798,-6.9798,-6.9798,-6.9798,-6.9798,-6.9798,-6.9798,-6.9798,-6.9798,-6.9798,-6.9798,-6.9798,-6.9798,-6.9798,-6.9666,-6.8241,-6.6705,-6.5425,-6.5425,-6.5425,-6.5425,-6.5425,-6.5425,-6.5425,0.0,0.0,0.0,0.0,0.0,0.0,0.0,0.0,-5.8806,-5.8806,-5.8736,-5.8666,0.0,0.0,0.0,0.0,0.0,0.0,-5.8063,-5.7954,-5.7881,-5.7881,-5.7881,-5.7881,-5.7881,-5.7881,-5.7881,-5.7881,-5.7881,-5.7881,-5.7881,-5.7881,-5.7881,-5.7881,-5.7881,-5.7881,-5.7881,-5.7881,-5.7881,-5.7881,-5.7881,-5.7881,-5.7881,0.0,0.0,0.0,0.0,0.0,0.0,0.0,0.0,0.0,-5.7881,-5.7881,-5.7881,-5.7881,-5.7881,-5.7881,-5.7881,-5.7881,-5.7881,-5.7881,-5.8998,-6.025,-6.0858,-6.1738,-6.2381,-6.2381,-6.2717,-6.3172,-6.3819,-6.4257,-6.4773,-6.5293,-6.5425,-6.5425,-6.5425,-6.579,-6.6353,-6.7069,-6.7811,-6.8539,-6.9268,-6.9633,-6.9798,-6.9798,-6.9798,-6.9798,-6.9798,-6.9798,-6.9798,-6.9798,-6.9798,-6.9798,-6.9798,-6.9798,-6.9798,-6.9798,-6.9798,-6.9798,-6.9798,-6.9798,-6.9798,-6.9798,-6.9798,-6.9467,-6.8871,-6.7976,-6.6705,-6.5425,-6.5425,-6.5425,-6.5425,-6.5425,-6.5425,-6.5425,0.0,0.0,-5.8978,-5.8978,0.0,0.0,0.0,0.0,0.0,0.0,-5.849,-5.849,0.0,0.0,0.0,0.0,0.0,0.0,0.0,-5.7881,-5.7881,-5.7881,-5.7881,-5.7881,-5.7881,-5.7881,-5.7881,-5.7881,-5.7881,-5.7881,-5.7881,-5.7881,-5.7881,-5.7881,-5.7881,-5.7881,-5.7881,-5.7881,-5.7881,-5.7881,-5.7881,-5.7881,-5.7881,-5.7881,0.0,0.0,0.0,0.0,0.0,0.0,0.0,0.0,-5.7881,-5.7881,-5.7881,-5.7881,-5.7881,-5.7881,-5.7881,-5.7881,-5.7915,-5.7983,-5.9099,-6.0588,-6.2042,-6.2381,-6.2415,-6.2482,-6.2737,-6.3149,-6.3877,-6.4271,-6.4741,-6.5293,-6.5425,-6.5425,-6.5425,-6.5425,-6.569,-6.6419,-6.7181,-6.791,-6.8606,-6.9368,-6.9798,-6.9798,-6.9798,-6.9798,-6.9798,-6.9798,-6.9798,-6.9798,-6.9798,-6.9798,-6.9798,-6.9798,-6.9798,-6.9798,-6.9798,-6.9798,-6.9798,-6.9798,-6.9798,-6.9798,-6.9798,-6.897,-6.7566,-6.7566,-6.6705,-6.5425,-6.5425,-6.5425,-6.5425,-6.5425,-6.5425,-6.5425,0.0,0.0,-5.884,-5.884,0.0,0.0,0.0,0.0,0.0,0.0,0.0,0.0,0.0,0.0,0.0,0.0,0.0,0.0,0.0,-5.7881,-5.7881,-5.7881,-5.7881,-5.7881,-5.7881,-5.7881,-5.7881,-5.7881,-5.7881,-5.7881,-5.7881,-5.7881,-5.7881,-5.7881,-5.7881,-5.7881,-5.7881,-5.7881,-5.7881,-5.7881,-5.7881,-5.7881,-5.7881,-5.7881,-5.7881,0.0,0.0,0.0,0.0,0.0,0.0,0.0,-5.7881,-5.7881,-5.7881,-5.7881,-5.7881,-5.7881,-5.7881,-5.7881,-5.8017,-5.8626,-5.9911,-6.1264,-6.2178,-6.2381,-6.255,-6.3159,-6.3627,-6.4161,-6.4656,-6.5177,-6.5481,-6.5392,-6.5425,-6.5425,-6.5425,-6.5425,-6.569,-6.6419,-6.7181,-6.791,-6.8606,-6.9368,-6.9798,-6.9798,-6.9798,-6.9798,-6.9798,-6.9798,-6.9798,-6.9798,-6.9798,-6.9798,-6.9798,-6.9798,-6.9798,-6.9798,-6.9798,-6.9798,-6.9798,-6.9798,-6.9798,-6.9798,-6.9798,-6.897,-6.7566,-6.7566,-6.6705,-6.5425,-6.5425,-6.5425,-6.5425,-6.5425,-6.5425,-6.5425,0.0,0.0,0.0,0.0,0.0,0.0,0.0,0.0,0.0,0.0,0.0,0.0,0.0,0.0,0.0,0.0,0.0,0.0,0.0,-5.7881,-5.7881,-5.7881,-5.7881,-5.7881,-5.7881,-5.7881,-5.7881,-5.7881,-5.7881,-5.7881,-5.7881,-5.7881,-5.7881,-5.7881,-5.7881,-5.7881,-5.7881,-5.7881,-5.7881,-5.7881,-5.7881,-5.7881,-5.7881,-5.7881,-5.7881,-5.7881,-5.7881,0.0,0.0,0.0,0.0,0.0,0.0,0.0,-5.7881,-5.7881,-5.7881,-5.7881,-5.7881,-5.7881,-5.8152,-5.9268,-6.0148,-6.1028,-6.2144,-6.2381,-6.2719,-6.3802,-6.4139,-6.4438,-6.4933,-6.5411,-6.5692,-6.547,-6.5425,-6.5425,-6.5425,-6.5425,-6.5558,-6.5955,-6.6606,-6.7247,-6.7612,-6.8639,-6.9268,-6.9268,-6.9599,-6.9798,-6.9798,-6.9798,-6.9798,-6.9798,-6.9798,-6.9798,-6.9798,-6.9798,-6.9798,-6.9798,-6.9798,-6.9798,-6.9798,-6.9798,-6.9798,-6.9798,-6.9798,-6.897,-6.7566,-6.7566,-6.6705,-6.5425,-6.5425,-6.5425,-6.5425,-6.5425,-6.5425,-6.5425,0.0,0.0,0.0,0.0,0.0,0.0,0.0,0.0,0.0,0.0,0.0,0.0,0.0,0.0,0.0,0.0,0.0,0.0,0.0,0.0,0.0,-5.7881,-5.7881,-5.7881,-5.7881,-5.7881,-5.7881,-5.7881,-5.7881,-5.7881,-5.7881,-5.7881,-5.7881,-5.7881,-5.7881,-5.7881,-5.7881,-5.7881,-5.7881,-5.7881,-5.7881,-5.7881,-5.7881,-5.7881,-5.7881,-5.7881,-5.7881,-5.7881,-5.7881,-5.7881,0.0,0.0,0.0,0.0,-5.7881,-5.7881,-5.7881,-5.7881,-5.7881,-5.8084,-5.8558,-5.981,-6.0283,-6.0825,-6.211,-6.2381,-6.2787,-6.414,-6.4383,-6.4513,-6.51,-6.5554,-6.5736,-6.547,-6.5425,-6.5425,-6.5425,-6.5425,-6.5425,-6.5425,-6.6055,-6.6519,-6.6519,-6.7711,-6.8506,-6.8506,-6.9069,-6.9467,-6.9599,-6.9599,-6.9666,-6.9798,-6.9798,-6.9732,-6.9599,-6.9732,-6.9732,-6.9599,-6.9732,-6.9798,-6.9798,-6.9798,-6.9798,-6.9798,-6.9666,-6.8837,-6.7566,-6.7433,-6.6651,-6.5425,-6.5425,-6.5425,-6.5425,-6.5425,-6.5425,-6.5425,0.0,0.0,0.0,0.0,0.0,0.0,0.0,0.0,0.0,0.0,-5.7881,-5.7881,0.0,0.0,0.0,0.0,0.0,0.0,-5.7881,0.0,0.0,-5.7881,-5.7881,-5.7881,-5.7881,-5.7881,-5.7881,-5.7881,-5.7881,-5.7881,-5.7881,-5.7881,-5.7881,-5.7881,-5.7881,-5.7881,-5.7881,-5.7881,-5.7881,-5.7881,-5.7881,-5.7881,-5.7881,-5.7881,-5.7881,-5.7881,-5.7881,-5.7881,-5.7881,-5.7881,-5.7881,0.0,0.0,0.0,-5.7881,-5.7881,-5.7881,-5.7881,-5.7881,-5.8829,-5.9844,-6.0047,-6.1095,-6.2144,-6.2347,-6.2381,-6.2618,-6.3497,-6.4133,-6.4855,-6.578,-6.6029,-6.5922,-6.547,-6.5425,-6.5425,-6.5425,-6.5425,-6.5425,-6.5425,-6.6055,-6.6519,-6.6519,-6.7281,-6.7777,-6.7777,-6.7877,-6.8175,-6.8804,-6.8837,-6.9136,-6.9765,-6.9798,-6.9467,-6.8837,-6.9467,-6.9467,-6.8837,-6.95,-6.9798,-6.9798,-6.9798,-6.9798,-6.9765,-6.9103,-6.8374,-6.7533,-6.6916,-6.6154,-6.5425,-6.5425,-6.5425,-6.5425,-6.5425,-6.5425,-6.5425,0.0,0.0,0.0,0.0,0.0,0.0,0.0,0.0,0.0,0.0,0.0,-5.7881,0.0,0.0,0.0,-5.7881,-5.7881,-5.7881,-5.7881,-5.7881,-5.7881,-5.7881,-5.7881,-5.7881,-5.7881,-5.7881,-5.7881,-5.7881,-5.7881,-5.7881,-5.7881,-5.7881,-5.7881,-5.7881,-5.7881,-5.7881,-5.7881,-5.7881,-5.7881,-5.7881,-5.7881,-5.7881,-5.7881,-5.7881,-5.7881,-5.7881,-5.7881,-5.7881,-5.7881,-5.7881,-5.7881,-5.7881,-5.7881,0.0,0.0,0.0,-5.7881,-5.7881,-5.7881,-5.866,-5.9573,-6.0013,-6.096,-6.1873,-6.2313,-6.2381,-6.2618,-6.3362,-6.3985,-6.4664,-6.5335,-6.5741,-6.5824,-6.547,-6.5425,-6.5425,-6.5425,-6.5425,-6.5425,-6.5425,-6.569,-6.5889,-6.5889,-6.6585,-6.697,-6.697,-6.7334,-6.7777,-6.8076,-6.8076,-6.8241,-6.8572,-6.8572,-6.8407,-6.8109,-6.8804,-6.9235,-6.9301,-6.9633,-6.9798,-6.9798,-6.9798,-6.9798,-6.9765,-6.9003,-6.8274,-6.7533,-6.6817,-6.6088,-6.5425,-6.5425,-6.5425,-6.5425,-6.5425,-6.5425,-6.5425,0.0,0.0,0.0,0.0,0.0,0.0,0.0,0.0,0.0,0.0,0.0,0.0,0.0,0.0,0.0,0.0,-5.7881,-5.7881,-5.7881,-5.7881,-5.7881,-5.7881,-5.7881,-5.7881,-5.7881,-5.7881,-5.7881,-5.7881,-5.7881,-5.7881,-5.7881,-5.7881,-5.7881,-5.7881,-5.7881,-5.7881,-5.7881,-5.7881,-5.7881,-5.7881,-5.7881,-5.7881,-5.7881,-5.7881,-5.7881,-5.7881,-5.7881,-5.7881,-5.7881,-5.7881,-5.7881,-5.7881,-5.7881,-5.7881,0.0,0.0,0.0,-5.7881,-5.7881,-5.8592,-5.9404,-5.9979,-6.0858,-6.1704,-6.2245,-6.2341,-6.2437,-6.3012,-6.3478,-6.4044,-6.4537,-6.5311,-6.5692,-6.547,-6.5425,-6.5425,-6.5425,-6.5425,-6.5425,-6.5425,-6.5425,-6.5425,-6.5425,-6.5922,-6.6254,-6.6254,-6.6705,-6.7102,-6.7301,-6.7301,-6.74,-6.7566,-6.7566,-6.7499,-6.7301,-6.8042,-6.8771,-6.95,-6.9699,-6.9798,-6.9798,-6.9599,-6.95,-6.9467,-6.8738,-6.8009,-6.7235,-6.6506,-6.5922,-6.5425,-6.5425,-6.5425,-6.5425,-6.5425,-6.5425,-6.5425,0.0,0.0,0.0,0.0,0.0,0.0,0.0,0.0,0.0,0.0,0.0,-5.7881,-5.7881,-5.7881,-5.7881,-5.7881,-5.7881,-5.7881,-5.7881,-5.7881,-5.7881,-5.7881,-5.7881,0.0,-5.7881,-5.7881,-5.7881,-5.7881,-5.7881,-5.7881,-5.7881,-5.7881,-5.7881,-5.7881,-5.7881,-5.7881,-5.7881,-5.7881,-5.7881,-5.7881,-5.7881,-5.7881,-5.7881,-5.7881,-5.7881,-5.7881,-5.7881,-5.7881,-5.7881,-5.7881,-5.7881,-5.7881,-5.7881,-5.7881,-5.7881,0.0,0.0,0.0,-5.7881,-5.893,-6.0047,-6.008,-6.1231,-6.2347,-6.2381,-6.2189,-6.2037,-6.207,-6.2345,-6.2824,-6.3548,-6.4814,-6.5692,-6.547,-6.5425,-6.5425,-6.5425,-6.5425,-6.5425,-6.5425,-6.5425,-6.5425,-6.5425,-6.5459,-6.5492,-6.5492,-6.5492,-6.5823,-6.6552,-6.6585,-6.6916,-6.7566,-6.7566,-6.7235,-6.6585,-6.7268,-6.8042,-6.8771,-6.9467,-6.9798,-6.9765,-6.9069,-6.8738,-6.8705,-6.8009,-6.7235,-6.6519,-6.579,-6.5459,-6.5425,-6.5425,-6.5425,-6.5425,-6.5425,-6.5425,-6.5425,0.0,0.0,0.0,0.0,0.0,0.0,0.0,0.0,0.0,0.0,0.0,0.0,0.0,-5.7881,-5.7881,-5.7881,-5.7881,-5.7881,-5.7881,-5.7881,-5.7881,-5.7881,-5.7881,-5.7881,-5.7881,-5.7881,-5.7881,-5.7881,-5.7881,-5.7881,-5.7881,-5.7881,-5.7881,-5.7881,-5.7881,-5.7881,-5.7881,-5.7881,-5.7881,-5.7881,-5.7772,-5.7698,-5.7698,-5.7551,-5.7514,-5.7551,-5.7662,-5.7698,-5.7735,-5.7845,-5.7881,-5.7881,-5.7881,-5.7881,-5.7881,-5.7881,-5.7881,-5.7881,-5.7881,-5.8964,-6.0114,-6.0114,-6.1264,-6.2381,-6.2381,-6.2189,-6.1997,-6.1997,-6.2278,-6.2716,-6.3482,-6.4285,-6.4951,-6.5326,-6.5425,-6.5425,-6.5425,-6.5425,-6.5425,-6.5425,-6.5425,-6.5425,-6.5425,-6.5425,-6.5425,-6.5425,-6.5425,-6.5525,-6.579,-6.5823,-6.5922,-6.6187,-6.622,-6.632,-6.6519,-6.6738,-6.7281,-6.8009,-6.8274,-6.8407,-6.8407,-6.8109,-6.7744,-6.7281,-6.7016,-6.6705,-6.6452,-6.5724,-6.5425,-6.5425,-6.5425,-6.5425,-6.5425,-6.5425,-6.5425,-6.5425,0.0,0.0,0.0,-5.7881,0.0,-5.7881,-5.7881,-5.7881,-5.7881,-5.7881,0.0,0.0,0.0,0.0,-5.7881,-5.7881,-5.7881,-5.7881,-5.7881,-5.7881,-5.7881,-5.7881,-5.7881,-5.7881,-5.7881,-5.7881,-5.7881,-5.7881,-5.7881,-5.7881,-5.7881,-5.7881,-5.7881,-5.7881,-5.7881,-5.7881,-5.7881,-5.7881,-5.7881,-5.7881,-5.7662,-5.7588,-5.7588,-5.7364,-5.7289,-5.7327,-5.7439,-5.7514,-5.7514,-5.7662,-5.7698,-5.7698,-5.7698,-5.7698,-5.7698,-5.7698,-5.7735,-5.7876,-5.8076,-5.9055,-6.0068,-6.0304,-6.1278,-6.2183,-6.2183,-6.1991,-6.1797,-6.1797,-6.1948,-6.2257,-6.2988,-6.3557,-6.4266,-6.526,-6.5425,-6.5425,-6.5425,-6.5425,-6.5425,-6.5425,-6.5425,-6.5425,-6.5425,-6.5425,-6.5425,-6.5425,-6.5425,-6.5425,-6.5425,-6.5425,-6.5425,-6.5425,-6.5425,-6.5657,-6.6154,-6.6386,-6.6784,-6.7202,-6.7466,-6.7566,-6.7566,-6.7334,-6.6982,-6.6519,-6.6254,-6.6154,-6.6121,-6.5624,-6.5425,-6.5425,-6.5425,-6.5425,-6.5425,-6.5425,-6.5425,-6.5425,-5.7881,-5.7881,-5.7881,-5.7881,-5.7881,-5.7881,-5.7881,-5.7881,-5.7881,-5.7881,0.0,0.0,0.0,0.0,0.0,-5.7881,-5.7881,-5.7881,-5.7881,-5.7881,-5.7881,-5.7881,-5.7881,-5.7881,-5.7881,-5.7881,-5.7881,-5.7881,-5.7881,-5.7881,-5.7881,-5.7881,-5.7881,-5.7881,-5.7881,-5.7881,-5.7881,-5.7881,-5.7881,-5.7845,-5.7662,-5.7588,-5.7551,-5.7364,-5.7289,-5.7323,-5.7323,-5.7323,-5.7323,-5.7323,-5.7289,-5.7289,-5.7289,-5.7289,-5.7289,-5.7289,-5.7439,-5.779,0.0,0.0,0.0,-6.0712,-6.1333,-6.1709,-6.1709,-6.1547,-6.1383,-6.1383,-6.1252,-6.1318,-6.2089,-6.2785,-6.3703,-6.516,-6.5392,-6.5425,-6.5425,-6.5425,-6.5425,-6.5425,-6.5425,-6.5425,-6.5425,-6.5425,-6.5425,-6.5425,-6.5425,-6.5425,-6.5425,-6.5425,-6.5425,-6.5425,-6.5425,-6.5425,-6.5425,-6.6121,-6.6485,-6.6485,-6.7168,-6.7533,-6.7499,-6.6771,-6.6485,-6.6452,-6.5724,-6.5425,-6.5425,-6.5425,-6.5425,-6.5425,-6.5425,-6.5425,-6.5425,-6.5425,-6.5425,-6.5425,-5.7881,-5.7881,-5.7881,-5.7881,-5.7881,-5.7881,-5.7881,-5.7881,-5.7881,0.0,0.0,0.0,-5.7881,-5.7881,-5.7881,-5.7881,-5.7881,-5.7881,-5.7881,-5.7881,-5.7881,-5.7881,-5.7881,-5.7881,-5.7881,-5.7881,-5.7881,-5.7881,-5.7881,-5.7881,-5.7881,-5.7881,-5.7881,-5.7881,-5.7735,-5.7698,-5.7698,-5.7845,-5.7735,-5.7476,-5.7402,-5.7289,-5.7139,-5.6949,-5.7205,-5.767,-5.7825,-5.7863,-5.7902,-5.8055,-5.7725,-5.7289,-5.7289,-5.7289,-5.7289,-5.7289,-5.7696,-5.8203,-5.8437,0.0,0.0,0.0,0.0,0.0,-6.1709,-6.1547,-6.1383,-6.1383,-6.1252,-6.1318,-6.2089,-6.2387,-6.2984,-6.4432,-6.5094,-6.5425,-6.5425,-6.5425,-6.5425,-6.5425,-6.5425,-6.5425,-6.5425,-6.5425,-6.5425,-6.5425,-6.5425,-6.5425,-6.5425,-6.5425,-6.5425,-6.5425,-6.5425,-6.5425,-6.5425,-6.5624,-6.5724,-6.5724,-6.5922,-6.6022,-6.6022,-6.5823,-6.5724,-6.5724,-6.5492,-6.5425,-6.5425,-6.5425,-6.5425,-6.5425,-6.5425,-6.5425,-6.5425,-6.5425,-6.5425,-6.5425,-5.7881,-5.7881,-5.7881,-5.7881,-5.7881,-5.7881,-5.7881,-5.7881,-5.7881,0.0,0.0,0.0,-5.7881,-5.7881,-5.7881,-5.7881,-5.7881,-5.7881,-5.7881,-5.7881,-5.7881,-5.7881,-5.7881,-5.7881,-5.7881,-5.7881,-5.7881,-5.7881,-5.7881,-5.7881,-5.7881,-5.7881,-5.7845,-5.7772,-5.7662,-5.7514,-5.7364,-5.7551,-5.7514,-5.7289,-5.7214,-5.7101,-5.702,-5.7122,-5.7409,-5.7879,-5.8295,-5.8435,-5.8435,-5.8552,-5.8325,-5.7958,-5.7958,-5.7958,-5.7958,-5.7958,-5.8336,-5.8775,-5.9115,-5.9816,-6.0552,-6.0852,0.0,0.0,-6.1458,-6.1375,-6.1293,-6.1293,-6.1169,-6.1218,-6.1649,-6.198,-6.2487,-6.3348,-6.4067,-6.473,-6.5326,-6.5425,-6.5425,-6.5425,-6.5425,-6.5425,-6.5425,-6.5425,-6.5425,-6.5425,-6.5425,-6.5425,-6.5425,-6.5425,-6.5425,-6.5425,-6.5425,-6.5425,-6.5425,-6.5425,-6.5425,-6.5425,-6.5425,-6.5425,-6.5425,-6.5425,-6.5425,-6.5425,-6.5425,-6.5425,-6.5425,-6.5425,-6.5425,-6.5425,-6.5425,-6.5425,-6.5425,-6.5425,-6.5425,-6.5425,0.0,-5.7881,-5.7881,-5.7881,-5.7881,-5.7881,-5.7881,-5.7881,-5.7881,0.0,-5.7881,-5.7881,-5.7881,-5.7881,-5.7881,-5.7881,-5.7881,-5.7881,-5.7881,-5.7881,-5.7881,-5.7881,-5.7881,-5.7881,-5.7881,-5.7881,-5.7881,-5.7881,-5.7881,-5.7881,-5.7881,-5.7881,-5.7772,-5.7588,-5.7551,-5.7327,-5.7025,-5.7176,-5.7285,-5.7348,-5.7196,-5.712,-5.7148,-5.7719,-5.7972,-5.8138,-5.88,-5.9032,-5.8999,-5.8933,-5.8899,-5.8899,-5.8899,-5.8899,-5.8899,-5.8899,-5.9086,-5.9445,-6.0077,-6.031,-6.0577,-6.1209,-6.121,0.0,-6.1119,-6.1119,-6.1119,-6.1119,-6.1119,-6.1119,-6.1119,-6.1616,-6.2122,-6.2188,-6.2752,-6.367,-6.5094,-6.5293,-6.5326,-6.5392,-6.5425,-6.5425,-6.5425,-6.5425,-6.5425,-6.5425,-6.5425,-6.5425,-6.5425,-6.5425,-6.5425,-6.5425,-6.5425,-6.5425,-6.5425,-6.5425,-6.5425,-6.5425,-6.5425,-6.5425,-6.5425,-6.5425,-6.5425,-6.5425,-6.5425,-6.5425,-6.5425,-6.5425,-6.5425,-6.5425,-6.5425,-6.5425,-6.5425,-6.5425,-6.5425,-6.5425,-5.8017,-5.7881,-5.7881,-5.7881,-5.7881,-5.7881,-5.7881,-5.7881,-5.7881,-5.7881,-5.7881,-5.7881,-5.7881,-5.7881,-5.7881,-5.7881,-5.7881,-5.7881,-5.7881,-5.7881,-5.7881,-5.7881,-5.7881,-5.7881,-5.7881,-5.7881,-5.7881,-5.7881,-5.7881,-5.7881,-5.7881,-5.7735,-5.7625,-5.7588,-5.7252,-5.7063,-5.6987,-5.6872,-5.7128,-5.7731,-5.7847,-5.7809,-5.7719,-5.8442,-5.9065,-5.9595,-5.9728,-5.9794,-5.9694,-5.9098,-5.8899,-5.8899,-5.8899,-5.8899,-5.8899,-5.8899,-5.9371,-5.9908,-6.0041,-6.0464,-6.0962,-6.1094,-6.1161,0.0,-6.1119,-6.1119,-6.1119,-6.1119,-6.1119,-6.1119,-6.1119,-6.1218,-6.1516,-6.2122,-6.2321,-6.2951,-6.4365,-6.4597,-6.4796,-6.5359,-6.5425,-6.5425,-6.5425,-6.5425,-6.5425,-6.5425,-6.5425,-6.5425,-6.5425,-6.5425,-6.5425,-6.5425,-6.5425,-6.5425,-6.5425,-6.5425,-6.5425,-6.5425,-6.5425,-6.5425,-6.5425,-6.5425,-6.5425,-6.5425,-6.5425,-6.5425,-6.5425,-6.5425,-6.5425,-6.5425,-6.5425,-6.5425,-6.5425,-6.5425,-6.5425,-6.5425,-5.8524,-5.8152,-5.7881,-5.7881,-5.7881,-5.7881,-5.7881,-5.7881,-5.7881,-5.7881,-5.7881,-5.7881,-5.7881,-5.7881,-5.7881,-5.7881,-5.7881,-5.7881,-5.7881,-5.7881,-5.7881,-5.7881,-5.7881,-5.7881,-5.7881,-5.7881,-5.7881,-5.7881,-5.7881,-5.7845,-5.7735,-5.7662,-5.7476,-5.7289,-5.7101,-5.6949,-5.6867,-5.7116,-5.7442,-5.7806,-5.7924,-5.8123,-5.8436,-5.9164,-5.9694,-6.0059,-6.0423,-6.0556,-6.049,-6.0125,-5.9993,-5.9993,-5.9993,-5.9993,-5.9993,-5.9993,-6.0258,-6.0556,-6.0556,-6.0821,-6.1119,-6.1119,-6.1119,0.0,0.0,-6.1119,-6.1119,-6.1119,-6.1119,-6.1119,-6.1119,-6.1119,-6.1218,-6.1583,-6.1649,-6.2013,-6.3183,-6.3647,-6.41,-6.4829,-6.4895,-6.5028,-6.5392,-6.5425,-6.5425,-6.5425,-6.5425,-6.5425,-6.5425,-6.5425,-6.5425,-6.5425,-6.5425,-6.5425,-6.5425,-6.5425,-6.5425,-6.5425,-6.5425,-6.5425,-6.5425,-6.5425,-6.5425,-6.5425,-6.5425,-6.5425,-6.5425,-6.5425,-6.5425,-6.5425,-6.5425,-6.5425,-6.5425,-6.5425,-6.5425,-6.5425,-5.9066,-5.8524,-5.8051,-5.7915,-5.7881,-5.7881,-5.7881,-5.7881,-5.7881,-5.7881,-5.7881,-5.7881,-5.7881,-5.7881,-5.7881,-5.7881,-5.7881,-5.7881,-5.7881,-5.7881,-5.7881,-5.7881,-5.7881,-5.7881,-5.7881,-5.7881,-5.7881,-5.7881,-5.7845,-5.7772,-5.7588,-5.7514,-5.7327,-5.6987,-5.6949,-5.6834,-5.6746,-5.7475,-5.7873,-5.8005,-5.8171,-5.8568,-5.9198,-5.9926,-6.0225,-6.0291,-6.0887,-6.1119,-6.1119,-6.1119,-6.1119,-6.1119,-6.1119,-6.1119,-6.1119,-6.1119,-6.1119,-6.1119,-6.1119,-6.1119,-6.1119,-6.1119,-6.1119,-6.1077,0.0,0.0,0.0,-6.0961,-6.1002,-6.1002,-6.1002,-6.1077,-6.1119,-6.1119,-6.1119,-6.1318,-6.1881,-6.2477,-6.3173,-6.4067,-6.4299,-6.4597,-6.516,-6.5326,-6.5425,-6.5425,-6.5425,-6.5425,-6.5425,-6.5425,-6.5425,-6.5425,-6.5425,-6.5425,-6.5425,-6.5381,-6.5336,-6.5336,-6.5291,-6.5291,-6.5291,-6.5291,-6.5291,-6.5291,-6.5336,-6.5336,-6.5336,-6.5381,-6.5425,-6.5425,-6.5425,-6.5425,-6.5425,-6.5425,-6.5425,-6.5425,-5.9268,-5.893,-5.8693,-5.8017,-5.7881,-5.7881,-5.7881,-5.7881,-5.7881,-5.7881,-5.7881,-5.7881,-5.7881,-5.7881,-5.7881,-5.7881,-5.7881,-5.7881,-5.7881,-5.7881,-5.7881,-5.7881,-5.7881,-5.7881,-5.7881,-5.7881,-5.7881,-5.7881,-5.7735,-5.7625,-5.7588,-5.7252,-5.7025,-5.6987,-5.6796,-5.6719,-5.6746,-5.7475,-5.8171,-5.8833,-5.9496,-5.9794,-5.996,-6.0688,-6.0986,-6.0986,-6.1086,-6.1119,-6.1119,-6.1119,-6.1119,-6.1119,-6.1119,-6.1119,-6.1119,-6.1119,-6.1119,-6.1119,-6.1119,-6.1119,-6.1119,-6.1119,-6.1119,-6.1044,-6.0802,0.0,-6.0675,-6.0538,0.0,-6.076,-6.076,0.0,0.0,-6.1119,-6.1119,-6.1152,-6.1218,-6.1318,-6.1881,-6.3282,-6.3968,-6.4399,-6.4498,-6.5061,-6.5425,-6.5425,-6.5425,-6.5425,-6.5425,-6.5425,-6.5425,-6.5425,-6.5425,-6.5425,-6.5425,-6.5234,-6.5144,-6.5144,-6.4885,-6.4793,-6.4793,-6.4793,-6.4793,-6.4793,-6.5054,-6.5144,-6.5144,-6.5336,-6.5425,-6.5425,-6.5425,-6.5425,-6.5425,-6.5425,-6.5425,-6.5425,-6.0554,-5.9641,-5.893,-5.8592,-5.8186,-5.7881,-5.7881,-5.7881,-5.7881,-5.7881,-5.7881,-5.7881,-5.7881,-5.7881,-5.7881,-5.7881,-5.7881,-5.7881,-5.7881,-5.7881,-5.7881,-5.7881,-5.7881,-5.7881,-5.7881,-5.7881,-5.7845,-5.7735,-5.7625,-5.7476,-5.7252,-5.7063,-5.6949,-5.6834,-5.6719,-5.6912,-5.7376,-5.8138,-5.8866,-5.9595,-6.0357,-6.0655,-6.0688,-6.0986,-6.1119,-6.1119,-6.1119,-6.1119,-6.1119,-6.1119,-6.1119,-6.1119,-6.1119,-6.1119,-6.1119,-6.1119,-6.1119,-6.1119,-6.1119,-6.1119,-6.1119,-6.1119,-6.1119,-6.1002,-6.076,-6.0717,-6.0633,-6.042,0.0,0.0,0.0,0.0,0.0,0.0,-6.0793,-6.0877,-6.0877,-6.1002,-6.1483,-6.2553,-6.2951,-6.3481,-6.4299,-6.4995,-6.5425,-6.5425,-6.5425,-6.5425,-6.5425,-6.5425,-6.5425,-6.5425,-6.5425,-6.5336,-6.5234,-6.5144,-6.4963,-6.461,-6.4347,-6.4161,-6.402,-6.402,-6.402,-6.402,-6.4472,-6.461,-6.4656,-6.4885,-6.5021,-6.5021,-6.5156,-6.5291,-6.5425,-6.5425,-6.5425,-6.5425,-6.1434,-6.0216,-5.9268,-5.9066,-5.8389,-5.7881,-5.7881,-5.7881,-5.7881,-5.7881,-5.7881,-5.7881,-5.7881,-5.7881,-5.7881,-5.7881,-5.7881,-5.7881,-5.7881,-5.7881,-5.7881,-5.7881,-5.7881,-5.7881,-5.7881,-5.7881,-5.7808,-5.7588,-5.7551,-5.7327,-5.6987,-5.6949,-5.6834,-5.6713,-5.6912,-5.7276,-5.7839,-5.88,-5.9496,-6.0059,-6.0821,-6.1119,-6.1119,-6.1119,-6.1119,-6.1119,-6.1119,-6.1119,-6.1119,-6.1119,-6.1218,-6.1384,-6.1384,-6.155,-6.1715,-6.1715,-6.1715,-6.1649,-6.145,-6.1384,-6.1384,-6.1384,-6.121,-6.0985,-6.0939,-6.0637,-6.0378,-6.0206,-6.0335,0.0,0.0,0.0,-6.0548,-6.042,0.0,-6.0633,-6.0633,-6.0793,-6.1159,-6.1815,-6.2089,-6.2785,-6.4233,-6.4785,-6.5093,-6.5336,-6.5246,-6.5246,-6.5291,-6.5336,-6.5336,-6.5425,-6.5336,-6.5279,-6.5099,-6.4826,-6.4426,-6.3973,-6.3563,-6.3228,-6.2939,-6.2939,-6.2987,-6.3116,-6.3643,-6.3926,-6.402,-6.4347,-6.4485,-6.4485,-6.4748,-6.4976,-6.5123,-6.5336,-6.5425,-6.5425,-6.1434,-6.0622,-5.9844,-5.9133,-5.8389,-5.7881,-5.7881,-5.7881,-5.7881,-5.7881,-5.7881,-5.7881,-5.7881,-5.7881,-5.7881,-5.7881,-5.7881,-5.7881,-5.7881,-5.7881,-5.7881,-5.7881,-5.7881,-5.7881,-5.7881,-5.7881,-5.7808,-5.7588,-5.7402,-5.7214,-5.6987,-5.6796,-5.6719,-5.6713,-5.7442,-5.7773,-5.7906,-5.9363,-5.9993,-6.0059,-6.0821,-6.1119,-6.1119,-6.1119,-6.1119,-6.1119,-6.1119,-6.1119,-6.1119,-6.1119,-6.155,-6.2188,-6.2188,-6.2652,-6.3249,-6.3249,-6.3249,-6.3083,-6.2387,-6.2188,-6.2188,-6.2188,-6.1414,-6.0873,-6.1382,-6.0554,-5.9716,-5.9716,-5.9716,-5.9804,-6.0066,-6.0249,-6.0378,-6.0378,-6.0378,0.0,0.0,-6.042,-6.0623,-6.1077,-6.1748,-6.2785,-6.4233,-6.4178,-6.4341,-6.5066,-6.4839,-6.4839,-6.5099,-6.5099,-6.5189,-6.5381,-6.5234,-6.5099,-6.5099,-6.4067,-6.342,-6.31,-6.2432,-6.1885,-6.157,-6.157,-6.1753,-6.2066,-6.2548,-6.2939,-6.326,-6.3705,-6.3941,-6.3941,-6.4207,-6.4333,-6.4393,-6.5156,-6.5425,-6.5425,-6.1434,-6.0655,-5.9877,-5.9133,-5.8389,-5.7881,-5.7881,-5.7881,-5.7881,-5.7881,-5.7881,-5.7881,-5.7881,-5.7881,-5.7881,-5.7881,-5.7881,-5.7881,-5.7881,-5.7881,-5.7881,-5.7881,-5.7881,-5.7881,-5.7881,-5.7881,-5.7735,-5.7402,-5.7327,-5.7139,-5.6796,-5.6719,-5.6945,-5.7442,-5.7674,-5.8336,-5.9297,-5.9794,-6.0291,-6.0755,-6.102,-6.1119,-6.1119,-6.1119,-6.1119,-6.1119,-6.1119,-6.1417,-6.1815,-6.1815,-6.2354,-6.2951,-6.2951,-6.3116,-6.3315,-6.3315,-6.3186,-6.299,-6.2725,-6.2529,-6.2442,-6.2649,-6.2245,-6.1928,-6.197,-6.1361,-6.0792,-6.0656,-6.0257,-5.9903,-5.9994,-5.9697,-5.9419,-5.9241,-5.9464,-5.9684,0.0,-5.9914,-6.0173,-6.0378,-6.1291,-6.2131,-6.2626,-6.3496,-6.4111,-6.4374,-6.4394,-6.4564,-6.4793,-6.4656,-6.4702,-6.493,-6.4885,-6.4656,-6.4412,-6.3643,-6.2939,-6.2383,-6.1582,-6.1021,-6.0763,-6.0763,-6.0815,-6.1,-6.1481,-6.1753,-6.1935,-6.2432,-6.2629,-6.2727,-6.3309,-6.3548,-6.369,-6.4793,-6.5066,-6.493,-6.1028,-6.025,-5.9573,-5.9099,-5.8389,-5.7881,-5.7881,-5.7881,-5.7881,-5.7881,-5.8118,-5.8287,-5.8287,-5.8524,-5.866,-5.866,-5.866,-5.866,-5.866,-5.866,-5.866,-5.866,-5.866,-5.8558,-5.8287,-5.8214,-5.7894,-5.7289,-5.7214,-5.7025,-5.668,-5.6945,-5.7342,-5.7806,-5.8336,-5.9098,-6.0026,-6.0291,-6.0688,-6.1119,-6.1119,-6.1119,-6.1119,-6.1119,-6.1119,-6.1152,-6.1384,-6.1781,-6.2255,-6.252,-6.2997,-6.3539,-6.3539,-6.3661,-6.3815,-6.3815,-6.3638,-6.335,-6.3088,-6.2811,-6.2676,-6.2933,-6.2558,-6.2158,-6.2282,-6.1556,-6.0818,-6.0677,-6.0186,-5.9822,-5.9916,-5.9659,-5.9324,-5.8853,-5.9143,-5.9319,0.0,-5.9298,-5.9476,-5.9355,-6.0424,-6.1293,-6.1675,-6.2628,-6.3314,-6.3576,-6.3678,-6.3959,-6.4286,-6.402,-6.4114,-6.4531,-6.4426,-6.4146,-6.3817,-6.2987,-6.2202,-6.1563,-6.0742,-6.0219,-5.9955,-5.9955,-6.0008,-6.0114,-6.0555,-6.0815,-6.0918,-6.141,-6.1563,-6.1664,-6.2234,-6.2531,-6.2825,-6.4286,-6.4702,-6.4531,-6.025,-5.9471,-5.8964,-5.8964,-5.8355,-5.7881,-5.7881,-5.7915,-5.7949,-5.7949,-5.8592,-5.9066,-5.9066,-5.9674,-6.0114,-6.0114,-6.0114,-6.0114,-6.0114,-6.0114,-6.0114,-6.0114,-6.0114,-5.9776,-5.9062,-5.8841,-5.8316,-5.739,-5.7201,-5.701,-5.6812,-5.7508,-5.7873,-5.7972,-5.9363,-6.0026,-6.0092,-6.0821,-6.1119,-6.1119,-6.1119,-6.1119,-6.1119,-6.1119,-6.1119,-6.1251,-6.1956,-6.2255,-6.242,-6.315,-6.3671,-6.4078,-6.4078,-6.4326,-6.4702,-6.4702,-6.4472,-6.4077,-6.3362,-6.2983,-6.2844,-6.3107,-6.2312,-6.1652,-6.2327,-6.1186,-5.9941,-5.9878,-5.9683,-5.9586,-5.975,-6.004,-5.9964,-5.927,-5.9379,-5.9312,-5.8691,-5.8596,-5.8473,-5.8211,-5.9177,-6.0294,-6.1306,-6.1625,-6.2067,-6.2779,-6.278,-6.3002,-6.3484,-6.3293,-6.3452,-6.4161,-6.377,-6.3484,-6.342,-6.2184,-6.1277,-6.0742,-5.9902,-5.9369,-5.9099,-5.9099,-5.9261,-5.9476,-5.9766,-6.0031,-6.0377,-6.0638,-6.0742,-6.0742,-6.1021,-6.1328,-6.1784,-6.3548,-6.4207,-6.4161,-6.025,-5.9066,-5.8186,-5.8186,-5.8017,-5.7881,-5.7881,-5.8355,-5.8727,-5.8727,-5.937,-5.981,-5.981,-5.9979,-6.0114,-6.0114,-6.0114,-6.0114,-6.0114,-6.0114,-6.0114,-6.0114,-6.0114,-5.9937,-5.9578,-5.954,-5.9247,-5.8697,-5.8691,-5.8534,-5.8336,-5.8535,-5.8899,-5.9463,-5.9827,-6.0291,-6.0854,-6.102,-6.1119,-6.1119,-6.1119,-6.1119,-6.1119,-6.1119,-6.145,-6.1914,-6.2155,-6.2917,-6.3835,-6.4034,-6.4465,-6.4836,-6.4836,-6.4617,-6.4426,-6.4426,-6.3973,-6.342,-6.3227,-6.2828,-6.2538,-6.286,-6.2508,-6.2121,-6.2084,-6.1446,-6.08,-6.0597,-5.989,-5.945,-5.9672,-5.9221,-5.8751,-5.8566,-5.8497,-5.8575,-5.8798,-5.8373,-5.8058,-5.8011,-5.8243,-5.8956,-6.0251,-6.0867,-6.1527,-6.2233,-6.2248,-6.2333,-6.2678,-6.2284,-6.2284,-6.2873,-6.258,-6.2414,-6.2383,-6.1461,-6.0845,-6.0481,-5.9636,-5.9153,-5.9099,-5.9099,-5.9153,-5.9207,-5.9261,-5.9369,-5.9476,-5.9743,-5.9849,-5.9902,-6.0429,-6.0866,-6.143,-6.2531,-6.3019,-6.3116,-6.0182,-5.9167,-5.8389,-5.8389,-5.866,-5.8761,-5.8423,-5.8998,-5.9471,-5.9471,-6.0148,-6.0622,-6.0622,-6.0892,-6.1095,-6.1095,-6.1095,-6.1095,-6.1095,-6.1095,-6.1095,-6.1095,-6.1095,-6.0921,-6.0464,-6.0386,-6.0024,-5.9337,-5.9258,-5.9099,-5.8899,-5.9231,-5.9595,-6.0026,-6.0357,-6.0721,-6.1119,-6.1119,-6.1119,-6.1119,-6.1119,-6.1119,0.0,-6.145,-6.2013,-6.2719,-6.3083,-6.3713,-6.4432,-6.473,-6.4871,-6.4918,-6.4918,-6.4472,-6.4006,-6.4006,-6.3452,-6.2825,-6.2678,-6.2284,-6.1885,-6.2035,-6.1885,-6.1633,-6.145,-6.099,-6.0555,-6.0272,-5.9757,-5.9431,-5.9557,-5.9283,-5.8948,-5.8746,-5.8438,-5.8276,-5.8572,-5.8279,-5.8062,-5.7917,-5.808,-5.8698,-5.982,-6.0281,-6.0868,-6.1663,-6.1806,-6.1966,-6.2184,-6.1714,-6.1613,-6.2035,-6.1714,-6.1461,-6.1461,-6.0763,-6.0241,-6.0008,-5.9369,-5.9099,-5.9099,-5.9099,-5.9099,-5.9099,-5.9099,-5.9099,-5.9099,-5.9261,-5.9315,-5.9369,-5.9849,-6.0219,-6.0555,-6.1124,-6.1683,-6.2035,-6.0114,-5.9573,-5.9167,-5.9167,-5.9776,-6.0047,-5.9404,-5.9844,-6.025,-6.025,-6.1028,-6.1603,-6.1603,-6.2245,-6.2685,-6.2685,-6.2685,-6.2651,-6.255,-6.2516,-6.2482,-6.2381,-6.2381,-6.2076,-6.1429,-6.1239,-6.0668,-5.9761,-5.9564,-5.9405,-5.9238,-5.986,-6.0158,-6.0191,-6.0821,-6.1119,-6.1119,-6.1119,-6.1119,-6.1119,-6.1119,-6.1119,-6.1185,-6.1914,-6.2685,-6.3415,-6.41,-6.4432,-6.4597,-6.5194,-6.5111,-6.4748,-6.4748,-6.424,-6.3628,-6.3628,-6.3051,-6.2333,-6.2066,-6.1563,-6.1155,-6.1072,-6.0897,-6.069,-6.0638,-6.0241,-5.9766,-5.9529,-5.9476,-5.9476,-5.9476,-5.972,-5.9751,-5.9405,-5.8786,-5.8329,-5.838,-5.8319,-5.8156,-5.7901,-5.8329,0.0,-5.9716,-5.9874,-6.0352,-6.1288,-6.144,-6.1582,-6.1866,-6.1359,-6.1155,-6.143,-6.0897,-6.0638,-6.069,-6.0136,-5.9713,-5.9529,-5.9207,-5.9099,-5.9099,-5.9099,-5.9099,-5.9099,-5.9099,-5.9099,-5.9099,-5.9099,-5.9099,-5.9099,-5.9369,-5.9476,-5.9476,-5.9773,-6.0324,-6.0918,-6.0216,-6.0013,-5.9911,-5.9911,-6.0554,-6.1061,-6.0926,-6.1028,-6.1095,-6.1095,-6.2279,-6.3125,-6.3125,-6.3768,-6.4208,-6.4208,-6.4208,-6.3971,-6.3362,-6.3328,-6.3057,-6.2415,-6.2381,-6.2234,-6.1908,-6.1834,-6.1642,-6.1307,-6.1139,-6.1017,-6.0976,-6.0904,-6.092,-6.092,-6.1053,-6.1119,-6.1119,-6.1119,-6.1119,-6.1119,-6.1119,-6.1119,-6.1185,-6.1914,-6.2685,-6.3415,-6.4067,-6.473,-6.526,-6.5359,-6.5246,-6.5008,-6.5008,-6.4518,-6.3912,-6.3912,-6.3212,-6.2333,-6.2066,-6.1461,-6.0794,-6.0586,-6.0355,-6.0092,-5.9796,-5.9636,-5.9529,-5.9207,-5.9153,-5.9153,-5.9153,-5.9207,-5.9285,-5.9432,-5.8882,-5.8511,-5.8772,-5.8316,-5.7952,-5.7901,-5.8207,-5.8837,-5.9716,-5.9989,-6.0559,-6.1464,-6.1164,-6.1052,-6.1308,-6.0617,-6.0355,-6.0586,-6.0061,-5.9849,-6.0144,-5.9743,-5.9583,-5.9529,-5.9207,-5.9099,-5.9099,-5.9099,-5.9099,-5.9099,-5.9099,-5.9099,-5.9099,-5.9099,-5.9099,-5.9099,-5.9153,-5.9153,-5.9153,-5.9207,-5.9369,-5.9529,-6.025,-6.0452,-6.0723,-6.0723,-6.1366,-6.2009,-6.2381,-6.2448,-6.2448,-6.2448,-6.3057,-6.3666,-6.4038,-6.4377,-6.4613,-6.4613,-6.4613,-6.4444,-6.4106,-6.4072,-6.3734,-6.299,-6.2956,-6.2747,-6.2229,-6.2076,-6.1877,-6.1709,-6.1506,-6.1375,-6.1252,-6.1161,-6.1119,-6.1119,-6.1119,-6.1119,-6.1119,-6.1119,-6.1119,-6.1119,-6.1119,-6.1318,-6.1748,-6.252,-6.3249,-6.3935,-6.463,-6.5127,-6.5425,-6.5425,-6.5279,-6.5099,-6.5099,-6.4689,-6.4146,-6.4006,-6.3341,-6.2481,-6.1966,-6.1206,-6.0481,-6.0061,-5.9743,-5.9506,-5.9315,-5.9315,-5.9261,-5.9099,-5.9099,-5.9099,-5.9099,-5.9099,-5.9153,-5.9261,-5.9045,-5.8834,-5.8994,-5.8723,-5.8512,-5.8512,-5.8775,-5.924,-5.9836,-6.0177,-6.0712,-6.1734,-6.1461,-6.1206,-6.1206,-6.0564,-6.0144,-5.9955,-5.9529,-5.9369,-5.956,-5.9369,-5.9315,-5.9315,-5.9153,-5.9099,-5.9099,-5.9099,-5.9099,-5.9099,-5.9099,-5.9099,-5.9099,-5.9099,-5.9099,-5.9099,-5.9099,-5.9099,-5.9099,-5.9099,-5.9099,-5.9153,-6.0723,-6.1095,-6.1569,-6.1738,-6.2245,-6.2888,-6.3632,-6.3734,-6.3734,-6.3734,-6.3869,-6.4208,-6.4783,-6.4986,-6.5087,-6.5087,-6.5087,-6.4986,-6.485,-6.4816,-6.4512,-6.3768,-6.3599,-6.3226,-6.2651,-6.2217,-6.1917,-6.179,-6.1506,-6.1334,-6.1169,-6.1119,-6.1119,-6.1119,-6.1119,-6.1119,-6.1119,-6.1119,-6.1119,-6.1119,-6.1119,-6.155,-6.2288,-6.305,-6.3779,-6.4465,-6.516,-6.5425,-6.5425,-6.5425,-6.5279,-6.5099,-6.5099,-6.4702,-6.4286,-6.4053,-6.3437,-6.2612,-6.1834,-6.1021,-6.0272,-5.9636,-5.9315,-5.9099,-5.9099,-5.9099,-5.9099,-5.9099,-5.9099,-5.9099,-5.9099,-5.9099,-5.9099,-5.9099,-5.9099,-5.9099,-5.9099,-5.9099,-5.9099,-5.9099,-5.9315,-5.9636,-5.9933,-6.0219,-6.0794,-6.1664,-6.1512,-6.1257,-6.1052,-6.0534,-6.0008,-5.9529,-5.9261,-5.9099,-5.9099,-5.9099,-5.9099,-5.9099,-5.9099,-5.9099,-5.9099,-5.9099,-5.9099,-5.9099,-5.9099,-5.9099,-5.9099,-5.9099,-5.9099,-5.9099,-5.9099,-5.9099,-5.9099,-5.9099,-5.9099,-5.9099,-6.2178,-6.2245,-6.2516,-6.3193,-6.3362,-6.3666,-6.4377,-6.4512,-6.4512,-6.4512,-6.5087,-6.5493,-6.5561,-6.6203,-6.6609,-6.6609,-6.6609,-6.6305,-6.5628,-6.5595,-6.5256,-6.4546,-6.3869,-6.3497,-6.3429,-6.2487,-6.1997,-6.1957,-6.1588,-6.1383,-6.1342,-6.1169,-6.1119,-6.1119,-6.1119,-6.1119,-6.1119,-6.1119,-6.1119,-6.1119,-6.1119,-6.155,-6.2288,-6.305,-6.3779,-6.4465,-6.516,-6.5425,-6.5425,-6.5425,-6.5279,-6.5099,-6.5099,-6.4702,-6.4286,-6.4053,-6.3437,-6.2612,-6.1834,-6.1021,-6.0272,-5.9636,-5.9315,-5.9099,-5.9099,-5.9099,-5.9099,-5.9099,-5.9099,-5.9099,-5.9099,-5.9099,-5.9099,-5.9099,-5.9099,-5.9099,-5.9099,-5.9099,-5.9099,-5.9099,-5.9315,-5.9606,-5.9842,-6.0189,-6.0534,-6.0897,-6.0638,-6.0481,-6.0481,-5.9902,-5.9583,-5.9529,-5.9261,-5.9099,-5.9099,-5.9099,-5.9099,-5.9099,-5.9099,-5.9099,-5.9099,-5.9099,-5.9099,-5.9099,-5.9099,-5.9099,-5.9099,-5.9099,-5.9099,-5.9099,-5.9099,-5.9099,-5.9099,-5.9099,-5.9099,-5.9099,-6.3632,-6.3362,-6.3294,-6.4038,-6.4174,-6.441,-6.5155,-6.5256,-6.5425,-6.5865,-6.5797,-6.5865,-6.6305,-6.6643,-6.6812,-6.6812,-6.6812,-6.6677,-6.6373,-6.6373,-6.6034,-6.529,-6.4986,-6.4613,-6.4174,-6.3074,-6.2468,-6.2468,-6.1658,-6.121,-6.121,-6.1127,-6.1119,-6.1119,-6.1119,-6.1119,-6.1119,-6.1119,-6.1119,-6.1152,-6.1583,-6.2179,-6.2951,-6.3713,-6.4365,-6.5028,-6.5326,-6.5425,-6.5381,-6.5246,-6.5144,-6.5099,-6.5099,-6.4702,-6.4207,-6.3832,-6.3164,-6.2383,-6.1582,-6.0763,-5.9978,-5.9583,-5.9315,-5.9099,-5.9099,-5.9099,-5.9099,-5.9099,-5.9099,-5.9099,-5.9099,-5.9099,-5.9099,-5.9099,-5.9099,-5.9099,-5.9099,-5.9099,-5.9099,-5.9099,-5.9207,-5.9369,-5.9606,-5.9796,-5.9902,-6.0008,-6.0272,-6.0324,-6.0136,-5.9743,-5.9422,-5.9261,-5.9153,-5.9099,-5.9099,-5.9099,-5.9099,-5.9099,-5.9099,-5.9099,-5.9099,-5.9099,-5.9099,-5.9099,-5.9099,-5.9099,-5.9099,-5.9099,-5.9099,-5.9099,-5.9099,-5.9099,-5.9099,-5.9099,-5.9099,-5.9099,-6.4512,-6.4174,-6.4072,-6.4783,-6.4918,-6.5155,-6.5899,-6.6,-6.6203,-6.6745,-6.6339,-6.6203,-6.6745,-6.6812,-6.6812,-6.6812,-6.6812,-6.6812,-6.6812,-6.6812,-6.6576,-6.6034,-6.5797,-6.5459,-6.4918,-6.3807,-6.3097,-6.2781,-6.1941,-6.1359,-6.1119,-6.1119,-6.1119,-6.1119,-6.1119,-6.1119,-6.1119,-6.1119,-6.1218,-6.145,-6.198,-6.2785,-6.3713,-6.4167,-6.4796,-6.5425,-6.5425,-6.5425,-6.5381,-6.5189,-6.5008,-6.4826,-6.4656,-6.4286,-6.3738,-6.3084,-6.245,-6.1784,-6.099,-6.0316,-5.9713,-5.9476,-5.9261,-5.9099,-5.9099,-5.9099,-5.9099,-5.9099,-5.9099,-5.9099,-5.9099,-5.9099,-5.9099,-5.9099,-5.9099,-5.9099,-5.9099,-5.9099,-5.9099,-5.9099,-5.9099,-5.9153,-5.9369,-5.9369,-5.9369,-5.9369,-5.9796,-5.9872,-5.9713,-5.9529,-5.9315,-5.9099,-5.9099,-5.9099,-5.9099,-5.9099,-5.9099,-5.9099,-5.9099,-5.9099,-5.9099,-5.9099,-5.9099,-5.9099,-5.9099,-5.9099,-5.9099,-5.9099,-5.9099,-5.9099,-5.9099,-5.9099,-5.9099,-5.9099,-5.9099,-5.9099,-6.4613,-6.458,-6.4816,-6.5561,-6.5662,-6.5933,-6.6677,-6.6812,-6.6812,-6.6812,-6.6812,-6.6812,-6.6812,-6.6812,-6.6812,-6.6812,-6.6812,-6.6812,-6.6812,-6.6812,-6.6812,-6.6812,-6.6102,-6.5696,-6.5662,-6.4746,-6.3799,-6.2781,-6.2607,-6.1991,-6.1119,-6.1119,-6.1119,-6.1119,-6.1119,-6.1119,-6.1119,-6.1119,-6.1516,-6.2188,-6.2221,-6.3083,-6.4365,-6.4332,-6.4763,-6.5425,-6.5425,-6.5425,-6.5381,-6.5189,-6.4748,-6.4207,-6.369,-6.3212,-6.2661,-6.1834,-6.1257,-6.069,-6.0053,-5.9713,-5.9422,-5.9153,-5.9099,-5.9099,-5.9099,-5.9099,-5.9099,-5.9099,-5.9099,-5.9099,-5.9099,-5.9099,-5.9099,-5.9099,-5.9099,-5.9099,-5.9099,-5.9099,-5.9099,-5.9099,-5.9099,-5.9099,-5.9099,-5.9099,-5.9099,-5.9099,-5.9099,-5.9099,-5.9099,-5.9099,-5.9099,-5.9099,-5.9099,0.0,-5.9099,-5.9099,-5.9099,-5.9099,-5.9099,-5.9099,-5.9099,-5.9099,-5.9099,-5.9099,-5.9099,-5.9099,-5.9099,-5.9099,-5.9099,-5.9099,-5.9099,-5.9099,-5.9099,-5.9099,-5.9099,-5.9099,-6.6,-6.5696,-6.5561,-6.6339,-6.644,-6.6542,-6.6779,-6.6812,-6.6812,-6.6812,-6.6812,-6.6812,-6.6812,-6.6812,-6.6812,-6.6812,-6.6812,-6.6812,-6.6812,-6.6812,-6.6812,-6.6812,-6.6576,-6.644,-6.644,-6.5522,-6.4925,-6.4572,-6.3192,-6.2024,-6.1119,-6.1119,-6.1119,-6.1119,-6.1119,-6.1119,-6.1152,-6.1616,-6.2022,-6.2288,-6.3315,-6.4011,-6.4432,-6.4895,-6.5227,-6.5425,-6.5425,-6.5291,-6.521,-6.5292,-6.4941,-6.4385,-6.3798,-6.294,-6.2166,-6.1481,-6.0815,-6.0084,-5.9713,-5.9422,-5.9207,-5.9099,-5.9099,-5.9099,-5.9099,-5.9099,-5.9099,-5.9099,-5.9099,-5.9099,-5.9099,-5.9099,-5.9099,-5.9099,-5.9099,-5.9099,-5.9099,-5.9099,-5.9099,-5.9099,-5.9099,-5.9099,-5.9099,-5.9099,-5.9099,-5.9099,-5.9099,-5.9099,-5.9099,-5.9099,-5.9099,-5.9099,-5.9099,0.0,-5.9099,-5.9099,-5.9099,-5.9099,-5.9099,-5.9099,-5.9099,-5.9099,-5.9099,-5.9099,-5.9099,-5.9099,-5.9099,-5.9099,-5.9099,-5.9099,-5.9099,-5.9099,-5.9099,-5.9099,-5.9099,-5.9099,-6.6711,-6.644,-6.6271,-6.6745,-6.6812,-6.6812,-6.6812,-6.6812,-6.6812,-6.6812,-6.6812,-6.6812,-6.6812,-6.6812,-6.6812,-6.6812,-6.6812,-6.6812,-6.6812,-6.6812,-6.6812,-6.6812,-6.6812,-6.6812,-6.6812,-6.6247,-6.575,-6.5396,-6.3726,-6.2598,-6.204,-6.1956,-6.1914,-6.1914,-6.1914,-6.1914,-6.1947,-6.2411,-6.2785,-6.304,-6.4001,-6.4531,-6.4829,-6.526,-6.5425,-6.5381,-6.5291,-6.5234,-6.5095,-6.5133,-6.4739,-6.4151,-6.3631,-6.2736,-6.1898,-6.1427,-6.0845,-6.0247,-5.9844,-5.9567,-5.9428,-5.9159,-5.9099,-5.9099,-5.9099,-5.9099,-5.9099,-5.9099,-5.9099,-5.9099,-5.9099,-5.9099,-5.9099,-5.9099,-5.9099,-5.9099,-5.9099,-5.9099,-5.9099,-5.9099,-5.9099,-5.9099,-5.9099,-5.9099,-5.9099,-5.9099,-5.9099,-5.9099,-5.9099,-5.9099,-5.9099,-5.9099,-5.9099,-5.9099,-5.9099,-5.9099,-5.9099,-5.9099,-5.9099,-5.9099,-5.9099,-5.9099,-5.9099,-5.9099,-5.9099,-5.9099,-5.9099,-5.9099,-5.9099,-5.9099,-5.9099,-5.9099,-5.9099,-5.9099,-5.9099,-5.9099,-6.6812,-6.6812,-6.6812,-6.6812,-6.6812,-6.6812,-6.6812,-6.6812,-6.6812,-6.6812,-6.6812,-6.6812,-6.6812,-6.6812,-6.6812,-6.6812,-6.6812,-6.6812,-6.6812,-6.6812,-6.6812,-6.6812,-6.6812,-6.6812,-6.6812,-6.6812,-6.6314,-6.5396,-6.427,-6.3648,-6.3615,-6.3401,-6.3315,-6.3315,-6.3315,-6.3315,-6.3315,-6.3382,-6.3736,-6.4332,-6.4399,-6.4829,-6.5425,-6.5425,-6.5381,-6.5336,-6.5144,-6.5054,-6.4925,-6.4625,-6.4122,-6.3539,-6.3214,-6.2526,-6.1819,-6.1544,-6.1297,-6.0984,-6.0326,-6.0146,-5.9997,-5.9398,-5.9219,-5.9189,-5.9189,-5.9129,-5.9099,-5.9099,-5.9099,-5.9099,-5.9099,-5.9099,-5.9099,-5.9099,-5.9099,-5.9099,-5.9099,-5.9099,-5.9099,-5.9099,-5.9099,-5.9099,-5.9099,-5.9099,-5.9099,-5.9099,-5.9099,-5.9099,-5.9099,-5.9099,-5.9099,-5.9099,-5.9099,-5.9099,-5.9099,-5.9099,-5.9099,-5.9099,-5.9099,-5.9099,-5.9099,-5.9099,-5.9099,-5.9099,-5.9099,-5.9099,-5.9099,-5.9099,-5.9099,-5.9099,-5.9099,-5.9099,-5.9099,-5.9099,-5.9099,-5.9099,-6.6812,-6.6812,-6.6812,-6.6812,-6.6812,-6.6812,-6.6812,-6.6812,-6.6812,-6.6812,-6.6812,-6.6812,-6.6812,-6.6812,-6.6812,-6.6812,-6.6812,-6.6812,-6.6812,-6.6812,-6.6812,-6.6812,-6.6812,-6.6812,-6.6812,-6.6812,-6.6314,-6.5396,-6.4899,-6.4319,-6.3615,-6.3401,-6.3315,-6.3315,-6.3315,-6.3315,-6.3348,-6.3912,-6.42,-6.4365,-6.4929,-6.526,-6.5425,-6.5425,-6.5291,-6.5144,-6.5099,-6.4564,-6.3882,-6.3964,-6.3344,-6.2498,-6.2311,-6.1959,-6.1544,-6.1489,-6.1297,-6.1074,-6.0924,-6.0864,-6.0835,-6.0685,-6.0236,-5.9847,-5.9847,-5.9458,-5.9099,-5.9099,-5.9099,-5.9099,-5.9099,-5.9099,-5.9099,-5.9099,-5.9099,-5.9099,-5.9099,-5.9099,-5.9099,-5.9099,-5.9099,-5.9099,-5.9099,-5.9099,-5.9099,-5.9099,-5.9099,-5.9099,-5.9099,-5.9099,-5.9099,-5.9099,-5.9099,-5.9099,-5.9099,-5.9099,-5.9099,-5.9099,-5.9099,-5.9099,-5.9099,-5.9099,-5.9099,-5.9099,-5.9099,-5.9099,-5.9099,-5.9099,-5.9099,-5.9099,-5.9099,-5.9099,-5.9099,-5.9099,-5.9099,-5.9099,-6.6812,-6.6812,-6.6812,-6.6812,-6.6812,-6.6812,-6.6812,-6.6812,-6.6812,-6.6812,-6.6812,-6.6812,-6.6812,-6.6812,-6.6812,-6.6812,-6.6812,-6.6812,-6.6812,-6.6812,-6.6812,-6.6812,-6.6812,-6.6812,-6.6812,-6.6812,-6.6525,-6.607,-6.5697,-6.524,-6.4753,-6.4407,-6.4266,-6.4266,-6.4266,-6.4266,-6.4299,-6.4697,-6.4829,-6.4862,-6.526,-6.5425,-6.5425,-6.5425,-6.5246,-6.5054,-6.4826,-6.4114,-6.3325,-6.3273,-6.258,-6.1765,-6.1771,-6.1574,-6.1297,-6.1297,-6.1425,-6.1553,-6.1553,-6.1553,-6.1493,-6.1194,-6.0835,-6.0565,-6.0565,-6.0296,-5.9937,-5.9608,-5.9548,-5.9458,-5.9159,-5.9099,-5.9099,-5.9099,-5.9099,-5.9099,-5.9099,-5.9099,-5.9099,-5.9099,-5.9099,-5.9099,-5.9099,-5.9099,-5.9099,-5.9099,-5.9099,-5.9099,-5.9099,-5.9099,-5.9099,-5.9099,-5.9099,-5.9099,-5.9099,-5.9099,-5.9099,-5.9099,-5.9099,-5.9099,-5.9099,-5.9099,-5.9099,-5.9099,-5.9099,-5.9099,-5.9099,-5.9099,-5.9099,-5.9099,-5.9099,-5.9099,-5.9099,-5.9099,-5.9099,-5.9099,-6.6812,-6.6812,-6.6812,-6.6812,-6.6812,-6.6812,-6.6812,-6.6812,-6.6812,-6.6812,-6.6812,-6.6812,-6.6812,-6.6812,-6.6812,-6.6812,-6.6812,-6.6812,-6.6812,-6.6812,-6.6812,-6.6812,-6.6812,-6.6812,-6.6812,-6.6812,-6.677,-6.6728,-6.6311,-6.6095,-6.6052,-6.5647,-6.5425,-6.5425,-6.5425,-6.5425,-6.5425,-6.5425,-6.5381,-6.5336,-6.5336,-6.5336,-6.5291,-6.5336,-6.5201,-6.4918,-6.4426,-6.3658,-6.2856,-6.2441,-6.1782,-6.105,-6.1116,-6.0997,-6.0835,-6.0924,-6.1433,-6.1972,-6.2061,-6.2181,-6.2121,-6.1553,-6.1343,-6.1253,-6.1253,-6.1194,-6.0954,-6.0356,-6.0236,-6.0027,-5.9368,-5.9249,-5.9219,-5.9129,-5.9099,-5.9099,-5.9099,0.0,-5.9099,-5.9099,-5.9099,-5.9099,-5.9099,-5.9099,-5.9099,-5.9099,-5.9099,-5.9099,-5.9099,-5.9099,-5.9099,-5.9099,-5.9099,-5.9099,-5.9099,-5.9099,-5.9099,-5.9099,-5.9099,-5.9099,-5.9099,-5.9099,-5.9099,-5.9099,-5.9099,-5.9099,-5.9099,-5.9099,-5.9099,-5.9099,-5.9099,-5.9099,-5.9099,-5.9099,-5.9099,-5.9099,-6.6812,-6.6812,-6.6812,-6.6812,-6.6812,-6.6812,-6.6812,-6.6812,-6.6812,-6.6812,-6.6812,-6.6812,-6.6812,-6.6812,-6.6812,-6.6812,-6.6812,-6.6812,-6.6812,-6.6812,-6.6812,-6.6812,-6.6812,-6.6812,-6.6812,-6.6812,-6.6686,-6.655,-6.6259,-6.6009,-6.5824,-6.5559,-6.5425,-6.5425,-6.5425,-6.5425,-6.5425,-6.5425,-6.5291,-6.5144,-6.5144,-6.5008,-6.4839,-6.5054,-6.4872,-6.4379,-6.4067,-6.318,-6.2066,-6.133,-6.053,-5.9734,-5.9531,-5.9453,-5.9518,-6.0086,-6.0745,-6.1373,-6.1942,-6.251,-6.2899,-6.281,-6.2361,-6.1942,-6.1942,-6.1523,-6.1074,-6.0984,-6.0954,-6.0745,-6.0057,-5.9937,-5.9757,-5.9189,-5.9099,-5.9099,-5.9099,0.0,-5.9099,-5.9099,-5.9099,-5.9099,-5.9099,-5.9099,-5.9099,-5.9099,-5.9099,-5.9099,-5.9099,-5.9099,-5.9099,-5.9099,-5.9099,-5.9099,-5.9099,-5.9099,-5.9099,-5.9099,-5.9099,-5.9099,-5.9099,-5.9099,-5.9099,-5.9099,-5.9099,-5.9099,-5.9099,-5.9099,-5.9099,-5.9099,-5.9099,-5.9099,-5.9099,-5.9099,-5.9099,-5.9099,-6.8064,-6.8064,-6.8064,-6.8064,-6.7692,-6.7387,-6.7387,-6.7083,-6.6812,-6.6812,-6.6812,-6.6812,-6.6812,-6.6812,-6.6812,-6.6812,-6.6812,-6.6812,-6.6812,-6.6812,-6.6812,-6.6812,-6.6812,-6.6812,-6.6812,-6.6812,-6.6686,-6.6507,-6.6259,-6.5965,-6.578,-6.5514,-6.5425,-6.5425,-6.5425,-6.5425,-6.5425,-6.5425,-6.5291,-6.5099,-6.5099,-6.4872,-6.4518,-6.4793,-6.4472,-6.3912,-6.3643,-6.2678,-6.1481,-6.0794,-6.0008,-5.9261,-5.9153,-5.9338,-5.9697,-5.9997,-6.0835,-6.1792,-6.245,-6.2839,-6.3079,-6.3079,-6.2839,-6.263,-6.263,-6.2391,-6.2061,-6.1702,-6.1642,-6.1433,-6.0775,-6.0625,-6.0535,-6.0236,-5.9877,-5.9638,-5.9638,-5.9338,-5.9099,-5.9099,-5.9099,-5.9099,-5.9099,-5.9099,-5.9099,-5.9099,-5.9099,-5.9099,-5.9099,-5.9099,-5.9099,-5.9099,-5.9099,-5.9099,-5.9099,-5.9099,-5.9099,-5.9099,-5.9099,-5.9099,-5.9099,-5.9099,-5.9099,-5.9099,-5.9099,-5.9099,-5.9099,-5.9099,-5.9099,-5.9099,-5.9099,-5.9099,-5.9099,-5.9099,-5.9099,-5.9159,-6.9113,-6.9113,-6.9113,-6.9113,-6.8605,-6.8166,-6.8166,-6.7692,-6.7286,-6.7083,-6.7083,-6.7015,-6.6846,-6.6812,-6.6812,-6.6812,-6.6812,-6.6812,-6.6812,-6.6812,-6.6812,-6.6812,-6.6812,-6.6812,-6.6812,-6.6812,-6.6643,-6.6421,-6.6182,-6.5965,-6.5692,-6.5514,-6.5425,-6.5425,-6.5425,-6.5425,-6.5425,-6.5336,-6.5156,-6.4918,-6.4781,-6.4426,-6.3973,-6.4161,-6.3865,-6.3293,-6.2922,-6.2053,-6.1021,-6.0429,-5.969,-5.9129,-5.9279,-5.9668,-6.0116,-6.0266,-6.1164,-6.2241,-6.2899,-6.3079,-6.3079,-6.3079,-6.3079,-6.3079,-6.3079,-6.3079,-6.2929,-6.2421,-6.2331,-6.2121,-6.1463,-6.1343,-6.1283,-6.1134,0.0,-6.0326,-6.0326,-5.9877,-5.9518,-5.9338,-5.9338,-5.9279,-5.9129,-5.9099,-5.9099,-5.9099,-5.9099,-5.9099,-5.9099,-5.9099,-5.9099,-5.9099,-5.9099,-5.9099,-5.9099,-5.9099,-5.9099,-5.9099,-5.9099,-5.9189,-5.9338,-5.9338,-5.9428,-5.9578,-5.9578,-5.9578,-5.9578,-5.9578,-5.9578,-5.9578,-5.9578,-5.9578,-5.9578,-5.9578,-5.9578,-5.9638,-6.9113,-6.9113,-6.9113,-6.9113,-6.9045,-6.9011,-6.9011,-6.8977,-6.8673,-6.7929,-6.7827,-6.7557,-6.688,-6.6812,-6.6812,-6.6812,-6.6812,-6.6812,-6.6812,-6.6812,-6.6812,-6.6812,-6.6812,-6.6812,-6.6812,-6.6812,-6.6601,-6.6139,-6.6095,-6.5878,-6.5425,-6.5425,-6.5425,-6.5425,-6.5425,-6.5425,-6.5381,-6.5189,-6.4826,-6.4333,-6.3832,-6.3357,-6.2905,-6.2954,-6.2727,-6.2432,-6.1853,-6.1246,-6.069,-5.9849,-5.9369,-5.9219,-5.9817,-6.0057,-6.0206,-6.0835,-6.1553,-6.2241,-6.2899,-6.3079,-6.3079,-6.3079,-6.3079,-6.3079,-6.3079,-6.3079,-6.3079,-6.3019,-6.3019,-6.281,-6.2151,-6.2032,-6.1822,-6.1224,0.0,0.0,-6.1044,-6.0984,-6.0715,-6.0086,-6.0027,-5.9787,-5.9159,-5.9099,-5.9099,-5.9099,-5.9099,-5.9099,-5.9099,-5.9099,-5.9099,-5.9099,-5.9099,-5.9099,-5.9099,-5.9099,-5.9099,-5.9099,-5.9099,-5.9428,-6.0027,-6.0027,-6.0356,-6.0954,-6.0954,-6.0954,-6.0954,-6.0954,-6.0954,-6.0954,-6.0954,-6.0954,-6.0954,-6.0954,-6.0954,-6.0984,-7.0466,-7.0466,-7.0466,-7.0466,-7.0094,-6.9755,-6.9755,-6.9383,-6.8977,-6.8673,-6.8639,-6.8368,-6.7557,-6.7489,-6.732,-6.6846,-6.6812,-6.6812,-6.6812,-6.6812,-6.6812,-6.6812,-6.6812,-6.6812,-6.6812,-6.6812,-6.6643,-6.6345,-6.6182,-6.5922,-6.5647,-6.547,-6.5425,-6.5425,-6.5425,-6.5425,-6.5381,-6.5189,-6.4781,-6.4207,-6.3516,-6.2841,-6.2315,-6.2053,-6.1784,-6.1379,-6.1124,-6.0711,-6.025,-6.0143,-5.9915,-5.9847,-6.0505,-6.1014,-6.1463,-6.2121,-6.251,-6.275,-6.3019,-6.3079,-6.3079,-6.3079,-6.3079,-6.3079,-6.3079,-6.3079,-6.3079,-6.3079,-6.3079,-6.2989,-6.275,-6.272,-6.263,-6.2361,0.0,-6.1732,-6.1732,-6.1373,-6.1014,-6.0745,-6.0715,-6.0625,-6.0386,-6.0356,-6.0356,-6.0356,-6.0356,-6.0356,-6.0356,-6.0356,-6.0356,-6.0356,-6.0356,-6.0146,-5.9727,-5.9727,-5.9937,-6.0356,-6.0356,-6.0475,-6.0715,-6.0715,-6.0864,-6.1104,-6.1104,-6.1104,-6.1104,-6.1104,-6.1104,-6.1104,-6.1104,-6.1104,-6.1104,-6.1104,-6.1104,-6.1164,-7.1312,-7.1312,-7.1312,-7.1312,-7.0872,-7.0534,-7.0534,-7.0128,-6.9722,-6.9485,-6.9451,-6.9147,-6.8368,-6.8267,-6.7963,-6.7218,-6.7151,-6.7049,-6.6846,-6.6812,-6.6812,-6.6812,-6.6812,-6.6812,-6.6812,-6.6812,-6.6686,-6.6507,-6.6259,-6.5965,-6.578,-6.5514,-6.5425,-6.5425,-6.5425,-6.5381,-6.5291,-6.5008,-6.4518,-6.3879,-6.2987,-6.2202,-6.1613,-6.1175,-6.0815,-6.0564,-6.0429,-6.0289,-6.0129,-6.0289,-6.0401,-6.0535,-6.1194,-6.1882,-6.248,-6.2959,-6.3079,-6.3079,-6.3079,-6.3079,-6.3079,-6.3079,-6.3079,-6.3079,-6.3079,-6.3079,-6.3079,-6.3079,-6.3079,-6.3079,-6.3079,-6.3079,-6.3079,-6.3079,-6.269,-6.2391,-6.2391,-6.2002,-6.1642,-6.1433,-6.1433,-6.1343,-6.1134,-6.1104,-6.1104,-6.1104,-6.1104,-6.1104,-6.1104,-6.1104,-6.1104,-6.1104,-6.1104,-6.0984,-6.0715,-6.0505,-6.0655,-6.1104,-6.1104,-6.1224,-6.1433,-6.1433,-6.1523,-6.1732,-6.1732,-6.1732,-6.1732,-6.1732,-6.1732,-6.1732,-6.1732,-6.1732,-6.1732,-6.1732,-6.1732,-6.1792,-7.1312,-7.1312,-7.1312,-7.1312,-7.1312,-7.1312,-7.1312,-7.1312,-7.1041,-7.0297,-7.0195,-6.9925,-6.918,-6.9113,-6.8774,-6.7996,-6.7895,-6.759,-6.688,-6.6812,-6.6812,-6.6812,-6.6812,-6.6812,-6.6812,-6.6812,-6.6686,-6.6507,-6.6259,-6.6009,-6.578,-6.5514,-6.5425,-6.5425,-6.5425,-6.5291,-6.5054,-6.4518,-6.3879,-6.3116,-6.2035,-6.1308,-6.0742,-6.0197,-6.0016,-5.9963,-5.9583,-5.9951,-6.047,-6.0196,-6.0565,-6.1224,-6.1912,-6.254,-6.3079,-6.3079,-6.3079,-6.3079,-6.3079,-6.3079,-6.3079,-6.3079,-6.3079,-6.3079,-6.3079,-6.3079,-6.3079,-6.3079,-6.3079,-6.3079,-6.3079,-6.3079,-6.3079,-6.3079,-6.3079,-6.3079,-6.3079,-6.3079,-6.2839,-6.2181,-6.2121,-6.1852,-6.1194,-6.1134,-6.1134,-6.1134,-6.1134,-6.1134,-6.1134,-6.1134,-6.1134,-6.1134,-6.1134,-6.1433,-6.2091,-6.1433,-6.1134,-6.1134,-6.1134,-6.1463,-6.2121,-6.2121,-6.245,-6.3079,-6.3079,-6.3079,-6.3079,-6.3079,-6.3079,-6.3079,-6.3079,-6.3079,-6.3079,-6.3079,-6.3079,-6.3079,-7.1312,-7.1312,-7.1312,-7.1312,-7.1312,-7.1312,-7.1312,-7.1312,-7.1244,-7.1007,-7.0973,-7.0703,-6.9958,-6.9857,-6.9553,-6.8808,-6.8233,-6.759,-6.688,-6.6812,-6.6812,-6.6812,-6.6812,-6.6812,-6.6812,-6.6812,-6.677,-6.6686,-6.6473,-6.6259,-6.6009,-6.578,-6.5603,-6.5425,-6.5425,-6.5291,-6.5054,-6.4518,-6.3738,-6.2744,-6.1734,-6.0866,-6.0136,-5.9583,-5.9669,-6.009,-5.9951,-6.0346,-6.0976,-6.1399,-6.1642,-6.1912,-6.257,-6.2929,-6.3079,-6.3079,-6.3079,-6.3079,-6.3079,-6.3079,-6.3079,-6.3079,-6.3079,-6.3079,-6.3079,-6.3079,-6.3079,-6.3079,-6.3079,-6.3079,-6.3079,-6.3079,-6.3079,-6.3079,-6.3079,-6.3079,-6.3079,-6.3079,-6.3019,-6.281,-6.278,-6.272,-6.251,-6.248,-6.248,-6.248,-6.248,-6.248,-6.248,-6.248,-6.248,-6.248,-6.248,-6.26,-6.278,-6.2121,-6.2032,-6.248,-6.248,-6.26,-6.278,-6.278,-6.2899,-6.3079,-6.3079,-6.3079,-6.3079,-6.3079,-6.3079,-6.3079,-6.3079,-6.3079,-6.3079,-6.3079,-6.3079,-6.3079,-7.1312,-7.1312,-7.1312,-7.1312,-7.1312,-7.1312,-7.1312,-7.1312,-7.1312,-7.1312,-7.1312,-7.1142,-7.0669,-7.0635,-7.0331,-6.9586,-6.8538,-6.7726,-6.7252,-6.6981,-6.6812,-6.6812,-6.6812,-6.6812,-6.6812,-6.6812,-6.6812,-6.6812,-6.6592,-6.6345,-6.6095,-6.5911,-6.5647,-6.5425,-6.5425,-6.5246,-6.4918,-6.4347,-6.35,-6.2333,-6.143,-6.0656,-6.0106,-5.9651,-5.9907,-6.0505,-6.0505,-6.0924,-6.1553,-6.1972,-6.2271,-6.254,-6.2959,-6.3079,-6.3079,-6.3079,-6.3079,-6.3079,-6.3079,-6.3079,-6.3079,-6.3079,-6.3079,-6.3079,-6.3079,-6.3079,-6.3079,-6.3079,-6.3079,-6.3079,-6.3079,-6.3079,-6.3079,-6.3079,-6.3079,-6.3079,-6.3079,-6.3079,-6.3079,-6.3079,-6.3079,-6.3079,-6.3079,-6.3079,-6.3079,-6.3079,-6.3079,-6.3079,-6.3079,-6.3079,-6.3079,-6.3079,-6.3079,-6.3079,-6.3079,-6.269,-6.269,-6.3079,-6.3079,-6.3079,-6.3079,-6.3079,-6.3079,-6.3079,-6.3079,-6.3079,-6.3079,-6.3079,-6.3079,-6.3079,-6.3079,-6.3079,-6.3079,-6.3079,-6.3079,-6.3079,-7.1312,-7.1312,-7.1312,-7.1312,-7.1312,-7.1312,-7.1312,-7.1312,-7.1312,-7.1312,-7.1312,-7.1312,-7.1312,-7.1312,-7.1041,-7.0364,-6.8944,-6.803,-6.7895,-6.7286,-6.688,-6.6812,-6.6812,-6.6812,-6.6812,-6.6812,-6.6812,-6.6812,-6.6635,-6.6388,-6.6095,-6.5911,-6.5692,-6.5425,-6.5425,-6.5156,-6.4656,-6.4161,-6.3164,-6.201,-6.1196,-6.076,-6.056,-6.0286,-6.0595,-6.1194,-6.1194,-6.1613,-6.2181,-6.2181,-6.26,-6.3079,-6.3079,-6.3079,-6.3079,-6.3079,-6.3079,-6.3079,-6.3079,-6.3079,-6.3079,-6.3079,-6.3079,-6.3079,-6.3079,-6.3079,-6.3079,-6.3079,-6.3079,-6.3079,-6.3079,-6.3079,-6.3079,-6.3079,-6.3079,-6.3079,-6.3079,-6.3079,-6.3079,-6.3079,-6.3079,-6.3079,-6.3079,-6.3079,-6.3079,-6.3079,-6.3079,-6.3079,-6.3079,-6.3079,-6.3079,-6.3079,-6.3079,-6.3079,-6.3079,-6.3079,-6.3079,-6.3079,-6.3079,-6.3079,-6.3079,-6.3079,-6.3079,-6.3079,-6.3079,-6.3079,-6.3079,-6.3079,-6.3079,-6.3079,-6.3079,-6.3079,-6.3079,-6.3079,-6.3079,-6.3079,-7.1312,-7.1312,-7.1312,-7.1312,-7.1312,-7.1312,-7.1312,-7.1312,-7.1312,-7.1312,-7.1312,-7.1312,-7.1312,-7.1312,-7.1244,-7.1075,-7.0229,-6.918,-6.7963,-6.776,-6.7421,-6.6846,-6.6812,-6.6812,-6.6812,-6.6812,-6.6812,-6.6812,-6.6728,-6.6516,-6.6095,-6.6052,-6.579,-6.5425,-6.5425,-6.5156,-6.4656,-6.4161,-6.3323,-6.2331,-6.1772,-6.1355,-6.095,-6.0894,-6.1313,-6.1882,-6.1882,-6.2301,-6.2869,-6.2869,-6.2959,-6.3079,-6.3079,-6.3079,-6.3079,-6.3079,-6.3079,-6.3079,-6.3079,-6.3079,-6.3079,-6.3079,-6.3079,-6.3079,-6.3079,-6.3079,-6.3079,-6.3079,-6.3079,-6.3079,-6.3079,-6.3079,-6.3079,-6.3079,-6.3079,-6.3079,-6.3079,-6.3079,-6.3079,-6.3079,-6.3079,-6.3079,-6.3079,-6.3079,-6.3079,-6.3079,-6.3079,-6.3079,-6.3079,-6.3079,-6.3079,-6.3079,-6.3079,-6.3079,-6.3079,-6.3079,-6.3079,-6.3079,-6.3079,-6.3079,-6.3079,-6.3079,-6.3079,-6.3079,-6.3079,-6.3079,-6.3079,-6.3079,-6.3079,-6.3079,-6.3079,-6.3079,-6.3079,-6.3079,-6.3079,-6.3079,-7.1312,-7.1312,-7.1312,-7.1312,-7.1312,-7.1312,-7.1312,-7.1312,-7.1312,-7.1312,-7.1312,-7.1312,-7.1312,-7.1312,-7.1312,-7.1312,-7.0635,-6.9857,-6.9045,-6.8301,-6.7726,-6.7354,-6.7015,-6.6812,-6.6812,-6.6812,-6.6812,-6.6812,-6.6812,-6.6558,-6.6095,-6.6095,-6.5834,-6.5425,-6.5425,-6.5321,-6.5226,-6.4634,-6.3881,-6.2997,-6.2483,-6.2001,-6.1583,-6.1583,-6.2002,-6.257,-6.257,-6.278,-6.3079,-6.3079,-6.3079,-6.3079,-6.3079,-6.3079,-6.3079,-6.3079,-6.3079,-6.3079,-6.3079,-6.3079,-6.3079,-6.3079,-6.3079,-6.3079,-6.3079,-6.3079,-6.3079,-6.3079,-6.3079,-6.3079,-6.3079,-6.3079,-6.3079,-6.3079,-6.3079,-6.3079,-6.3079,-6.3079,-6.3079,-6.3079,-6.3079,-6.3079,-6.3079,-6.3079,-6.3079,-6.3079,-6.3079,-6.3079,-6.3079,-6.3079,-6.3079,-6.3079,-6.3079,-6.3079,-6.3079,-6.3079,-6.3079,-6.3079,-6.3079,-6.3079,-6.3079,-6.3079,-6.3079,-6.3079,-6.3079,-6.3079,-6.3079,-6.3079,-6.3079,-6.3079,-6.3079,-6.3079,-6.3079,-6.3079,-6.3079,-6.3079,-7.1312,-7.1312,-7.1312,-7.1312,-7.1312,-7.1312,-7.1312,-7.1312,-7.1312,-7.1312,-7.1312,-7.1312,-7.1312,-7.1312,-7.1312,-7.1312,-7.0737,-7.0331,-7.0195,-6.8977,-6.8166,-6.7895,-6.732,-6.6948,-6.6812,-6.6812,-6.6812,-6.6812,-6.6812,-6.6558,-6.6095,-6.6095,-6.5834,-6.5425,-6.5558,-6.5684,-6.5783,-6.53,-6.4566,-6.3713,-6.3109,-6.2646,-6.2271,-6.2271,-6.26,-6.3079,-6.3079,-6.3079,-6.3079,-6.3079,-6.3079,-6.3079,-6.3079,-6.3079,-6.3079,-6.3079,-6.3079,-6.3079,-6.3079,-6.3079,-6.3079,-6.3079,-6.3079,-6.3079,-6.3079,-6.3079,-6.3079,-6.3079,-6.3079,-6.3079,-6.3079,-6.3079,-6.3079,-6.3079,-6.3079,-6.3079,-6.3079,-6.3079,-6.3079,-6.3079,-6.3079,-6.3079,-6.3079,-6.3079,-6.3079,-6.3079,-6.3079,-6.3079,-6.3079,-6.3079,-6.3079,-6.3079,-6.3079,-6.3079,-6.3079,-6.3079,-6.3079,-6.3079,-6.3079,-6.3079,-6.3079,-6.3079,-6.3079,-6.3079,-6.3079,-6.3079,-6.3079,-6.3079,-6.3079,-6.3079,-6.3079,-6.3079,-6.3079,-6.3079,-6.3079,-6.3079,-7.1312,-7.1312,-7.1312,-7.1312,-7.1312,-7.1312,-7.1312,-7.1312,-7.1312,-7.1312,-7.1312,-7.1312,-7.1312,-7.1312,-7.1312,-7.1312,-7.121,-7.0872,-7.0229,-6.9992,-6.9282,-6.7963,-6.7793,-6.7455,-6.6812,-6.6812,-6.6812,-6.6812,-6.6812,-6.6558,-6.6095,-6.6095,-6.5834,-6.5459,-6.6088,-6.6146,-6.5769,-6.5562,-6.5116,-6.4377,-6.3548,-6.3092,-6.2929,-6.2929,-6.2989,-6.3079,-6.3079,-6.3079,-6.3079,-6.3079,-6.3079,-6.3079,-6.3079,-6.3079,-6.3079,-6.3079,-6.3079,-6.3079,-6.3079,-6.3079,-6.3079,-6.3079,-6.3079,-6.3079,-6.3079,-6.3079,-6.3079,-6.3079,-6.3079,-6.3079,-6.3079,-6.3079,-6.3079,-6.3079,-6.3079,-6.3079,-6.3079,-6.3079,-6.3079,-6.3079,-6.3079,-6.3079,-6.3079,-6.3079,-6.3079,-6.3079,-6.3079,-6.3079,-6.3079,-6.3079,-6.3079,-6.3079,-6.3079,-6.3079,-6.3079,-6.3079,-6.3079,-6.3079,-6.3079,-6.3079,-6.3079,-6.3079,-6.3079,-6.3079,-6.3079,-6.3079,-6.3079,-6.3079,-6.3079,-6.3079,-6.3079,-6.3079,-6.3079,-6.3079,-6.3079,-6.3079,-7.1312,-7.1312,-7.1312,-7.1312,-7.1312,-7.1312,-7.1312,-7.1312,-7.1312,-7.1312,-7.1312,-7.1312,-7.1312,-7.1312,-7.1312,-7.1312,-7.1312,-7.1176,-7.0838,-7.0432,-6.9891,-6.9214,-6.8774,-6.8436,-6.8098,-6.8098,-6.8098,-6.8098,-6.7218,-6.6558,-6.6095,-6.6531,-6.6468,-6.6055,-6.6817,-6.707,-6.6948,-6.6436,-6.5797,-6.5094,-6.4254,-6.3577,-6.3079,-6.3079,-6.3079,-6.3079,-6.3079,-6.3079,-6.3079,-6.3079,-6.3079,-6.3079,-6.3079,-6.3079,-6.3079,-6.3079,-6.3079,-6.3079,-6.3079,-6.3079,-6.3079,-6.3079,-6.3079,-6.3079,-6.3079,-6.3079,-6.3079,-6.3079,-6.3079,-6.3079,-6.3079,-6.3079,-6.3079,-6.3079,-6.3079,-6.3079,-6.3079,-6.3079,-6.3079,-6.3079,-6.3079,-6.3079,-6.3079,-6.3079,-6.3079,-6.3079,-6.3079,-6.3079,-6.3079,-6.3079,-6.3079,-6.3079,-6.3079,-6.3079,-6.3079,-6.3079,-6.3079,-6.3079,-6.3079,-6.3079,-6.3079,-6.3079,-6.3079,-6.3079,-6.3079,-6.3079,-6.3079,-6.3079,-6.3079,-6.3079,-6.3079,-6.3079,-6.3079,-6.3079,-6.3079,-6.3079]},{"header":{"parameterUnit":"m.s-1","parameterCategory":1,"la1":30.6,"la2":28.766,"lo1":-90.7593,"lo2":-88.6598,"dy":0.0162,"dx":0.0183,"nx":116,"ny":114,"refTime":"2024-04-11T12:00:00:Z","depth":0,"parameterNumber":3,"parameterNumberName":"V-component_of_WINDS"},"data":[0.0,0.0,0.0,0.0,0.0,0.0,0.0,0.0,0.0,0.0,0.0,0.0,0.0,0.0,0.0,0.0,0.0,0.0,0.0,0.0,0.0,0.0,0.0,0.0,0.0,0.0,0.0,0.0,0.0,0.0,0.0,0.0,0.0,0.0,0.0,0.0,0.0,0.0,0.0,0.0,0.0,0.0,0.0,0.0,0.0,0.0,0.0,0.0,0.0,0.0,0.0,0.0,0.0,0.0,0.0,0.0,0.0,0.0,0.0,0.0,0.0,0.0,0.0,0.0,0.0,0.0,0.0,0.0,0.0,0.0,0.0,0.0,0.0,0.0,0.0,0.0,0.0,0.0,0.0,0.0,0.0,0.0,0.0,0.0,0.0,0.0,0.0,0.0,0.0,0.0,0.0,0.0,0.0,0.0,0.0,0.0,0.0,0.0,0.0,0.0,0.0,0.0,0.0,0.0,0.0,0.0,0.0,0.0,0.0,0.0,0.0,0.0,0.0,0.0,0.0,0.0,0.0,0.0,0.0,0.0,0.0,0.0,0.0,0.0,0.0,0.0,0.0,0.0,0.0,0.0,0.0,0.0,0.0,0.0,0.0,0.0,0.0,0.0,0.0,0.0,0.0,0.0,0.0,0.0,0.0,0.0,0.0,0.0,0.0,0.0,0.0,0.0,0.0,0.0,0.0,0.0,0.0,0.0,0.0,0.0,0.0,0.0,0.0,0.0,0.0,0.0,0.0,0.0,0.0,0.0,0.0,0.0,0.0,0.0,0.0,0.0,0.0,0.0,0.0,0.0,0.0,0.0,0.0,0.0,0.0,0.0,0.0,0.0,0.0,0.0,0.0,0.0,0.0,0.0,0.0,0.0,0.0,0.0,0.0,0.0,0.0,0.0,0.0,0.0,0.0,0.0,0.0,0.0,0.0,0.0,0.0,0.0,0.0,0.0,0.0,0.0,0.0,0.0,0.0,0.0,0.0,0.0,0.0,0.0,0.0,0.0,0.0,0.0,0.0,0.0,0.0,0.0,0.0,0.0,0.0,0.0,0.0,0.0,0.0,0.0,0.0,0.0,0.0,0.0,0.0,0.0,0.0,0.0,0.0,0.0,0.0,0.0,0.0,0.0,0.0,0.0,0.0,0.0,0.0,0.0,0.0,0.0,0.0,0.0,0.0,0.0,0.0,0.0,0.0,0.0,0.0,0.0,0.0,0.0,0.0,0.0,0.0,0.0,0.0,0.0,0.0,0.0,0.0,0.0,0.0,0.0,0.0,0.0,0.0,0.0,0.0,0.0,0.0,0.0,0.0,0.0,0.0,0.0,0.0,0.0,0.0,0.0,0.0,0.0,0.0,0.0,0.0,0.0,0.0,0.0,0.0,0.0,0.0,0.0,0.0,0.0,0.0,0.0,0.0,0.0,0.0,0.0,0.0,0.0,0.0,0.0,0.0,0.0,0.0,0.0,0.0,0.0,0.0,0.0,0.0,0.0,0.0,0.0,0.0,0.0,0.0,0.0,0.0,0.0,0.0,0.0,0.0,0.0,0.0,0.0,0.0,0.0,0.0,0.0,0.0,0.0,0.0,0.0,0.0,0.0,0.0,0.0,0.0,0.0,0.0,0.0,0.0,0.0,0.0,0.0,0.0,0.0,0.0,0.0,0.0,0.0,0.0,0.0,0.0,0.0,0.0,0.0,0.0,0.0,0.0,0.0,0.0,0.0,0.0,0.0,0.0,0.0,0.0,0.0,0.0,0.0,0.0,0.0,0.0,0.0,0.0,0.0,0.0,0.0,0.0,0.0,0.0,0.0,0.0,0.0,0.0,0.0,0.0,0.0,0.0,0.0,0.0,0.0,0.0,0.0,0.0,0.0,0.0,0.0,0.0,0.0,0.0,0.0,0.0,0.0,0.0,0.0,0.0,0.0,0.0,0.0,0.0,0.0,0.0,0.0,0.0,0.0,0.0,0.0,0.0,0.0,0.0,0.0,0.0,0.0,0.0,0.0,0.0,0.0,0.0,0.0,0.0,0.0,0.0,0.0,0.0,0.0,0.0,0.0,0.0,0.0,0.0,0.0,0.0,0.0,0.0,0.0,0.0,0.0,0.0,0.0,0.0,0.0,0.0,0.0,0.0,0.0,0.0,0.0,0.0,0.0,0.0,0.0,0.0,0.0,0.0,0.0,0.0,0.0,0.0,0.0,0.0,0.0,0.0,0.0,0.0,0.0,0.0,0.0,0.0,0.0,0.0,0.0,0.0,0.0,0.0,0.0,0.0,0.0,0.0,0.0,0.0,0.0,0.0,0.0,0.0,0.0,0.0,0.0,0.0,0.0,0.0,0.0,0.0,0.0,0.0,0.0,0.0,0.0,0.0,0.0,0.0,0.0,0.0,0.0,0.0,0.0,0.0,0.0,0.0,0.0,0.0,0.0,0.0,0.0,0.0,0.0,0.0,0.0,0.0,0.0,0.0,0.0,0.0,0.0,0.0,0.0,0.0,0.0,0.0,0.0,0.0,0.0,0.0,0.0,0.0,0.0,0.0,0.0,0.0,0.0,0.0,0.0,0.0,0.0,0.0,0.0,0.0,0.0,0.0,0.0,0.0,0.0,0.0,0.0,0.0,0.0,0.0,0.0,0.0,0.0,0.0,0.0,0.0,0.0,0.0,0.0,0.0,0.0,0.0,0.0,0.0,0.0,0.0,0.0,0.0,0.0,0.0,0.0,0.0,0.0,0.0,0.0,0.0,0.0,0.0,0.0,0.0,0.0,0.0,0.0,0.0,0.0,0.0,0.0,0.0,0.0,0.0,0.0,0.0,0.0,0.0,0.0,0.0,0.0,0.0,0.0,0.0,0.0,0.0,0.0,0.0,0.0,0.0,0.0,0.0,0.0,0.0,0.0,0.0,0.0,0.0,0.0,0.0,0.0,0.0,0.0,0.0,0.0,0.0,0.0,0.0,0.0,0.0,0.0,0.0,0.0,0.0,0.0,0.0,0.0,0.0,0.0,0.0,0.0,0.0,0.0,0.0,0.0,0.0,0.0,0.0,0.0,0.0,0.0,0.0,0.0,0.0,0.0,0.0,0.0,0.0,0.0,0.0,0.0,0.0,0.0,0.0,0.0,0.0,0.0,0.0,0.0,0.0,0.0,0.0,0.0,0.0,0.0,0.0,0.0,0.0,0.0,0.0,0.0,0.0,0.0,0.0,0.0,0.0,0.0,0.0,0.0,0.0,0.0,0.0,0.0,0.0,0.0,0.0,0.0,0.0,0.0,0.0,0.0,0.0,0.0,0.0,0.0,0.0,0.0,0.0,0.0,0.0,0.0,0.0,0.0,0.0,0.0,0.0,0.0,0.0,0.0,0.0,0.0,0.0,0.0,0.0,0.0,0.0,0.0,0.0,0.0,0.0,0.0,0.0,0.0,0.0,0.0,0.0,0.0,0.0,0.0,0.0,0.0,0.0,0.0,0.0,0.0,0.0,0.0,0.0,0.0,0.0,0.0,0.0,0.0,0.0,0.0,0.0,0.0,0.0,0.0,0.0,0.0,0.0,0.0,0.0,0.0,0.0,0.0,0.0,0.0,0.0,0.0,0.0,0.0,0.0,0.0,0.0,0.0,0.0,0.0,0.0,0.0,0.0,0.0,0.0,0.0,0.0,0.0,0.0,0.0,0.0,0.0,0.0,0.0,0.0,0.0,0.0,0.0,0.0,0.0,0.0,0.0,0.0,0.0,0.0,0.0,0.0,0.0,0.0,0.0,0.0,0.0,0.0,0.0,0.0,0.0,0.0,0.0,0.0,0.0,0.0,0.0,0.0,0.0,0.0,0.0,0.0,0.0,0.0,0.0,0.0,0.0,0.0,0.0,0.0,0.0,0.0,0.0,0.0,0.0,0.0,0.0,0.0,0.0,0.0,0.0,0.0,0.0,0.0,0.0,0.0,0.0,0.0,0.0,0.0,0.0,0.0,0.0,0.0,0.0,0.0,0.0,0.0,0.0,0.0,0.0,0.0,0.0,0.0,0.0,0.0,0.0,0.0,0.0,0.0,0.0,0.0,0.0,0.0,0.0,0.0,0.0,0.0,0.0,0.0,0.0,0.0,0.0,0.0,0.0,0.0,0.0,0.0,0.0,0.0,0.0,0.0,0.0,0.0,0.0,0.0,0.0,0.0,0.0,0.0,0.0,0.0,0.0,0.0,0.0,0.0,0.0,0.0,0.0,0.0,0.0,0.0,0.0,0.0,0.0,0.0,0.0,0.0,0.0,0.0,0.0,0.0,0.0,0.0,0.0,0.0,0.0,0.0,0.0,0.0,0.0,0.0,0.0,0.0,0.0,0.0,0.0,0.0,0.0,0.0,0.0,0.0,0.0,0.0,0.0,0.0,0.0,0.0,0.0,0.0,0.0,0.0,0.0,0.0,0.0,0.0,0.0,0.0,0.0,0.0,0.0,0.0,0.0,0.0,0.0,0.0,0.0,0.0,0.0,0.0,0.0,0.0,0.0,0.0,0.0,0.0,0.0,0.0,0.0,0.0,0.0,0.0,0.0,0.0,0.0,0.0,0.0,0.0,0.0,0.0,0.0,0.0,0.0,0.0,0.0,0.0,0.0,0.0,0.0,0.0,0.0,0.0,0.0,0.0,0.0,0.0,0.0,0.0,0.0,0.0,0.0,0.0,0.0,0.0,0.0,0.0,0.0,0.0,0.0,0.0,0.0,0.0,0.0,0.0,0.0,0.0,0.0,0.0,0.0,0.0,0.0,0.0,0.0,0.0,0.0,0.0,0.0,0.0,0.0,0.0,0.0,0.0,0.0,0.0,0.0,0.0,0.0,0.0,0.0,0.0,0.0,0.0,0.0,0.0,0.0,0.0,0.0,0.0,0.0,0.0,0.0,0.0,0.0,0.0,0.0,0.0,0.0,0.0,0.0,0.0,0.0,0.0,0.0,0.0,0.0,0.0,0.0,0.0,0.0,0.0,0.0,0.0,0.0,0.0,0.0,0.0,0.0,0.0,0.0,0.0,0.0,0.0,0.0,0.0,0.0,0.0,0.0,0.0,0.0,0.0,0.0,0.0,0.0,0.0,0.0,0.0,0.0,0.0,0.0,0.0,0.0,0.0,0.0,0.0,0.0,0.0,0.0,0.0,0.0,0.0,0.0,0.0,0.0,0.0,0.0,0.0,0.0,0.0,0.0,0.0,0.0,0.0,0.0,0.0,0.0,0.0,0.0,0.0,0.0,0.0,0.0,0.0,0.0,0.0,0.0,0.0,0.0,0.0,0.0,0.0,0.0,0.0,0.0,0.0,0.0,0.0,0.0,0.0,0.0,0.0,0.0,0.0,0.0,0.0,0.0,0.0,0.0,0.0,0.0,0.0,0.0,0.0,0.0,0.0,0.0,0.0,0.0,0.0,0.0,0.0,0.0,0.0,0.0,0.0,0.0,0.0,0.0,0.0,0.0,0.0,0.0,0.0,0.0,0.0,0.0,0.0,0.0,0.0,0.0,0.0,0.0,0.0,0.0,0.0,0.0,0.0,0.0,0.0,0.0,0.0,0.0,0.0,0.0,0.0,0.0,0.0,0.0,0.0,0.0,0.0,0.0,0.0,0.0,0.0,0.0,0.0,0.0,0.0,0.0,0.0,0.0,0.0,0.0,0.0,0.0,0.0,0.0,0.0,0.0,0.0,0.0,0.0,0.0,0.0,0.0,0.0,0.0,0.0,0.0,0.0,0.0,0.0,0.0,0.0,0.0,0.0,0.0,0.0,0.0,0.0,0.0,0.0,0.0,0.0,0.0,0.0,0.0,0.0,0.0,0.0,0.0,0.0,0.0,0.0,0.0,0.0,0.0,0.0,0.0,0.0,0.0,0.0,0.0,0.0,0.0,0.0,0.0,0.0,0.0,0.0,0.0,0.0,0.0,0.0,0.0,0.0,0.0,0.0,0.0,0.0,0.0,0.0,0.0,0.0,0.0,0.0,0.0,0.0,0.0,0.0,0.0,0.0,0.0,0.0,0.0,0.0,0.0,0.0,0.0,0.0,0.0,0.0,0.0,0.0,0.0,0.0,0.0,0.0,0.0,0.0,0.0,0.0,0.0,0.0,0.0,0.0,0.0,3.6016,3.6016,0.0,0.0,0.0,0.0,0.0,0.0,0.0,0.0,0.0,0.0,0.0,0.0,0.0,0.0,0.0,0.0,0.0,0.0,0.0,0.0,0.0,0.0,0.0,2.2592,2.2539,2.2832,2.2928,2.2928,2.2928,2.2928,0.0,0.0,0.0,0.0,2.2928,2.2928,2.2996,2.3133,2.3475,2.4224,2.524,2.5965,2.6702,2.7451,0.0,0.0,0.0,0.0,0.0,0.0,0.0,0.0,0.0,0.0,0.0,0.0,0.0,0.0,0.0,0.0,0.0,0.0,0.0,0.0,0.0,0.0,0.0,0.0,0.0,0.0,0.0,0.0,0.0,0.0,0.0,0.0,0.0,0.0,0.0,0.0,0.0,0.0,0.0,0.0,0.0,0.0,0.0,0.0,0.0,0.0,0.0,0.0,0.0,0.0,0.0,0.0,0.0,0.0,0.0,0.0,0.0,0.0,0.0,0.0,0.0,0.0,0.0,0.0,0.0,0.0,0.0,0.0,0.0,0.0,3.6016,3.6016,0.0,0.0,0.0,0.0,0.0,0.0,0.0,0.0,0.0,0.0,0.0,0.0,0.0,0.0,0.0,0.0,0.0,0.0,0.0,0.0,0.0,2.2472,2.2887,2.2552,2.2485,2.2901,2.2928,2.2928,2.2928,2.2928,2.2928,2.2928,2.2928,2.2928,2.2928,2.2928,2.3065,2.3406,2.402,2.5172,2.6851,2.8296,2.8839,2.8642,2.9561,0.0,0.0,0.0,0.0,0.0,0.0,0.0,0.0,0.0,0.0,0.0,0.0,0.0,0.0,0.0,0.0,0.0,0.0,0.0,0.0,0.0,0.0,0.0,0.0,0.0,0.0,0.0,0.0,0.0,0.0,0.0,0.0,0.0,0.0,0.0,0.0,0.0,0.0,0.0,0.0,0.0,0.0,0.0,0.0,0.0,0.0,0.0,0.0,0.0,0.0,0.0,0.0,0.0,0.0,0.0,0.0,0.0,0.0,0.0,0.0,0.0,0.0,0.0,3.6219,3.6219,3.6219,3.6219,3.6219,3.6219,3.6219,3.6152,3.6016,3.6016,0.0,0.0,0.0,0.0,0.0,0.0,0.0,0.0,0.0,0.0,0.0,0.0,0.0,0.0,0.0,0.0,0.0,0.0,0.0,2.2258,2.2874,2.2378,2.2258,2.2887,2.2928,2.2928,2.2928,2.2928,2.2928,2.2928,2.2928,2.2928,2.2928,2.2928,2.3065,2.3406,2.5022,2.6435,2.7567,2.902,2.9822,3.01,3.0555,3.0815,3.0879,0.0,0.0,0.0,0.0,0.0,0.0,0.0,0.0,0.0,0.0,0.0,0.0,0.0,0.0,0.0,0.0,0.0,0.0,0.0,0.0,0.0,0.0,0.0,0.0,0.0,0.0,0.0,0.0,0.0,0.0,0.0,0.0,0.0,0.0,0.0,0.0,0.0,0.0,0.0,0.0,0.0,3.6276,3.6016,0.0,0.0,0.0,0.0,0.0,0.0,0.0,0.0,0.0,0.0,0.0,0.0,0.0,3.6152,3.6451,3.6451,3.6606,3.6944,3.6944,3.6944,3.6944,3.6944,3.6944,3.6944,3.6944,0.0,3.6016,3.6016,0.0,0.0,0.0,0.0,0.0,0.0,0.0,0.0,0.0,0.0,0.0,0.0,0.0,0.0,0.0,0.0,0.0,0.0,0.0,0.0,0.0,2.2338,2.2218,2.2874,2.2928,2.2928,2.2928,2.2928,2.2928,2.2928,2.2928,2.2928,2.2928,2.3065,2.3679,2.4645,2.6048,2.7185,2.8048,2.9495,3.023,3.0443,3.0944,3.1184,3.1184,3.1846,0.0,0.0,0.0,0.0,0.0,0.0,0.0,0.0,0.0,0.0,0.0,0.0,0.0,0.0,0.0,0.0,0.0,0.0,0.0,0.0,0.0,0.0,0.0,0.0,0.0,0.0,0.0,0.0,0.0,0.0,0.0,0.0,0.0,0.0,0.0,0.0,0.0,0.0,0.0,3.615,3.6451,3.6336,3.6384,3.6519,0.0,0.0,0.0,0.0,0.0,0.0,0.0,0.0,0.0,3.6626,3.6626,3.6674,3.6876,3.6876,3.6944,3.7079,3.7079,3.7079,3.7079,3.7079,3.7079,3.7079,3.7079,3.6944,3.6626,3.6626,3.6626,3.6626,0.0,0.0,0.0,0.0,3.6944,3.7146,0.0,0.0,0.0,0.0,0.0,0.0,0.0,0.0,0.0,0.0,0.0,0.0,2.2806,2.2405,2.2298,2.2819,2.2928,2.2928,2.2928,2.2928,2.2928,2.2928,2.2928,2.2928,2.2928,2.3338,2.4156,2.5457,2.6599,2.76,2.8329,2.9709,3.0378,3.0443,3.112,3.1377,3.1442,3.1782,3.2038,3.2294,0.0,0.0,0.0,0.0,0.0,0.0,0.0,0.0,0.0,0.0,0.0,0.0,0.0,0.0,0.0,0.0,0.0,0.0,0.0,0.0,0.0,0.0,0.0,0.0,0.0,0.0,0.0,0.0,0.0,0.0,0.0,0.0,0.0,0.0,0.0,0.0,0.0,3.6403,3.6654,3.6654,3.6722,3.6856,0.0,0.0,0.0,0.0,0.0,0.0,3.7079,3.7079,3.7079,3.7079,3.7079,3.7146,3.7213,3.7213,3.728,3.7348,3.7348,3.7348,3.7348,3.7348,3.7348,3.7348,3.7348,3.7348,3.7348,3.7146,3.7079,3.7079,3.7079,3.7079,3.7079,3.7213,3.7415,3.7616,0.0,0.0,0.0,0.0,0.0,0.0,0.0,0.0,0.0,0.0,0.0,2.2512,2.2832,2.2579,2.2525,2.2832,2.2928,2.2928,2.2928,2.2928,2.2928,2.2928,2.2928,2.2928,2.2928,2.3611,2.4292,2.5037,2.6465,2.76,2.8329,2.9709,3.0378,3.0443,3.112,3.1377,3.1442,3.1782,3.191,3.1974,3.2613,0.0,0.0,0.0,0.0,0.0,0.0,0.0,0.0,0.0,0.0,0.0,0.0,0.0,0.0,0.0,0.0,0.0,0.0,0.0,0.0,0.0,0.0,0.0,0.0,0.0,0.0,0.0,0.0,0.0,0.0,0.0,0.0,0.0,0.0,0.0,0.0,0.0,0.0,3.7079,3.7348,0.0,0.0,0.0,0.0,3.7079,3.7079,3.7079,3.7079,3.7079,3.7079,3.7079,3.7079,3.728,3.7549,3.7549,3.777,3.8125,3.8125,3.8125,3.8125,3.8125,3.8125,3.8125,3.8125,3.8125,3.8125,3.7415,3.7079,3.7079,3.7079,3.7079,3.7146,3.7482,3.7616,3.7616,0.0,0.0,0.0,0.0,0.0,2.2928,2.2928,2.2928,2.2928,2.2928,2.2605,2.2539,2.2832,2.2592,2.2539,2.2832,2.2928,2.2928,2.2928,2.2928,2.2928,2.2928,2.2928,2.2996,2.3201,2.3747,2.4442,2.539,2.6599,2.76,2.8329,2.9709,3.0378,3.0443,3.112,3.1377,3.1377,3.1506,3.1717,3.1929,3.2422,3.274,0.0,0.0,0.0,0.0,0.0,0.0,0.0,0.0,0.0,0.0,0.0,0.0,0.0,0.0,0.0,0.0,0.0,0.0,0.0,0.0,0.0,0.0,0.0,0.0,0.0,0.0,0.0,0.0,0.0,0.0,0.0,0.0,0.0,0.0,0.0,0.0,0.0,3.7415,3.7549,0.0,3.777,3.7549,3.7549,3.777,3.7837,3.7837,3.7837,3.7837,3.7837,3.7837,3.7837,3.7837,3.7971,3.7971,3.8037,3.8191,3.8191,3.8191,3.8191,3.8191,3.8191,3.8191,3.8191,3.8191,3.8191,3.7904,3.7837,3.7837,3.7837,3.7837,3.7837,3.7971,3.7971,3.7971,0.0,0.0,0.0,0.0,0.0,2.2928,2.2928,2.2928,2.2928,2.2928,2.2699,2.2645,2.2914,2.2686,2.2645,2.2914,2.2928,2.2928,2.2928,2.2928,2.2928,2.2928,2.2928,2.2996,2.3201,2.3747,2.4442,2.539,2.6599,2.76,2.8329,2.9578,3.0296,3.0443,3.1009,3.1313,3.1377,3.1377,3.1506,3.1782,3.223,3.2549,3.2804,0.0,0.0,0.0,0.0,0.0,0.0,0.0,0.0,0.0,0.0,0.0,0.0,0.0,0.0,0.0,0.0,0.0,0.0,0.0,0.0,0.0,0.0,0.0,0.0,0.0,0.0,0.0,0.0,0.0,0.0,0.0,0.0,0.0,0.0,3.728,3.7616,3.777,3.7837,3.7904,3.8191,3.7971,3.7904,3.8191,3.8191,3.8191,3.8191,3.8191,3.8191,3.8191,3.8191,3.8253,3.8398,3.8398,3.8481,3.8647,3.8647,3.8564,3.8398,3.8398,3.8336,3.8191,3.8191,3.8191,3.8191,3.8191,3.8191,3.8191,3.8191,3.8191,3.8191,3.8191,3.8191,3.8191,0.0,0.0,0.0,0.0,0.0,2.2928,2.2928,2.2928,2.2928,2.2928,2.2928,2.2928,2.2928,2.2928,2.2928,2.2928,2.2928,2.2928,2.2928,2.2928,2.2928,2.2928,2.2928,2.2928,2.2928,2.3611,2.4292,2.497,2.6465,2.7533,2.8329,2.9299,3.0018,3.0443,3.075,3.1073,3.1377,3.1377,3.1377,3.1442,3.2166,3.2422,3.2485,0.0,0.0,0.0,0.0,0.0,0.0,0.0,0.0,0.0,0.0,0.0,0.0,0.0,0.0,0.0,0.0,0.0,0.0,0.0,0.0,0.0,0.0,0.0,0.0,0.0,0.0,0.0,0.0,0.0,0.0,0.0,0.0,0.0,3.7683,3.7616,3.777,3.8171,3.8191,3.8191,3.8191,3.8191,3.8191,3.8191,3.8191,3.8212,3.8212,3.8212,3.8233,3.8233,3.8233,3.844,3.8807,3.8807,3.9034,3.9468,3.9468,3.9241,3.8807,3.8807,3.8626,3.8233,3.8233,3.8233,3.8233,3.8212,3.8212,3.8212,3.8191,3.8191,3.8191,3.8191,3.8191,3.8191,0.0,0.0,0.0,2.2928,2.2928,2.2928,2.2928,2.2928,2.2928,2.2928,2.2928,2.2928,2.2928,2.2928,2.2928,2.2928,2.2928,2.2928,2.2928,2.2928,2.2928,2.2928,2.2928,2.2928,2.2928,2.3338,2.3952,2.4631,2.5846,2.6918,2.7915,2.8971,2.9774,3.0443,3.075,3.1073,3.1377,3.1377,3.1377,3.1442,3.2166,3.2422,3.2485,0.0,0.0,0.0,0.0,0.0,0.0,0.0,0.0,0.0,0.0,0.0,0.0,0.0,0.0,0.0,0.0,0.0,0.0,0.0,0.0,0.0,0.0,0.0,0.0,0.0,0.0,0.0,0.0,0.0,0.0,0.0,3.8037,3.8037,3.7683,3.7837,3.8104,3.8191,3.8191,3.8191,3.8191,3.8191,3.8191,3.8191,3.8481,3.8667,3.8667,3.8978,3.9164,3.9164,3.9164,3.9226,3.9282,3.9282,3.9344,3.9468,3.9468,3.9406,3.9282,3.9282,3.922,3.9164,3.9164,3.9164,3.9144,3.8812,3.8667,3.8626,3.8316,3.8191,3.8191,3.8191,3.8191,3.8191,0.0,0.0,0.0,2.2928,2.2928,2.2928,2.2928,2.2928,2.2928,2.2928,2.2928,2.2928,2.2928,2.2928,2.2928,2.2928,2.2928,2.2928,2.2928,2.2928,2.2928,2.2928,2.2928,2.2928,2.2928,2.3201,2.3747,2.4495,2.5562,2.6635,2.77,2.8659,2.9578,3.0443,3.062,3.0944,3.1377,3.1377,3.1377,3.1442,3.1974,3.2294,3.2485,3.3165,3.3418,3.3418,3.3418,3.3418,3.3418,3.3418,0.0,0.0,0.0,0.0,0.0,0.0,0.0,0.0,0.0,0.0,0.0,0.0,0.0,0.0,0.0,0.0,0.0,0.0,0.0,0.0,0.0,0.0,0.0,0.0,3.8191,3.8104,3.7904,3.8037,3.8191,3.8191,3.8191,3.8191,3.8191,3.8357,3.846,3.846,3.8874,3.9075,3.9075,3.9323,3.9468,3.9468,3.9468,3.962,3.9806,3.9827,3.9909,4.0096,4.0096,3.9992,3.9757,3.9757,3.9723,3.9468,3.9468,3.9468,3.9447,3.9179,3.8951,3.8745,0.0,0.0,0.0,0.0,3.8191,3.8191,0.0,0.0,0.0,2.2928,2.2928,2.2928,2.2928,2.2928,2.2928,2.2928,2.2928,2.2928,2.2928,2.2928,2.2928,2.2928,2.2928,2.2928,2.2928,2.2928,2.2928,2.2928,2.2928,2.2928,2.2928,2.3201,2.3679,2.436,2.5442,2.6501,2.7567,2.8395,2.9333,3.0378,3.0443,3.0815,3.1377,3.1377,3.1377,3.1442,3.1782,3.2102,3.2485,3.3102,3.3355,3.3418,3.3418,3.3418,3.3418,3.3418,0.0,0.0,0.0,0.0,0.0,0.0,0.0,0.0,0.0,0.0,0.0,0.0,0.0,0.0,0.0,0.0,0.0,0.0,0.0,0.0,0.0,0.0,0.0,0.0,3.8191,3.8191,3.8191,3.8191,3.8191,3.8191,3.8233,3.8253,3.8253,3.8667,3.8848,3.8848,3.9282,3.955,3.955,3.9592,0.0,0.0,0.0,3.9868,4.0261,4.0282,4.0489,4.0882,4.0882,4.0675,4.0303,4.0303,4.0075,3.9682,3.9682,3.9682,3.9682,3.9571,3.9282,3.8807,3.8378,3.8191,3.8191,3.8191,3.8191,3.8191,0.0,0.0,0.0,2.2928,2.2928,2.2928,2.2928,2.2928,2.2928,2.2928,2.2928,2.2928,2.2928,2.2928,2.2928,2.2928,2.2928,2.2928,2.2928,2.2928,2.2928,2.2928,2.2928,2.2928,2.2928,2.2928,2.3201,2.3611,2.4428,2.551,2.6835,2.7849,2.9053,3.0443,3.0685,3.1009,3.1377,3.1377,3.1377,3.1442,3.1782,3.2102,3.2422,3.2848,3.3165,3.3418,3.3418,3.3418,3.3418,3.3418,3.3418,3.3418,3.3418,3.3945,0.0,0.0,0.0,0.0,0.0,0.0,0.0,0.0,0.0,0.0,0.0,0.0,0.0,0.0,0.0,0.0,0.0,0.0,0.0,3.8191,3.8191,3.8191,3.8191,3.8191,3.8191,3.8191,3.8502,3.8662,3.8662,3.9075,3.9344,3.9344,3.9827,4.0026,4.0026,4.0427,4.0613,4.0613,4.0613,4.0655,4.0737,4.0737,4.08,4.0882,4.0882,0.0,4.0758,4.0758,4.0696,4.0613,4.0613,4.0613,4.0593,4.0241,3.9827,3.933,3.8502,3.8191,3.8191,3.8191,3.8191,3.8191,0.0,0.0,0.0,2.2928,2.2928,2.2928,2.2928,2.2928,2.2928,2.2928,2.2928,2.2928,2.2928,2.2928,2.2928,2.2928,2.2928,2.2928,2.2928,2.2928,2.2928,2.2928,2.2928,2.2928,2.2928,2.2928,2.3065,2.3406,2.4156,2.5105,2.6368,2.7451,2.8708,3.01,3.049,3.0944,3.1377,3.1377,3.1377,3.1442,3.1589,3.1974,3.2422,3.2804,3.3102,3.3418,3.3418,3.3418,3.3418,3.3418,3.3418,3.3418,3.3418,3.4004,3.4707,0.0,0.0,0.0,0.0,0.0,0.0,0.0,0.0,0.0,0.0,0.0,0.0,0.0,0.0,3.8191,3.8191,0.0,3.8191,3.8191,3.8191,3.8253,3.8481,3.8523,3.8523,3.8523,3.8641,3.8869,3.9096,3.955,3.9889,3.9889,4.0303,4.0551,4.0551,4.0986,4.1214,4.1214,4.1441,4.1565,4.1565,4.1565,4.1565,4.1565,4.1565,4.1565,4.1565,4.1338,4.1214,4.1214,4.0986,4.0882,4.0841,4.0406,4.0096,3.9736,3.9123,3.873,3.8502,3.8274,3.8191,3.8191,0.0,0.0,0.0,2.2928,2.2928,2.2928,2.2928,2.2928,2.2928,2.2928,2.2928,2.2928,2.2928,2.2928,2.2928,2.2928,2.2928,2.2928,2.2928,2.2928,2.2928,2.2928,2.2928,2.2928,2.2928,2.2928,2.2996,2.327,2.402,2.497,2.61,2.7169,2.8493,2.9952,3.0296,3.0815,3.1377,3.1377,3.1377,3.1377,3.1377,3.1763,3.2422,3.2676,3.3038,3.3418,3.3418,3.3418,3.3418,3.3418,3.3418,3.3437,3.3516,3.4082,3.4726,3.4805,3.5391,0.0,0.0,0.0,0.0,0.0,0.0,0.0,0.0,3.8191,3.8191,3.8191,3.8191,3.8191,3.8191,3.8191,3.8191,3.8191,3.8253,3.844,3.8724,3.8848,3.8951,3.9034,3.9055,3.9199,3.964,4.0096,4.0365,4.0365,4.0675,4.0924,4.1007,4.1358,4.1607,4.169,4.2136,4.2322,4.2322,4.2322,4.2322,4.2322,4.2322,4.2322,4.2322,4.1949,4.1648,4.1545,4.1069,4.0882,4.0841,4.051,4.0365,4.0303,3.9847,3.9364,3.8993,3.8502,3.8316,3.8295,0.0,0.0,0.0,0.0,0.0,2.2928,2.2928,2.2928,2.2928,2.2928,2.2928,2.2928,2.2928,2.2928,2.2928,2.2928,2.2928,2.2928,2.2928,2.2928,2.2928,2.2928,2.2928,2.2928,2.2928,2.2928,2.2928,2.2928,2.3679,2.4766,2.61,2.7169,2.8642,3.0361,3.0685,3.1073,3.1377,3.1377,3.1377,3.1377,3.1377,3.1763,3.2422,3.2422,3.2867,3.3418,3.3418,3.3418,3.3418,3.3418,3.3418,3.3496,3.3887,3.4316,3.4785,3.5195,3.5644,3.6084,3.6384,3.6991,3.7549,3.7616,3.7971,3.8191,0.0,3.8191,3.8191,3.8191,3.8191,3.8191,3.8191,3.8191,3.8191,3.8191,3.8523,3.8724,3.8765,3.9137,3.955,3.9964,4.0054,4.0054,4.0137,4.0551,4.08,4.08,4.0841,4.1048,4.1462,4.1545,4.1752,4.2239,4.2302,4.2322,4.2322,4.2322,4.2322,4.2322,4.2322,4.2322,4.2322,4.2281,4.1959,4.1545,4.1069,4.0882,4.0862,4.082,4.08,4.0758,4.0323,4.0116,3.9972,3.9034,3.8703,3.8641,0.0,0.0,0.0,0.0,0.0,2.2928,2.2928,2.2928,2.2928,2.2928,2.2928,2.2928,2.2928,2.2928,2.2928,2.2928,2.2928,2.2928,2.2928,2.2928,2.2928,2.2928,2.2928,2.2928,2.2928,2.2928,2.2928,2.2928,2.3611,2.4631,2.5831,2.6918,2.8378,3.0083,3.0426,3.0879,3.1377,3.1377,3.1377,3.1377,3.1377,3.1763,3.2422,3.2422,3.2804,3.3418,3.3418,3.3418,0.0,3.3418,3.3418,3.3496,3.3945,3.4355,3.4785,3.5254,3.5684,3.6084,3.6384,3.6924,3.7348,3.7549,3.7904,3.8191,3.8191,3.8191,3.8191,3.8191,3.8191,3.8191,3.8191,3.8191,3.8191,3.8191,3.8564,3.8869,3.9137,3.9571,4.0116,4.0551,4.0593,4.0593,4.0613,4.0779,4.0986,4.1255,4.1276,4.1483,4.2011,4.2207,4.2435,4.2642,4.2911,4.3056,4.3056,4.3056,4.3056,4.3056,4.3056,4.3056,4.3035,4.2766,4.2249,4.1545,4.1358,4.1131,4.0882,4.0882,4.0882,4.0862,4.0675,4.0613,4.0489,3.9578,3.9013,3.8765,0.0,0.0,0.0,0.0,0.0,2.2928,2.2928,2.2928,2.2928,2.2928,2.2928,2.2928,2.2928,2.2928,2.2928,2.2928,2.2928,2.2928,2.2928,2.2928,2.2928,2.2928,2.2928,2.2928,2.2928,2.2928,2.2928,2.3065,2.3747,2.4699,2.5898,2.6851,2.8312,2.9952,3.0296,3.075,3.1377,3.1377,3.1377,3.1377,3.1377,3.1763,3.2422,3.2422,3.2804,3.3418,3.3418,3.3418,3.3418,3.3418,3.3418,3.3516,3.4062,3.4453,3.4805,3.5391,3.5781,3.6084,3.6336,3.6674,3.7011,3.7348,3.777,3.8037,3.8191,3.8191,3.8191,3.8191,3.8191,3.8191,3.8191,3.8191,3.8191,3.8191,3.8667,3.9096,3.9426,4.0034,4.053,4.0841,4.0882,4.0882,4.0882,4.0986,4.1193,4.1545,4.169,4.1959,4.2414,4.2745,4.2973,4.3118,4.3428,4.3615,4.3615,4.3615,4.3615,4.3615,4.3615,4.3615,4.3594,4.3139,4.2559,4.1917,4.1669,4.1379,4.1048,4.0924,4.0882,4.0882,4.0882,4.0882,4.08,4.0158,3.962,3.9117,0.0,0.0,0.0,0.0,0.0,2.2928,2.2928,2.2928,2.2928,2.2928,2.2928,2.2928,2.2928,2.2928,2.2928,2.2928,2.2928,2.2928,2.2928,2.2928,2.2928,2.2928,2.2928,2.2928,2.2928,2.2928,2.3065,2.3406,2.4088,2.5172,2.6584,2.7302,2.8642,3.0378,3.0378,3.075,3.1377,3.1377,3.1377,3.1377,3.1377,3.1763,3.2422,3.2422,3.2804,3.3418,3.3418,3.3418,3.3418,3.3418,3.3418,3.3574,3.4414,3.4687,3.4863,3.5742,3.6016,3.6016,3.6016,3.6268,3.6586,3.7011,3.7348,3.7683,3.8104,3.8191,3.8191,3.8191,3.8191,3.8191,3.8191,3.8191,3.8191,3.8191,3.8937,3.9447,3.9468,4.0303,4.0862,4.0882,4.0882,4.0882,4.0882,4.1276,4.1545,4.1565,4.2053,4.2435,4.287,4.2911,4.3118,4.3573,4.3594,4.3615,4.3615,4.3615,4.3615,4.3615,4.3615,4.3615,4.3594,4.3139,4.2911,4.2828,4.1959,4.1565,4.1503,4.1069,4.0882,4.0882,4.0882,4.0882,4.0862,4.0841,4.0551,4.0054,0.0,0.0,0.0,0.0,0.0,0.0,2.2928,2.2928,2.2928,2.2928,2.2928,0.0,0.0,0.0,0.0,0.0,2.2928,2.2928,2.2928,2.2928,2.2928,2.2928,2.2928,2.2928,2.2928,2.3133,2.327,2.3406,2.436,2.5442,2.6651,2.7368,2.8642,3.0378,3.0378,3.075,3.1377,3.1377,3.1377,3.1377,3.1377,3.1763,3.2422,3.2422,3.2804,3.3418,0.0,3.3418,3.3418,3.3418,3.3418,3.3574,3.4434,3.4707,3.4863,3.5762,3.6016,3.6016,3.6016,3.6268,3.6519,3.6654,3.7146,3.7616,3.775,3.7971,3.8191,3.8191,3.8191,3.8191,3.8191,3.8191,3.8274,3.8585,3.9144,3.9571,3.9951,4.051,4.0882,4.0882,4.0882,4.0986,4.1296,4.1483,4.1762,4.2073,4.2435,4.289,4.3346,4.3387,4.3449,4.3615,4.3615,4.3615,4.3615,4.3615,4.3615,4.3615,4.3615,4.3615,4.3594,4.3449,4.3201,4.2911,4.26,4.2124,4.1545,4.14,4.1151,4.0882,4.0882,4.0882,4.0882,4.0882,4.0779,4.0572,0.0,0.0,0.0,0.0,0.0,0.0,0.0,0.0,0.0,0.0,0.0,0.0,0.0,0.0,0.0,0.0,0.0,2.2928,2.2928,2.2928,2.2928,2.2928,2.2996,2.3065,2.3065,2.3543,2.3884,2.3952,2.5037,2.6048,2.7035,2.7783,2.8922,3.0378,3.0378,3.075,3.1377,3.1377,3.1377,3.1377,3.1377,3.1763,3.2422,3.2422,3.2804,0.0,3.3418,3.3418,3.3418,3.3418,3.3418,3.3535,3.4258,3.4687,3.5098,3.5801,3.6016,3.6016,3.6016,3.6132,3.6336,3.6451,3.6856,3.7213,3.7415,3.7703,3.7971,3.7971,3.8104,3.8191,3.8191,3.8191,3.8336,3.8703,3.9158,3.9633,4.0088,4.0593,4.0882,4.0882,4.0882,4.1048,4.1524,4.171,4.2,4.2456,4.2911,4.3304,4.3594,4.3615,4.3615,4.3615,4.3615,4.3615,4.3615,4.3615,4.3615,4.3615,4.3615,4.3615,4.3615,4.3615,4.3449,4.3159,4.2994,4.2497,4.1866,4.1628,4.1296,4.0882,4.0882,4.0882,4.0882,4.0882,4.0882,4.082,0.0,0.0,0.0,0.0,0.0,0.0,0.0,0.0,0.0,0.0,0.0,0.0,0.0,0.0,0.0,0.0,0.0,0.0,2.2928,2.2928,2.2928,2.2928,2.327,2.3475,2.3475,2.4156,2.4699,2.5037,2.6115,2.7051,2.7766,2.8461,2.9399,3.0443,3.0443,3.0815,3.1377,3.1377,3.1377,3.1377,3.1377,3.1763,3.2422,3.2422,3.2804,3.3418,3.3418,3.3418,3.3418,3.3418,3.3437,3.3535,3.3965,3.4687,3.5469,3.5898,3.6016,3.6016,3.6016,3.6016,3.6084,3.6384,3.6519,3.6586,3.7011,3.7348,3.7549,3.7616,3.7904,3.8191,3.8191,3.8191,3.8336,3.8745,3.9179,3.9633,4.0199,4.0613,4.0882,4.0882,4.0903,4.1089,4.1545,4.2094,4.2476,4.2932,4.3366,4.3615,4.3615,4.3615,4.3615,4.3615,4.3615,4.3615,4.3615,4.3615,4.3615,4.3615,4.3615,4.3615,4.3615,4.3615,4.3615,4.3594,4.3139,4.2683,4.2302,4.1845,4.1317,4.0882,4.0882,4.0882,4.0882,4.0882,4.0882,4.082,0.0,0.0,0.0,0.0,0.0,0.0,0.0,0.0,0.0,0.0,0.0,0.0,0.0,0.0,0.0,0.0,0.0,0.0,2.2928,2.3133,2.327,2.327,2.3884,2.4224,2.4224,2.4916,2.5457,2.5846,2.6651,2.7517,2.851,2.8988,2.9774,3.075,3.075,3.1009,3.1377,3.1377,3.1377,3.1377,3.1377,3.1763,3.2422,3.2422,3.2804,3.3418,3.3418,3.3418,3.3418,3.3418,3.3633,3.3984,3.4414,3.4941,3.5469,3.5898,3.6016,3.6016,3.6016,3.6016,3.6016,3.6084,3.6336,3.6519,3.6654,3.6944,3.728,3.7549,3.7683,3.7837,3.8125,3.8191,3.844,3.9158,3.9385,3.9806,4.0593,4.08,4.0882,4.0882,4.1193,4.1565,4.2115,4.2497,4.2952,4.3408,4.3532,4.3615,4.3615,4.3615,4.3615,4.3615,4.3615,4.3615,4.3615,4.3615,4.3615,4.3615,4.3615,4.3615,4.3615,4.3615,4.3615,4.3594,4.3491,4.2994,4.2322,4.2198,4.1607,4.0882,4.0882,4.0882,4.0882,4.0882,4.0882,4.0862,0.0,0.0,0.0,0.0,0.0,0.0,0.0,0.0,0.0,0.0,0.0,0.0,0.0,0.0,0.0,0.0,0.0,0.0,0.0,2.3679,2.3952,2.4088,2.4834,2.524,2.5442,2.6115,2.6584,2.6769,2.7533,2.8263,2.9036,2.9364,3.0018,3.0879,3.0879,3.1073,3.1377,3.1377,3.1377,0.0,0.0,3.1763,3.2422,3.2422,3.2804,3.3418,3.3418,3.3418,3.3418,3.3418,3.3574,3.3887,3.4512,3.4883,3.5215,3.584,3.6016,3.6016,3.6016,3.6016,3.6016,3.6016,3.6152,3.6268,3.6268,3.6606,3.6944,3.728,3.7482,3.7683,3.8125,3.8191,3.8419,3.9055,3.9344,3.9785,4.0468,4.0758,4.0882,4.0882,4.1276,4.1752,4.2281,4.2663,4.3118,4.3573,4.3615,4.3615,4.3615,4.3615,4.3615,4.3615,4.3615,4.3615,4.3615,4.3615,4.3615,4.3615,4.3615,4.3615,4.3615,4.3615,4.3615,4.3615,4.3615,4.3201,4.2538,4.2331,4.1908,4.1151,4.0965,4.0882,4.0882,4.0882,4.0882,4.0882,0.0,0.0,0.0,0.0,0.0,0.0,0.0,0.0,0.0,0.0,2.2996,2.2928,0.0,0.0,0.0,0.0,0.0,0.0,0.0,0.0,2.4766,2.5105,2.5846,2.6383,2.6718,2.7451,2.7849,2.7915,2.8527,2.9053,2.9513,2.9822,3.0343,3.0944,3.0944,3.112,3.1377,3.1377,3.1377,3.1377,3.1442,3.1827,3.2422,0.0,3.2867,3.3418,3.3418,3.3418,3.3418,3.3418,3.3418,3.3574,3.4434,3.4707,3.4863,3.5762,3.6016,3.6016,3.6016,3.6016,3.6016,3.6016,3.6016,3.6016,3.6016,3.62,3.6519,3.7011,3.7348,3.7683,3.8104,3.8191,3.8336,3.8703,3.9158,3.9682,4.0137,4.0593,4.0882,4.0882,4.1338,4.1814,4.2302,4.2725,4.318,4.3573,4.3615,4.3615,4.3615,4.3615,4.3615,4.3615,4.3615,4.3615,4.3615,4.3615,4.3615,4.3615,4.3615,4.3615,4.3615,4.3615,4.3615,4.3615,4.3615,4.3346,4.289,4.2435,4.1979,4.1524,4.1048,4.0882,4.0882,4.0882,4.0882,4.0882,0.0,0.0,0.0,0.0,0.0,0.0,0.0,0.0,0.0,0.0,2.3475,2.2928,0.0,0.0,0.0,0.0,0.0,0.0,0.0,0.0,0.0,2.5898,2.6584,2.7185,2.7501,2.7981,2.8461,2.9036,2.9185,2.9709,3.062,3.0667,3.0926,3.1313,3.1313,3.1377,3.1377,3.1377,3.1377,3.1442,3.1717,3.2038,3.2422,3.274,0.0,0.0,3.3418,3.3418,3.3418,3.3418,3.3418,3.3574,3.4434,3.4707,3.4863,3.5762,3.6016,3.6016,3.6016,3.6016,3.6016,3.6016,3.6016,3.6016,3.6016,3.6016,3.6287,3.6944,3.7146,3.7415,3.8037,3.8191,3.8336,3.8703,3.9158,3.9633,4.0158,4.0593,4.0882,4.0882,4.1628,4.2239,4.2322,4.3014,4.3532,4.3594,4.3615,4.3615,4.3615,4.3615,4.3615,4.3615,4.3615,4.3615,4.3615,4.3615,4.3615,4.3615,4.3615,4.3615,4.3615,4.3615,4.3615,4.3615,4.3615,4.3346,4.289,4.2435,4.1979,4.1524,4.1048,4.0882,4.0882,4.0882,4.0882,4.0882,0.0,0.0,0.0,0.0,0.0,0.0,0.0,2.4563,2.497,2.5307,2.4752,2.4142,2.3747,2.402,2.436,0.0,0.0,0.0,0.0,0.0,0.0,0.0,0.0,0.0,2.9102,2.9316,2.9578,2.9839,0.0,3.023,3.0879,3.0879,3.1055,3.1377,3.1377,3.1377,3.1377,3.1377,3.1506,3.1653,3.1846,3.223,3.2676,0.0,0.0,0.0,3.3418,3.3418,3.3418,3.3418,3.3418,3.3535,3.418,3.4531,3.4824,3.5508,3.5859,3.6016,3.6016,3.6016,3.6016,3.6016,3.6016,3.6016,3.6016,3.6016,3.6219,3.6944,3.7079,3.7348,3.8037,3.8191,3.8253,3.846,3.9081,3.955,3.9778,4.0448,4.0965,4.1214,4.1908,4.2352,4.258,4.3221,4.3615,4.3615,4.3615,4.3615,4.3615,4.3615,4.3615,4.3615,4.3615,4.3615,4.3615,4.3615,4.3615,4.3615,4.3615,4.3615,4.3615,4.3615,4.3615,4.3615,4.3615,4.3491,4.3221,4.2538,4.2198,4.1855,4.1151,4.0882,4.0882,4.0882,4.0882,4.0882,0.0,0.0,0.0,0.0,0.0,0.0,2.5105,2.5697,2.6167,2.6501,2.6301,2.5965,2.5375,2.524,2.5375,0.0,0.0,0.0,0.0,0.0,0.0,0.0,0.0,0.0,3.0378,0.0,0.0,3.0508,3.0508,0.0,0.0,0.0,0.0,0.0,3.1506,3.1506,3.1506,3.1506,3.1653,0.0,0.0,3.2422,0.0,0.0,0.0,0.0,0.0,3.3418,3.3418,3.3418,3.3418,3.3476,3.3828,3.4297,3.4785,3.5254,3.5684,3.6016,3.6016,3.6016,3.6016,3.6016,3.6016,3.6016,3.6016,3.6016,3.6219,3.6944,3.7079,3.7348,3.8037,3.8191,3.8191,3.8191,3.8957,3.9468,3.9468,4.0303,4.1048,4.1503,4.1979,4.2435,4.287,4.3346,4.3615,4.3615,4.3615,4.3615,4.3615,4.3615,4.3615,4.3615,4.3615,4.3615,4.3615,4.3615,4.3615,4.3615,4.3615,4.3615,4.3615,4.3615,4.3615,4.3615,4.3615,4.3615,4.3532,4.2642,4.2322,4.2239,4.1234,4.0882,4.0882,4.0882,4.0882,4.0882,0.0,0.0,0.0,0.0,0.0,0.0,2.5913,2.6835,2.7634,2.7981,2.7981,2.7915,2.7849,2.6784,2.61,0.0,0.0,0.0,0.0,0.0,0.0,0.0,0.0,0.0,0.0,0.0,0.0,3.0879,3.0879,0.0,0.0,0.0,0.0,0.0,0.0,3.1846,3.1846,3.1846,0.0,0.0,0.0,0.0,0.0,0.0,0.0,0.0,0.0,3.3418,3.3418,3.3418,3.3418,3.3437,3.3476,3.4043,3.4785,3.5254,3.5684,3.6016,3.6016,3.6016,3.6016,3.6016,3.6016,3.6016,3.6016,3.6016,3.6219,3.6944,3.7079,3.7348,3.8037,3.8191,3.8191,3.8191,3.8957,3.9468,3.9468,4.0303,4.1048,4.1503,4.1979,4.2435,4.287,4.3346,4.3615,4.3615,4.3615,4.3615,4.3615,4.3615,4.3615,4.3615,4.3615,4.3615,4.3615,4.3615,4.3615,4.3615,4.3615,4.3615,4.3615,4.3615,4.3615,4.3615,4.3615,4.3615,4.3532,4.2642,4.2322,4.2239,4.1234,4.0882,4.0882,4.0882,4.0882,4.0882,0.0,0.0,0.0,0.0,0.0,0.0,2.7567,2.8427,2.9102,2.9513,2.9299,2.9168,2.9168,2.8691,2.823,2.7981,2.8378,0.0,0.0,0.0,0.0,0.0,0.0,0.0,0.0,0.0,3.1073,3.1184,3.1184,0.0,0.0,0.0,0.0,0.0,0.0,3.2166,3.2166,3.2166,0.0,0.0,0.0,0.0,0.0,0.0,0.0,0.0,0.0,0.0,3.3418,3.3418,3.3418,3.3418,3.3418,3.4004,3.4726,3.4922,3.5469,3.6016,3.6016,3.6016,3.6016,3.6016,3.6016,3.6016,3.6016,3.6016,3.6152,3.6674,3.6944,3.728,3.777,3.8037,3.8191,3.8191,3.8957,3.9468,3.9468,4.0303,4.1151,4.197,4.2219,4.2538,4.3263,4.3511,4.3615,4.3615,4.3615,4.3615,4.3615,4.3615,4.3615,4.3615,4.3615,4.3615,4.3615,4.3615,4.3615,4.3615,4.3615,4.3615,4.3615,4.3615,4.3615,4.3615,4.3615,4.3615,4.3532,4.2642,4.2322,4.2239,4.1234,4.0882,4.0882,4.0882,4.0882,4.0882,0.0,0.0,0.0,0.0,0.0,2.7965,2.8839,2.9626,3.0213,3.049,3.0278,3.0148,3.0148,3.0018,2.9822,2.943,2.9561,0.0,0.0,0.0,0.0,0.0,0.0,0.0,0.0,0.0,3.1377,3.1377,3.1506,3.1653,0.0,0.0,3.2294,3.2549,0.0,0.0,0.0,0.0,0.0,0.0,0.0,0.0,0.0,0.0,0.0,0.0,0.0,0.0,0.0,0.0,0.0,3.3418,3.3418,3.4004,3.4707,3.4707,3.5332,3.6016,3.6016,3.6016,3.6016,3.6016,3.6016,3.6016,3.6016,3.6016,3.6084,3.6451,3.6789,3.7213,3.7549,3.7904,3.8191,3.8191,3.8957,3.9468,3.9468,4.0303,4.1214,4.2219,4.2322,4.2621,4.3532,4.3615,4.3615,4.3615,4.3615,4.3615,4.3615,4.3615,4.3615,4.3615,4.3615,4.3615,4.3615,4.3615,4.3615,4.3615,4.3615,4.3615,4.3615,4.3615,4.3615,4.3615,4.3615,4.3615,4.3532,4.2642,4.2322,4.2239,4.1234,4.0882,4.0882,4.0882,4.0882,4.0882,0.0,0.0,0.0,0.0,0.0,2.8905,2.9233,3.023,3.0879,3.0879,3.0879,3.0879,3.0879,3.0555,3.049,3.0879,3.0555,0.0,0.0,0.0,0.0,0.0,0.0,0.0,0.0,0.0,3.1377,3.1377,3.1717,3.1929,3.191,3.2613,3.2867,3.2912,0.0,0.0,0.0,0.0,0.0,0.0,0.0,0.0,3.3418,0.0,0.0,0.0,0.0,0.0,0.0,0.0,0.0,0.0,0.0,3.4004,3.4707,3.4707,3.5332,3.6016,3.6016,3.6016,3.6016,3.6016,3.6016,3.6016,3.6016,3.6016,3.6084,3.6451,3.6789,3.7213,3.7549,3.7904,3.8191,3.8191,3.8957,3.9468,3.9468,4.0303,4.1214,4.2219,4.2322,4.2621,4.3532,4.3615,4.3615,4.3615,4.3615,4.3615,4.3615,4.3615,4.3615,4.3615,4.3615,4.3615,4.3615,4.3615,4.3615,4.3615,4.3615,4.3615,4.3615,4.3615,4.3615,4.3615,4.3615,4.3615,4.3532,4.2642,4.2322,4.2239,4.1234,4.0882,4.0882,4.0882,4.0882,4.0882,0.0,0.0,0.0,0.0,0.0,0.0,3.0361,3.0861,3.1249,3.1249,3.1249,3.1249,3.1249,3.112,3.112,3.1249,3.0944,0.0,0.0,0.0,0.0,0.0,0.0,0.0,0.0,3.1377,3.1506,3.1717,3.1846,3.2102,3.2613,3.2804,3.3038,3.3228,3.3228,3.3228,0.0,0.0,0.0,0.0,0.0,3.3418,3.3418,0.0,0.0,0.0,0.0,0.0,0.0,0.0,0.0,0.0,0.0,0.0,0.0,3.5078,3.5566,3.6016,3.6016,3.6016,3.6016,3.6016,3.6016,3.6016,3.6016,3.6016,3.6016,3.6152,3.6674,3.7146,3.7213,3.777,3.8191,3.8191,3.8957,3.9468,3.9468,4.0303,4.1214,4.2219,4.2807,4.3304,4.3573,4.3615,4.3615,4.3615,4.3615,4.3615,4.3615,4.3615,4.3615,4.3615,4.3615,4.3615,4.3615,4.3615,4.3615,4.3615,4.3615,4.3615,4.3615,4.3615,4.3615,4.3615,4.3615,4.3615,4.3532,4.2642,4.2322,4.2239,4.1234,4.0882,4.0882,4.0882,4.0882,4.0882,0.0,0.0,0.0,0.0,0.0,0.0,3.0815,3.1184,3.1377,3.1377,3.1377,3.1377,3.1377,3.1377,3.1377,3.1377,3.1184,0.0,0.0,0.0,0.0,0.0,0.0,0.0,3.1377,3.1506,3.1717,3.1929,3.2166,3.2485,3.2912,3.3038,3.3165,3.3418,3.3418,3.3418,0.0,0.0,0.0,0.0,3.3418,3.3418,3.3418,0.0,0.0,0.0,0.0,0.0,0.0,0.0,0.0,0.0,0.0,0.0,0.0,0.0,3.5684,3.6016,3.6016,3.6016,3.6016,3.6016,3.6016,3.6016,3.6016,3.6016,3.6016,3.6016,3.6471,3.6944,3.7079,3.7569,3.8037,3.8191,3.8957,3.9468,3.9468,4.0303,4.1214,4.2219,4.3056,4.3615,4.3615,4.3615,4.3615,4.3615,4.3615,4.3615,4.3615,4.3615,4.3615,4.3615,4.3615,4.3615,4.3615,4.3615,4.3615,4.3615,4.3615,4.3615,4.3615,4.3615,4.3615,4.3615,4.3615,4.3615,0.0,4.2642,4.2322,4.2239,4.1234,4.0882,4.0882,4.0882,4.0882,4.0882,0.0,0.0,0.0,0.0,0.0,0.0,0.0,3.1184,3.1377,3.1377,3.1377,3.1377,3.1377,3.1377,3.1377,3.1377,3.1377,0.0,0.0,0.0,0.0,0.0,0.0,0.0,3.1442,3.1717,3.1929,3.1974,3.2613,3.2912,3.2912,3.3228,3.3418,3.3418,3.3418,3.3418,3.3418,3.3418,3.3418,3.3418,3.3418,3.3418,0.0,0.0,0.0,0.0,0.0,0.0,0.0,0.0,0.0,0.0,0.0,0.0,0.0,0.0,0.0,0.0,0.0,3.6016,3.6016,3.6016,3.6016,3.6016,3.6016,3.6016,0.0,3.6016,3.6268,3.6586,3.7011,3.7348,3.775,3.8104,3.8957,3.9468,3.9468,4.0365,4.1296,4.2239,4.3056,4.3615,4.3615,4.3615,4.3615,4.3615,4.3615,4.3615,4.3615,4.3615,4.3615,4.3615,4.3615,4.3615,4.3615,4.3615,4.3615,4.3615,4.3615,4.3615,4.3615,4.3615,4.3615,4.3615,4.3615,4.3615,4.3532,4.2642,4.2322,4.2239,4.1234,4.0882,4.0882,4.0882,4.0882,4.0882,0.0,0.0,0.0,0.0,0.0,0.0,0.0,0.0,0.0,0.0,3.1377,3.1377,3.1377,3.1377,3.1377,0.0,0.0,0.0,0.0,0.0,0.0,0.0,0.0,0.0,3.1782,3.1846,3.2166,3.2676,3.2804,3.3038,3.3292,3.3355,3.3418,3.3418,3.3418,3.3418,3.3418,3.3418,3.3418,3.3418,3.3418,3.3418,0.0,0.0,0.0,0.0,3.3418,3.3418,0.0,0.0,0.0,0.0,0.0,0.0,0.0,0.0,3.5937,3.6016,3.6016,0.0,3.6016,3.6016,3.6016,3.6016,0.0,3.6016,3.6016,3.6016,3.6268,3.6586,3.7011,3.7348,3.775,3.8104,3.8957,3.9468,3.9468,4.0924,4.2094,4.2302,4.3056,4.3615,4.3615,4.3615,4.3615,4.3615,4.3615,4.3615,4.3615,4.3615,4.3615,4.3615,4.3615,4.3615,4.3615,4.3615,4.3615,4.3615,4.3615,4.3615,4.3615,4.3615,4.3615,4.3615,4.3615,4.3615,4.3532,4.2642,4.2322,4.2239,4.1234,4.0882,4.0882,4.0882,4.0882,4.0882,0.0,0.0,0.0,0.0,0.0,0.0,0.0,0.0,0.0,0.0,3.1377,3.1377,3.1377,3.1377,3.1377,0.0,0.0,0.0,0.0,0.0,0.0,0.0,0.0,3.1589,3.191,3.2038,3.2358,3.2912,3.3038,3.3228,3.3418,3.3418,3.3418,3.3418,3.3418,3.3418,3.3418,3.3418,3.3418,3.3418,3.3418,0.0,0.0,0.0,0.0,0.0,3.3418,3.3418,0.0,3.3418,3.3418,3.3574,0.0,0.0,0.0,0.0,3.6016,3.6016,3.6016,3.6016,3.6016,3.6016,3.6016,3.6016,3.6016,3.6016,3.6016,3.6016,3.6132,3.6471,3.7011,3.728,3.7549,3.8125,3.8957,3.9682,4.0096,4.1358,4.2322,4.2322,4.3056,4.3615,4.3615,4.3615,4.3615,4.3615,4.3615,4.3615,4.3615,4.3615,4.3615,4.3615,4.3615,4.3615,4.3615,4.3615,4.3615,4.3615,4.3615,4.3615,4.3615,4.3615,4.3615,4.3615,4.3615,4.3615,4.3532,4.2642,4.2322,4.2239,4.1234,4.0882,4.0882,4.0882,4.0882,4.0882,0.0,0.0,0.0,0.0,0.0,0.0,0.0,0.0,0.0,0.0,0.0,0.0,0.0,0.0,0.0,0.0,0.0,0.0,0.0,0.0,0.0,0.0,3.1506,3.1653,3.1974,3.2294,3.2613,3.2975,3.3228,3.3418,3.3418,3.3418,3.3418,3.3418,3.3418,3.3418,3.3418,3.3418,3.3418,3.3418,3.3418,0.0,0.0,0.0,0.0,0.0,0.0,0.0,0.0,3.3418,3.3418,3.3555,3.4355,0.0,0.0,0.0,0.0,0.0,3.6016,3.6016,3.6016,3.6016,3.6016,3.6016,3.6016,3.6016,3.6016,3.6016,3.6016,3.6219,3.6944,3.7079,3.7348,3.8058,3.8957,3.9847,4.0758,4.1669,4.2322,4.2322,4.3056,4.3615,4.3615,4.3615,4.3615,4.3615,4.3615,4.3615,4.3615,4.3615,4.3615,4.3615,4.3615,4.3615,4.3615,4.3615,4.3615,4.3615,4.3615,4.3615,4.3615,4.3615,4.3615,4.3615,4.3615,4.3615,4.3532,4.2642,4.2322,4.2239,4.1234,4.0882,4.0882,4.0882,4.0882,4.0882,0.0,0.0,0.0,0.0,0.0,0.0,0.0,0.0,0.0,0.0,0.0,0.0,0.0,0.0,0.0,0.0,0.0,0.0,0.0,0.0,0.0,3.1782,3.1846,3.1974,3.2294,3.2676,3.2994,3.3292,3.3355,3.3418,3.3418,3.3418,3.3418,3.3418,3.3418,3.3418,3.3418,3.3418,3.3418,3.3418,3.3418,0.0,0.0,0.0,0.0,0.0,0.0,0.0,0.0,3.3418,3.3418,3.3516,3.4004,0.0,0.0,0.0,0.0,0.0,3.6016,3.6016,3.6016,3.6016,3.6016,3.6016,3.6016,3.6016,3.6016,3.6016,3.6016,3.6219,3.6944,3.7079,3.7348,3.8058,3.8957,3.9847,4.0758,4.1669,4.2322,4.2322,4.3056,4.3615,4.3615,4.3615,4.3615,4.3615,4.3615,4.3615,4.3615,4.3615,4.3615,4.3615,4.3615,4.3615,4.3615,4.3615,4.3615,4.3615,4.3615,4.3615,4.3615,4.3615,4.3615,4.3615,4.3615,4.3615,4.3532,4.2642,4.2322,4.2239,4.1234,4.0882,4.0882,4.0882,4.0882,4.0882,0.0,0.0,0.0,0.0,0.0,0.0,0.0,0.0,0.0,0.0,0.0,0.0,0.0,0.0,0.0,0.0,0.0,0.0,0.0,0.0,3.1717,3.191,3.223,3.2485,3.2676,3.2804,3.3038,3.3418,3.3418,3.3418,3.3418,3.3418,3.3418,3.3418,3.3418,3.3418,3.3418,3.3418,3.3418,3.3418,0.0,0.0,0.0,0.0,0.0,0.0,0.0,0.0,0.0,0.0,3.3418,3.3496,3.3945,0.0,0.0,0.0,0.0,0.0,3.5957,3.6016,3.6016,3.6016,3.6016,3.6016,3.6016,3.6016,3.6016,3.6016,3.6016,3.6219,3.6944,3.7079,3.751,3.8697,3.9475,4.0137,4.0779,4.1669,4.2322,4.2322,4.3056,4.3615,4.3615,4.3615,4.3615,4.3615,4.3615,4.3615,4.3615,4.3615,4.3615,4.3615,4.3615,4.3615,4.3615,4.3615,4.3615,4.3615,4.3615,4.3615,4.3615,4.3615,4.3615,4.3615,4.3615,4.3615,4.3532,4.2642,4.2322,4.2239,4.1234,4.0882,4.0882,4.0882,4.0882,4.0882,0.0,0.0,0.0,0.0,0.0,0.0,0.0,0.0,0.0,0.0,0.0,0.0,0.0,0.0,0.0,0.0,0.0,0.0,0.0,3.1782,3.1974,3.2102,3.2613,3.2912,3.2912,3.2975,3.3165,3.3418,3.3418,3.3418,3.3418,3.3418,3.3418,3.3418,3.3418,3.3418,3.3418,3.3418,3.3418,3.3418,0.0,0.0,0.0,0.0,0.0,0.0,0.0,0.0,0.0,0.0,0.0,0.0,0.0,0.0,0.0,3.4883,3.5156,3.5293,3.5625,3.5801,3.5879,3.5879,3.5937,3.6016,3.6016,3.6016,3.6016,3.6016,3.6016,3.6219,3.6944,3.7294,3.7977,3.9275,3.986,4.0386,4.082,4.1669,4.2322,4.2322,4.3056,4.3615,4.3615,4.3615,4.3615,4.3615,4.3615,4.3615,4.3615,4.3615,4.3615,4.3615,4.3615,4.3615,4.3615,4.3615,4.3615,4.3615,4.3615,4.3615,4.3615,4.3615,4.3615,4.3615,4.3615,4.3615,4.3532,4.2642,4.2322,4.2239,4.1234,4.0882,4.0882,4.0882,4.0882,4.0882,0.0,0.0,0.0,0.0,0.0,0.0,0.0,0.0,0.0,0.0,0.0,0.0,0.0,0.0,0.0,0.0,0.0,0.0,0.0,3.1929,3.2166,3.2804,3.2867,3.2912,3.2912,3.3165,3.3355,3.3418,3.3418,3.3418,3.3418,3.3418,3.3418,3.3418,3.3418,3.3418,3.3418,3.3418,3.3418,3.3418,3.3418,0.0,0.0,0.0,0.0,0.0,0.0,0.0,0.0,0.0,0.0,0.0,0.0,0.0,3.4082,3.4141,3.4453,3.4766,3.4785,3.5117,3.543,3.543,3.5723,3.6016,3.6016,3.6016,3.6016,3.6016,3.6016,3.6219,3.6944,3.7963,3.8889,3.9385,3.986,4.0386,4.082,4.1669,4.2322,4.2322,4.3056,4.3615,4.3615,4.3615,4.3615,4.3615,4.3615,4.3615,4.3615,4.3615,4.3615,4.3615,4.3615,4.3615,4.3615,4.3615,4.3615,4.3615,4.3615,4.3615,4.3615,4.3615,4.3615,4.3615,4.3615,4.3615,4.3532,4.2642,4.2322,4.2239,4.1234,4.0882,4.0882,4.0882,4.0882,4.0882,0.0,0.0,0.0,0.0,0.0,0.0,0.0,0.0,0.0,0.0,0.0,0.0,0.0,0.0,0.0,0.0,0.0,0.0,0.0,3.2294,3.2613,3.2867,3.3102,3.3228,3.3228,3.3355,3.3418,3.3418,3.3418,3.3418,3.3418,3.3418,3.3418,3.3418,3.3418,3.3418,3.3418,3.3418,3.3418,3.3418,3.3418,3.3418,0.0,0.0,0.0,0.0,0.0,0.0,0.0,0.0,3.3418,3.3418,3.3418,3.3535,3.373,3.3984,3.418,3.4375,3.4629,3.4824,3.4961,3.4961,3.5293,3.5703,3.5957,3.6016,3.6016,3.6016,3.6016,3.6298,3.7393,3.8275,3.9158,3.9798,4.0323,4.0696,4.0862,4.1669,4.2322,4.2322,4.3056,4.3615,4.3615,4.3615,4.3615,4.3615,4.3615,4.3615,4.3615,4.3615,4.3615,4.3615,4.3615,4.3615,4.3615,4.3615,4.3615,4.3615,4.3615,4.3615,4.3615,4.3615,4.3615,4.3615,4.3615,4.3615,4.3532,4.2642,4.2322,4.2239,4.1234,4.0882,4.0882,4.0882,4.0882,4.0882,0.0,0.0,0.0,0.0,0.0,0.0,0.0,0.0,0.0,0.0,0.0,0.0,0.0,0.0,0.0,0.0,0.0,0.0,3.223,3.2676,3.2912,3.3038,3.3292,3.3418,3.3418,3.3418,3.3418,3.3418,3.3418,3.3418,3.3418,3.3418,3.3418,3.3418,3.3418,3.3418,3.3418,3.3418,3.3418,3.3418,3.3418,3.3418,0.0,0.0,0.0,0.0,0.0,0.0,0.0,0.0,3.3418,3.3418,3.3418,3.3418,3.3476,3.3769,3.3867,3.3926,3.4219,3.4394,3.4492,3.4492,3.4941,3.5469,3.5762,3.5918,3.6016,3.6016,3.6219,3.661,3.7594,3.8539,3.9404,4.0067,4.0572,4.0882,4.0882,4.1545,4.2156,4.2322,4.2932,4.3449,4.3594,4.3615,4.3615,4.3615,4.3615,4.3615,4.3615,4.3615,4.3615,4.3615,4.3615,4.3615,4.3615,4.3615,4.3615,4.3615,4.3615,4.3615,4.3615,4.3615,4.3615,4.3615,4.3615,4.3615,4.3532,4.2642,4.2156,4.1752,4.1131,4.0882,4.0882,4.0882,4.0882,4.0882,0.0,0.0,0.0,0.0,0.0,0.0,0.0,0.0,3.1377,3.1377,0.0,0.0,0.0,0.0,0.0,0.0,0.0,0.0,3.2848,3.2912,3.3038,3.3355,3.3418,3.3418,3.3418,3.3418,3.3418,3.3418,3.3418,3.3418,3.3418,3.3418,3.3418,3.3418,3.3418,3.3418,3.3418,3.3418,3.3418,3.3418,3.3418,3.3418,3.3418,0.0,0.0,0.0,0.0,0.0,0.0,0.0,3.3418,3.3418,3.3418,3.3418,3.3418,3.3418,3.3418,3.3418,3.3418,3.373,3.4062,3.4062,3.4726,3.5391,3.5391,3.5723,3.6016,3.6016,3.6626,3.7219,3.7751,3.8746,3.9633,4.0158,4.0593,4.0882,4.0882,4.1276,4.1731,4.2281,4.2642,4.3097,4.3573,4.3615,4.3615,4.3615,4.3615,4.3615,4.3615,4.3615,4.3615,4.3615,4.3615,4.3615,4.3615,4.3615,4.3615,4.3615,4.3615,4.3615,4.3615,4.3615,4.3615,4.3615,4.3615,4.3615,4.3532,4.2642,4.1783,4.0882,4.0882,4.0882,4.0882,4.0882,4.0882,4.0882,0.0,0.0,0.0,0.0,0.0,0.0,0.0,0.0,3.1377,3.1377,3.1589,0.0,0.0,0.0,0.0,0.0,0.0,0.0,3.2912,3.3102,3.3292,3.3418,3.3418,3.3418,3.3418,3.3418,3.3418,3.3418,3.3418,3.3418,3.3418,3.3418,3.3418,3.3418,3.3418,3.3418,3.3418,3.3418,3.3418,3.3418,3.3418,3.3418,3.3418,0.0,0.0,0.0,0.0,0.0,0.0,0.0,0.0,0.0,3.3418,3.3418,3.3418,3.3418,3.3418,3.3418,3.3418,3.3516,3.3613,3.3613,3.4258,3.4902,3.4902,3.5488,3.6016,3.6016,3.666,3.7408,3.8145,3.9007,3.9877,4.0613,4.08,4.0882,4.0882,4.1276,4.1731,4.2281,4.2642,4.3097,4.3573,4.3615,4.3615,4.3615,4.3615,4.3615,4.3615,4.3615,4.3615,4.3615,4.3615,4.3615,4.3615,4.3615,4.3615,4.3615,4.3615,4.3615,4.3615,4.3615,4.3615,4.3615,4.3615,4.3615,4.3532,4.2642,4.1783,4.0882,4.0882,4.0882,4.0882,4.0882,4.0882,4.0882,0.0,0.0,0.0,0.0,0.0,0.0,0.0,0.0,3.1763,3.1763,3.1974,3.2102,0.0,0.0,0.0,0.0,0.0,0.0,3.3102,3.3292,3.3418,3.3418,3.3418,3.3418,3.3418,3.3418,3.3418,3.3418,3.3418,3.3418,3.3418,3.3418,3.3418,3.3418,3.3418,3.3418,3.3418,3.3418,3.3418,3.3418,3.3418,3.3418,3.3418,0.0,0.0,0.0,0.0,0.0,0.0,0.0,0.0,0.0,3.3418,3.3418,3.3418,3.3418,3.3418,3.3418,3.3418,3.3418,3.3418,3.3418,3.4062,3.4785,3.5137,3.5644,3.6016,3.6016,3.6759,3.7677,3.8346,3.9281,4.0083,4.08,4.0882,4.0882,4.0882,4.111,4.1462,4.2011,4.2373,4.2828,4.3284,4.3511,4.3615,4.3615,4.3615,4.3615,4.3615,4.3615,4.3615,4.3615,4.3615,4.3615,4.3615,4.3615,4.3615,4.3615,4.3615,4.3615,4.3615,4.3615,4.3615,4.3615,4.3615,4.3408,4.3035,4.2476,4.1783,4.0882,4.0882,4.0882,4.0882,4.0882,4.0882,4.0882,0.0,0.0,3.1442,3.1442,0.0,0.0,0.0,0.0,0.0,0.0,3.2422,3.2422,0.0,0.0,0.0,0.0,0.0,0.0,0.0,3.3418,3.3418,3.3418,3.3418,3.3418,3.3418,3.3418,3.3418,3.3418,3.3418,3.3418,3.3418,3.3418,3.3418,3.3418,3.3418,3.3418,3.3418,3.3418,3.3418,3.3418,3.3418,3.3418,3.3418,3.3418,0.0,0.0,0.0,0.0,0.0,0.0,0.0,0.0,3.3418,3.3418,3.3418,3.3418,3.3418,3.3418,3.3418,3.3418,3.3437,3.3476,3.4121,3.498,3.582,3.6016,3.6035,3.6074,3.6955,3.7944,3.8476,3.9482,4.0356,4.08,4.0882,4.0882,4.0882,4.0882,4.1048,4.1503,4.1979,4.2435,4.287,4.3346,4.3615,4.3615,4.3615,4.3615,4.3615,4.3615,4.3615,4.3615,4.3615,4.3615,4.3615,4.3615,4.3615,4.3615,4.3615,4.3615,4.3615,4.3615,4.3615,4.3615,4.3615,4.3097,4.2322,4.2322,4.1783,4.0882,4.0882,4.0882,4.0882,4.0882,4.0882,4.0882,0.0,0.0,3.1782,3.1782,0.0,0.0,0.0,0.0,0.0,0.0,0.0,0.0,0.0,0.0,0.0,0.0,0.0,0.0,0.0,3.3418,3.3418,3.3418,3.3418,3.3418,3.3418,3.3418,3.3418,3.3418,3.3418,3.3418,3.3418,3.3418,3.3418,3.3418,3.3418,3.3418,3.3418,3.3418,3.3418,3.3418,3.3418,3.3418,3.3418,3.3418,3.3418,0.0,0.0,0.0,0.0,0.0,0.0,0.0,3.3418,3.3418,3.3418,3.3418,3.3418,3.3418,3.3418,3.3418,3.3496,3.3848,3.459,3.5371,3.5898,3.6016,3.6113,3.6465,3.7292,3.8077,3.8849,3.9648,4.0422,4.0862,4.0882,4.0882,4.0882,4.0882,4.1048,4.1503,4.1979,4.2435,4.287,4.3346,4.3615,4.3615,4.3615,4.3615,4.3615,4.3615,4.3615,4.3615,4.3615,4.3615,4.3615,4.3615,4.3615,4.3615,4.3615,4.3615,4.3615,4.3615,4.3615,4.3615,4.3615,4.3097,4.2322,4.2322,4.1783,4.0882,4.0882,4.0882,4.0882,4.0882,4.0882,4.0882,0.0,0.0,0.0,0.0,0.0,0.0,0.0,0.0,0.0,0.0,0.0,0.0,0.0,0.0,0.0,0.0,0.0,0.0,0.0,3.3418,3.3418,3.3418,3.3418,3.3418,3.3418,3.3418,3.3418,3.3418,3.3418,3.3418,3.3418,3.3418,3.3418,3.3418,3.3418,3.3418,3.3418,3.3418,3.3418,3.3418,3.3418,3.3418,3.3418,3.3418,3.3418,3.3418,3.3418,0.0,0.0,0.0,0.0,0.0,0.0,0.0,3.3418,3.3418,3.3418,3.3418,3.3418,3.3418,3.3574,3.4219,3.4726,3.5234,3.5879,3.6016,3.6211,3.6836,3.7499,3.8146,3.8919,3.979,4.0453,4.0811,4.0882,4.0882,4.0882,4.0882,4.0965,4.1214,4.1721,4.2021,4.2249,4.289,4.3284,4.3284,4.3491,4.3615,4.3615,4.3615,4.3615,4.3615,4.3615,4.3615,4.3615,4.3615,4.3615,4.3615,4.3615,4.3615,4.3615,4.3615,4.3615,4.3615,4.3615,4.3097,4.2322,4.2322,4.1783,4.0882,4.0882,4.0882,4.0882,4.0882,4.0882,4.0882,0.0,0.0,0.0,0.0,0.0,0.0,0.0,0.0,0.0,0.0,0.0,0.0,0.0,0.0,0.0,0.0,0.0,0.0,0.0,0.0,0.0,3.3418,3.3418,3.3418,3.3418,3.3418,3.3418,3.3418,3.3418,3.3418,3.3418,3.3418,3.3418,3.3418,3.3418,3.3418,3.3418,3.3418,3.3418,3.3418,3.3418,3.3418,3.3418,3.3418,3.3418,3.3418,3.3418,3.3418,3.3418,3.3418,0.0,0.0,0.0,0.0,3.3418,3.3418,3.3418,3.3418,3.3418,3.3535,3.3809,3.4531,3.4805,3.5117,3.5859,3.6016,3.625,3.7031,3.7547,3.8096,3.902,3.9779,4.0382,4.0811,4.0882,4.0882,4.0882,4.0882,4.0882,4.0882,4.1276,4.1565,4.1565,4.2311,4.2807,4.2807,4.3159,4.3408,4.3491,4.3491,4.3532,4.3615,4.3615,4.3573,4.3491,4.3573,4.3573,4.3491,4.3573,4.3615,4.3615,4.3615,4.3615,4.3615,4.3532,4.3014,4.2322,4.2239,4.1648,4.0882,4.0882,4.0882,4.0882,4.0882,4.0882,4.0882,0.0,0.0,0.0,0.0,0.0,0.0,0.0,0.0,0.0,0.0,3.3418,3.3418,0.0,0.0,0.0,0.0,0.0,0.0,3.3418,0.0,0.0,3.3418,3.3418,3.3418,3.3418,3.3418,3.3418,3.3418,3.3418,3.3418,3.3418,3.3418,3.3418,3.3418,3.3418,3.3418,3.3418,3.3418,3.3418,3.3418,3.3418,3.3418,3.3418,3.3418,3.3418,3.3418,3.3418,3.3418,3.3418,3.3418,3.3418,0.0,0.0,0.0,3.3418,3.3418,3.3418,3.3418,3.3418,3.3965,3.4551,3.4668,3.5273,3.5879,3.5996,3.6016,3.6152,3.666,3.7121,3.7822,3.9329,3.9674,4.0002,4.0811,4.0882,4.0882,4.0882,4.0882,4.0882,4.0882,4.1276,4.1565,4.1565,4.2042,4.2352,4.2352,4.2414,4.26,4.2994,4.3014,4.3201,4.3594,4.3615,4.3408,4.3014,4.3408,4.3408,4.3014,4.3428,4.3615,4.3615,4.3615,4.3615,4.3594,4.318,4.2725,4.2302,4.1814,4.1338,4.0882,4.0882,4.0882,4.0882,4.0882,4.0882,4.0882,0.0,0.0,0.0,0.0,0.0,0.0,0.0,0.0,0.0,0.0,0.0,3.3418,0.0,0.0,0.0,3.3418,3.3418,3.3418,3.3418,3.3418,3.3418,3.3418,3.3418,3.3418,3.3418,3.3418,3.3418,3.3418,3.3418,3.3418,3.3418,3.3418,3.3418,3.3418,3.3418,3.3418,3.3418,3.3418,3.3418,3.3418,3.3418,3.3418,3.3418,3.3418,3.3418,3.3418,3.3418,3.3418,3.3418,3.3418,3.3418,3.3418,3.3418,0.0,0.0,0.0,3.3418,3.3418,3.3418,3.3867,3.4394,3.4648,3.5195,3.5723,3.5976,3.6016,3.6152,3.6582,3.7221,3.7995,3.916,3.9697,4.0238,4.0811,4.0882,4.0882,4.0882,4.0882,4.0882,4.0882,4.1048,4.1172,4.1172,4.1607,4.1949,4.1949,4.2177,4.2352,4.2538,4.2538,4.2642,4.2849,4.2849,4.2745,4.2559,4.2994,4.3263,4.3304,4.3511,4.3615,4.3615,4.3615,4.3615,4.3594,4.3118,4.2663,4.2302,4.1752,4.1296,4.0882,4.0882,4.0882,4.0882,4.0882,4.0882,4.0882,0.0,0.0,0.0,0.0,0.0,0.0,0.0,0.0,0.0,0.0,0.0,0.0,0.0,0.0,0.0,0.0,3.3418,3.3418,3.3418,3.3418,3.3418,3.3418,3.3418,3.3418,3.3418,3.3418,3.3418,3.3418,3.3418,3.3418,3.3418,3.3418,3.3418,3.3418,3.3418,3.3418,3.3418,3.3418,3.3418,3.3418,3.3418,3.3418,3.3418,3.3418,3.3418,3.3418,3.3418,3.3418,3.3418,3.3418,3.3418,3.3418,3.3418,3.3418,0.0,0.0,0.0,3.3418,3.3418,3.3828,3.4297,3.4629,3.5137,3.5625,3.5937,3.6084,3.623,3.6563,3.7391,3.8197,3.897,3.9729,4.0453,4.0811,4.0882,4.0882,4.0882,4.0882,4.0882,4.0882,4.0882,4.0882,4.0882,4.1193,4.14,4.14,4.1783,4.2032,4.2156,4.2156,4.2219,4.2322,4.2322,4.2281,4.2156,4.2518,4.2973,4.3428,4.3553,4.3615,4.3615,4.3491,4.3428,4.3408,4.2952,4.2497,4.2115,4.1659,4.1193,4.0882,4.0882,4.0882,4.0882,4.0882,4.0882,4.0882,0.0,0.0,0.0,0.0,0.0,0.0,0.0,0.0,0.0,0.0,0.0,3.3418,3.3418,3.3418,3.3418,3.3418,3.3418,3.3418,3.3418,3.3418,3.3418,3.3418,3.3418,0.0,3.3418,3.3418,3.3418,3.3418,3.3418,3.3418,3.3418,3.3418,3.3418,3.3418,3.3418,3.3418,3.3418,3.3418,3.3418,3.3418,3.3418,3.3418,3.3418,3.3418,3.3418,3.3418,3.3418,3.3418,3.3418,3.3418,3.3418,3.3418,3.3418,3.3418,3.3418,0.0,0.0,0.0,3.3418,3.4023,3.4668,3.4687,3.5351,3.5996,3.6016,3.6268,3.6451,3.6471,3.7461,3.8404,3.8942,3.9718,4.0453,4.0811,4.0882,4.0882,4.0882,4.0882,4.0882,4.0882,4.0882,4.0882,4.0882,4.0903,4.0924,4.0924,4.0924,4.1131,4.1586,4.1607,4.1814,4.2322,4.2322,4.2115,4.1607,4.2136,4.2518,4.2973,4.3408,4.3615,4.3594,4.3159,4.2952,4.2932,4.2497,4.2115,4.1565,4.111,4.0903,4.0882,4.0882,4.0882,4.0882,4.0882,4.0882,4.0882,0.0,0.0,0.0,0.0,0.0,0.0,0.0,0.0,0.0,0.0,0.0,0.0,0.0,3.3418,3.3418,3.3418,3.3418,3.3418,3.3418,3.3418,3.3418,3.3418,3.3418,3.3418,3.3418,3.3418,3.3418,3.3418,3.3418,3.3418,3.3418,3.3418,3.3418,3.3418,3.3418,3.3418,3.3418,3.3418,3.3418,3.3418,3.3607,3.3733,3.3733,3.3985,3.4047,3.3985,3.3796,3.3733,3.367,3.3481,3.3418,3.3418,3.3418,3.3418,3.3418,3.3418,3.3418,3.3418,3.3418,3.4043,3.4707,3.4707,3.5371,3.6016,3.6016,3.6268,3.6519,3.6519,3.7421,3.8432,3.8902,3.9684,4.0389,4.082,4.0882,4.0882,4.0882,4.0882,4.0882,4.0882,4.0882,4.0882,4.0882,4.0882,4.0882,4.0882,4.0882,4.0944,4.111,4.1131,4.1193,4.1358,4.1379,4.1441,4.1565,4.1804,4.2042,4.2497,4.2663,4.2745,4.2745,4.2559,4.2331,4.2042,4.1876,4.1783,4.1524,4.1069,4.0882,4.0882,4.0882,4.0882,4.0882,4.0882,4.0882,4.0882,0.0,0.0,0.0,3.3418,0.0,3.3418,3.3418,3.3418,3.3418,3.3418,0.0,0.0,0.0,0.0,3.3418,3.3418,3.3418,3.3418,3.3418,3.3418,3.3418,3.3418,3.3418,3.3418,3.3418,3.3418,3.3418,3.3418,3.3418,3.3418,3.3418,3.3418,3.3418,3.3418,3.3418,3.3418,3.3418,3.3418,3.3418,3.3418,3.3796,3.3922,3.3922,3.4298,3.4423,3.436,3.4173,3.4047,3.4047,3.3796,3.3733,3.3733,3.3733,3.3733,3.3733,3.3733,3.367,3.3583,3.3784,3.4354,3.4943,3.508,3.5736,3.6355,3.6355,3.6606,3.6856,3.6856,3.7591,3.8432,3.8883,3.9522,4.0158,4.0779,4.0882,4.0882,4.0882,4.0882,4.0882,4.0882,4.0882,4.0882,4.0882,4.0882,4.0882,4.0882,4.0882,4.0882,4.0882,4.0882,4.0882,4.0882,4.0882,4.1027,4.1338,4.1483,4.1731,4.2094,4.226,4.2322,4.2322,4.2177,4.1855,4.1565,4.14,4.1338,4.1317,4.1007,4.0882,4.0882,4.0882,4.0882,4.0882,4.0882,4.0882,4.0882,3.3418,3.3418,3.3418,3.3418,3.3418,3.3418,3.3418,3.3418,3.3418,3.3418,0.0,0.0,0.0,0.0,0.0,3.3418,3.3418,3.3418,3.3418,3.3418,3.3418,3.3418,3.3418,3.3418,3.3418,3.3418,3.3418,3.3418,3.3418,3.3418,3.3418,3.3418,3.3418,3.3418,3.3418,3.3418,3.3418,3.3418,3.3418,3.3481,3.3796,3.3922,3.3985,3.4298,3.4423,3.4443,3.4443,3.4443,3.4443,3.4443,3.4423,3.4423,3.4423,3.4423,3.4423,3.4423,3.4173,3.4041,0.0,0.0,0.0,3.5852,3.6489,3.7079,3.7079,3.7348,3.7616,3.7616,3.7904,3.8316,3.8703,3.9137,3.9806,4.0717,4.0862,4.0882,4.0882,4.0882,4.0882,4.0882,4.0882,4.0882,4.0882,4.0882,4.0882,4.0882,4.0882,4.0882,4.0882,4.0882,4.0882,4.0882,4.0882,4.0882,4.0882,4.1317,4.1545,4.1545,4.2073,4.2302,4.2281,4.1825,4.1545,4.1524,4.1069,4.0882,4.0882,4.0882,4.0882,4.0882,4.0882,4.0882,4.0882,4.0882,4.0882,4.0882,3.3418,3.3418,3.3418,3.3418,3.3418,3.3418,3.3418,3.3418,3.3418,0.0,0.0,0.0,3.3418,3.3418,3.3418,3.3418,3.3418,3.3418,3.3418,3.3418,3.3418,3.3418,3.3418,3.3418,3.3418,3.3418,3.3418,3.3418,3.3418,3.3418,3.3418,3.3418,3.3418,3.3418,3.367,3.3733,3.3733,3.3481,3.367,3.411,3.4235,3.4423,3.4673,3.4984,3.5313,3.56,3.5348,3.5285,3.5222,3.4969,3.4685,3.4423,3.4423,3.4423,3.4423,3.4423,3.4581,3.4799,3.4939,0.0,0.0,0.0,0.0,0.0,3.7079,3.7348,3.7616,3.7616,3.7904,3.8316,3.8703,3.8889,3.9261,4.0261,4.0675,4.0882,4.0882,4.0882,4.0882,4.0882,4.0882,4.0882,4.0882,4.0882,4.0882,4.0882,4.0882,4.0882,4.0882,4.0882,4.0882,4.0882,4.0882,4.0882,4.0882,4.1007,4.1069,4.1069,4.1193,4.1255,4.1255,4.1131,4.1069,4.1069,4.0924,4.0882,4.0882,4.0882,4.0882,4.0882,4.0882,4.0882,4.0882,4.0882,4.0882,4.0882,3.3418,3.3418,3.3418,3.3418,3.3418,3.3418,3.3418,3.3418,3.3418,0.0,0.0,0.0,3.3418,3.3418,3.3418,3.3418,3.3418,3.3418,3.3418,3.3418,3.3418,3.3418,3.3418,3.3418,3.3418,3.3418,3.3418,3.3418,3.3418,3.3418,3.3418,3.3418,3.3481,3.3607,3.3796,3.4047,3.4298,3.3985,3.4047,3.4423,3.4548,3.4735,3.4942,3.5521,3.5873,3.6079,3.6074,3.6072,3.6072,3.5881,3.5654,3.543,3.543,3.543,3.543,3.543,3.5486,3.5666,3.5783,3.6208,3.6653,3.6835,0.0,0.0,3.7569,3.7703,3.7837,3.7837,3.8037,3.8253,3.8523,3.873,3.8951,3.9488,4.0034,4.0448,4.082,4.0882,4.0882,4.0882,4.0882,4.0882,4.0882,4.0882,4.0882,4.0882,4.0882,4.0882,4.0882,4.0882,4.0882,4.0882,4.0882,4.0882,4.0882,4.0882,4.0882,4.0882,4.0882,4.0882,4.0882,4.0882,4.0882,4.0882,4.0882,4.0882,4.0882,4.0882,4.0882,4.0882,4.0882,4.0882,4.0882,4.0882,4.0882,4.0882,0.0,3.3418,3.3418,3.3418,3.3418,3.3418,3.3418,3.3418,3.3418,0.0,3.3418,3.3418,3.3418,3.3418,3.3418,3.3418,3.3418,3.3418,3.3418,3.3418,3.3418,3.3418,3.3418,3.3418,3.3418,3.3418,3.3418,3.3418,3.3418,3.3418,3.3418,3.3418,3.3607,3.3922,3.3985,3.436,3.4859,3.461,3.4506,3.4629,3.4879,3.5003,3.5106,3.5892,3.6225,3.6328,3.6742,3.6887,3.6867,3.6825,3.6804,3.6804,3.6804,3.6804,3.6804,3.6804,3.6653,3.6517,3.6906,3.7049,3.7212,3.7601,3.7971,0.0,3.8191,3.8191,3.8191,3.8191,3.8191,3.8191,3.8191,3.8502,3.8724,3.8765,3.9117,3.9785,4.0675,4.08,4.082,4.0862,4.0882,4.0882,4.0882,4.0882,4.0882,4.0882,4.0882,4.0882,4.0882,4.0882,4.0882,4.0882,4.0882,4.0882,4.0882,4.0882,4.0882,4.0882,4.0882,4.0882,4.0882,4.0882,4.0882,4.0882,4.0882,4.0882,4.0882,4.0882,4.0882,4.0882,4.0882,4.0882,4.0882,4.0882,4.0882,4.0882,3.3496,3.3418,3.3418,3.3418,3.3418,3.3418,3.3418,3.3418,3.3418,3.3418,3.3418,3.3418,3.3418,3.3418,3.3418,3.3418,3.3418,3.3418,3.3418,3.3418,3.3418,3.3418,3.3418,3.3418,3.3418,3.3418,3.3418,3.3418,3.3418,3.3418,3.3418,3.367,3.3859,3.3922,3.4485,3.4797,3.4922,3.5108,3.5438,3.5725,3.5536,3.5599,3.5892,3.643,3.6908,3.7239,3.7322,3.7363,3.7301,3.6929,3.6804,3.6804,3.6804,3.6804,3.6804,3.6804,3.7009,3.7253,3.7336,3.7691,3.8001,3.8083,3.8125,0.0,3.8191,3.8191,3.8191,3.8191,3.8191,3.8191,3.8191,3.8253,3.844,3.8724,3.8848,3.9241,4.022,4.0365,4.0489,4.0841,4.0882,4.0882,4.0882,4.0882,4.0882,4.0882,4.0882,4.0882,4.0882,4.0882,4.0882,4.0882,4.0882,4.0882,4.0882,4.0882,4.0882,4.0882,4.0882,4.0882,4.0882,4.0882,4.0882,4.0882,4.0882,4.0882,4.0882,4.0882,4.0882,4.0882,4.0882,4.0882,4.0882,4.0882,4.0882,4.0882,3.3789,3.3574,3.3418,3.3418,3.3418,3.3418,3.3418,3.3418,3.3418,3.3418,3.3418,3.3418,3.3418,3.3418,3.3418,3.3418,3.3418,3.3418,3.3418,3.3418,3.3418,3.3418,3.3418,3.3418,3.3418,3.3418,3.3418,3.3418,3.3418,3.3481,3.367,3.3796,3.411,3.4423,3.4735,3.4984,3.519,3.5604,3.5894,3.6121,3.5932,3.6056,3.6515,3.697,3.7301,3.7529,3.7757,3.7839,3.7798,3.757,3.7488,3.7488,3.7488,3.7488,3.7488,3.7488,3.7653,3.7839,3.7839,3.8005,3.8191,3.8191,3.8191,0.0,0.0,3.8191,3.8191,3.8191,3.8191,3.8191,3.8191,3.8191,3.8253,3.8481,3.8523,3.875,3.9385,3.9674,4.0054,4.051,4.0551,4.0634,4.0862,4.0882,4.0882,4.0882,4.0882,4.0882,4.0882,4.0882,4.0882,4.0882,4.0882,4.0882,4.0882,4.0882,4.0882,4.0882,4.0882,4.0882,4.0882,4.0882,4.0882,4.0882,4.0882,4.0882,4.0882,4.0882,4.0882,4.0882,4.0882,4.0882,4.0882,4.0882,4.0882,4.0882,3.4101,3.3789,3.3516,3.3437,3.3418,3.3418,3.3418,3.3418,3.3418,3.3418,3.3418,3.3418,3.3418,3.3418,3.3418,3.3418,3.3418,3.3418,3.3418,3.3418,3.3418,3.3418,3.3418,3.3418,3.3418,3.3418,3.3418,3.3418,3.3481,3.3607,3.3922,3.4047,3.436,3.4922,3.4984,3.517,3.5459,3.5914,3.6163,3.6246,3.6349,3.6597,3.6991,3.7446,3.7632,3.7674,3.8046,3.8191,3.8191,3.8191,3.8191,3.8191,3.8191,3.8191,3.8191,3.8191,3.8191,3.8191,3.8191,3.8191,3.8191,3.8191,3.8191,3.8258,0.0,0.0,0.0,3.837,3.8304,3.8304,3.8304,3.8258,3.8191,3.8191,3.8191,3.8316,3.8667,3.904,3.9475,4.0034,4.0179,4.0365,4.0717,4.082,4.0882,4.0882,4.0882,4.0882,4.0882,4.0882,4.0882,4.0882,4.0882,4.0882,4.0882,4.0954,4.1025,4.1025,4.1096,4.1096,4.1096,4.1096,4.1096,4.1096,4.1025,4.1025,4.1025,4.0954,4.0882,4.0882,4.0882,4.0882,4.0882,4.0882,4.0882,4.0882,3.4219,3.4023,3.3887,3.3496,3.3418,3.3418,3.3418,3.3418,3.3418,3.3418,3.3418,3.3418,3.3418,3.3418,3.3418,3.3418,3.3418,3.3418,3.3418,3.3418,3.3418,3.3418,3.3418,3.3418,3.3418,3.3418,3.3418,3.3418,3.367,3.3859,3.3922,3.4485,3.4859,3.4922,3.5232,3.5356,3.5459,3.5914,3.6349,3.6763,3.7177,3.7363,3.7467,3.7922,3.8109,3.8109,3.8171,3.8191,3.8191,3.8191,3.8191,3.8191,3.8191,3.8191,3.8191,3.8191,3.8191,3.8191,3.8191,3.8191,3.8191,3.8191,3.8191,3.8237,3.8549,0.0,3.8747,3.9033,0.0,3.8615,3.8615,0.0,0.0,3.8191,3.8191,3.8212,3.8253,3.8316,3.8667,3.9447,3.9972,4.0241,4.0303,4.0655,4.0882,4.0882,4.0882,4.0882,4.0882,4.0882,4.0882,4.0882,4.0882,4.0882,4.0882,4.1259,4.1402,4.1402,4.1735,4.1877,4.1877,4.1877,4.1877,4.1877,4.1544,4.1402,4.1402,4.1025,4.0882,4.0882,4.0882,4.0882,4.0882,4.0882,4.0882,4.0882,3.4961,3.4434,3.4023,3.3828,3.3594,3.3418,3.3418,3.3418,3.3418,3.3418,3.3418,3.3418,3.3418,3.3418,3.3418,3.3418,3.3418,3.3418,3.3418,3.3418,3.3418,3.3418,3.3418,3.3418,3.3418,3.3418,3.3481,3.367,3.3859,3.411,3.4485,3.4797,3.4984,3.517,3.5356,3.5562,3.5852,3.6328,3.6784,3.7239,3.7715,3.7902,3.7922,3.8109,3.8191,3.8191,3.8191,3.8191,3.8191,3.8191,3.8191,3.8191,3.8191,3.8191,3.8191,3.8191,3.8191,3.8191,3.8191,3.8191,3.8191,3.8191,3.8191,3.8304,3.8615,3.8681,3.8814,3.9144,0.0,0.0,0.0,0.0,0.0,0.0,3.8636,3.8503,3.8503,3.8304,3.8419,3.8993,3.9241,3.9571,4.0179,4.0613,4.0882,4.0882,4.0882,4.0882,4.0882,4.0882,4.0882,4.0882,4.0882,4.1025,4.1259,4.1402,4.1686,4.2159,4.2489,4.277,4.2979,4.2979,4.2979,4.2979,4.237,4.2159,4.2089,4.1735,4.1523,4.1523,4.131,4.1096,4.0882,4.0882,4.0882,4.0882,3.5469,3.4766,3.4219,3.4101,3.3711,3.3418,3.3418,3.3418,3.3418,3.3418,3.3418,3.3418,3.3418,3.3418,3.3418,3.3418,3.3418,3.3418,3.3418,3.3418,3.3418,3.3418,3.3418,3.3418,3.3418,3.3418,3.3544,3.3922,3.3985,3.436,3.4922,3.4984,3.517,3.5438,3.5562,3.579,3.6142,3.6742,3.7177,3.7529,3.8005,3.8191,3.8191,3.8191,3.8191,3.8191,3.8191,3.8191,3.8191,3.8191,3.8253,3.8357,3.8357,3.846,3.8564,3.8564,3.8564,3.8523,3.8398,3.8357,3.8357,3.8357,3.8341,3.8479,3.8916,3.9097,3.921,3.9473,3.9276,0.0,0.0,0.0,3.8946,3.9144,0.0,3.8814,3.8814,3.8636,3.8495,3.8626,3.8703,3.9137,4.0137,4.058,4.0971,4.1025,4.1167,4.1167,4.1096,4.1025,4.1025,4.0882,4.1025,4.1188,4.1473,4.1898,4.2441,4.3049,4.3584,4.4068,4.4481,4.4481,4.4412,4.4297,4.3536,4.3119,4.2979,4.2489,4.2278,4.2278,4.1947,4.1594,4.1289,4.1025,4.0882,4.0882,3.5469,3.5,3.4551,3.4141,3.3711,3.3418,3.3418,3.3418,3.3418,3.3418,3.3418,3.3418,3.3418,3.3418,3.3418,3.3418,3.3418,3.3418,3.3418,3.3418,3.3418,3.3418,3.3418,3.3418,3.3418,3.3418,3.3544,3.3922,3.4235,3.4548,3.4922,3.5232,3.5356,3.5438,3.5894,3.6101,3.6183,3.7094,3.7488,3.7529,3.8005,3.8191,3.8191,3.8191,3.8191,3.8191,3.8191,3.8191,3.8191,3.8191,3.846,3.8765,3.8765,3.9055,3.9426,3.9426,3.9426,3.9323,3.8889,3.8765,3.8765,3.8765,3.8749,3.8874,3.9672,4.008,4.0279,4.0279,4.0279,4.0149,3.9757,3.9407,3.921,3.921,3.921,0.0,0.0,3.9144,3.8901,3.8258,3.8585,3.9137,4.0137,4.0591,4.099,4.1452,4.1806,4.1806,4.1473,4.1473,4.1331,4.0954,4.1259,4.1473,4.1473,4.2909,4.3791,4.4183,4.5256,4.6001,4.6291,4.6291,4.6113,4.5822,4.5028,4.4481,4.409,4.3375,4.3027,4.3027,4.27,4.2581,4.2419,4.131,4.0882,4.0882,3.5469,3.5019,3.457,3.4141,3.3711,3.3418,3.3418,3.3418,3.3418,3.3418,3.3418,3.3418,3.3418,3.3418,3.3418,3.3418,3.3418,3.3418,3.3418,3.3418,3.3418,3.3418,3.3418,3.3418,3.3418,3.3418,3.367,3.4235,3.436,3.4673,3.5232,3.5356,3.5583,3.5894,3.6039,3.6453,3.7053,3.7363,3.7674,3.7964,3.8129,3.8191,3.8191,3.8191,3.8191,3.8191,3.8191,3.8378,3.8626,3.8626,3.8869,3.9241,3.9241,3.9344,3.9468,3.9468,3.9675,3.984,3.9673,3.9836,3.9972,3.972,3.9846,4.0121,4.0629,4.1194,4.1684,4.1883,4.1704,4.146,4.1329,4.0933,4.0647,4.0906,4.0582,4.0257,0.0,3.9844,3.9451,3.921,3.9235,3.9297,3.961,4.0354,4.0843,4.1011,4.1918,4.2229,4.1877,4.2089,4.2018,4.1664,4.1735,4.2089,4.2532,4.3536,4.4481,4.5324,4.6405,4.7141,4.7473,4.7473,4.7407,4.7232,4.654,4.6113,4.5934,4.5256,4.4983,4.4846,4.4021,4.3675,4.3467,4.1877,4.1452,4.1664,3.5234,3.4785,3.4394,3.4121,3.3711,3.3418,3.3418,3.3418,3.3418,3.3418,3.3555,3.3652,3.3652,3.3789,3.3867,3.3867,3.3867,3.3867,3.3867,3.3867,3.3867,3.3867,3.3867,3.3809,3.3652,3.3779,3.4017,3.4423,3.4548,3.4859,3.5418,3.5583,3.5832,3.6121,3.6453,3.6929,3.7508,3.7674,3.7922,3.8191,3.8191,3.8191,3.8191,3.8191,3.8191,3.8212,3.8357,3.8605,3.8807,3.8972,3.9461,3.9993,3.9993,4.0167,4.0362,4.0362,4.064,4.0944,4.0774,4.0985,4.119,4.0869,4.1015,4.1337,4.1714,4.2504,4.3082,4.328,4.3228,4.3065,4.2935,4.2555,4.2218,4.2271,4.1798,4.1343,0.0,4.0755,4.0495,4.0603,3.9994,3.952,3.9576,4.0477,4.1215,4.1385,4.2649,4.3141,4.2651,4.2979,4.284,4.2208,4.2441,4.2861,4.335,4.4412,4.5504,4.6496,4.7563,4.8223,4.8551,4.8551,4.8486,4.8355,4.7738,4.7407,4.7274,4.6697,4.6496,4.6362,4.5528,4.5119,4.4709,4.2651,4.2018,4.2208,3.4785,3.4336,3.4043,3.4043,3.3691,3.3418,3.3418,3.3437,3.3457,3.3457,3.3828,3.4101,3.4101,3.4453,3.4707,3.4707,3.4707,3.4707,3.4707,3.4707,3.4707,3.4707,3.4707,3.4512,3.4185,3.4487,3.4608,3.4483,3.4796,3.5107,3.55,3.5935,3.6163,3.6225,3.7094,3.7508,3.755,3.8005,3.8191,3.8191,3.8191,3.8191,3.8191,3.8191,3.8191,3.8274,3.8621,3.8807,3.891,3.9364,4.0077,4.0822,4.0822,4.1376,4.2018,4.2018,4.237,4.2613,4.2137,4.2283,4.2489,4.2167,4.2228,4.2571,4.3037,4.3845,4.4557,4.451,4.4771,4.4901,4.4617,4.4225,4.3867,4.336,4.2944,4.2503,4.1961,4.1893,4.1998,4.2293,4.0862,3.9908,4.0003,4.108,4.1963,4.2445,4.3959,4.4526,4.3836,4.4112,4.3814,4.277,4.3419,4.3836,4.3791,4.5595,4.6808,4.7563,4.8616,4.9267,4.959,4.959,4.9396,4.9137,4.8722,4.8396,4.8026,4.7696,4.7563,4.7563,4.7141,4.6741,4.6136,4.3675,4.27,4.277,3.4785,3.4101,3.3594,3.3594,3.3496,3.3418,3.3418,3.3691,3.3906,3.3906,3.4277,3.4531,3.4531,3.4629,3.4707,3.4707,3.4707,3.4707,3.4707,3.4707,3.4707,3.4707,3.4707,3.4779,3.5007,3.5072,3.5336,3.5794,3.5878,3.6134,3.6453,3.6577,3.6804,3.7156,3.7384,3.7674,3.8026,3.8129,3.8191,3.8191,3.8191,3.8191,3.8191,3.8191,3.8398,3.8688,3.8745,3.922,3.9889,4.0013,4.0576,4.1305,4.1305,4.1862,4.2441,4.2441,4.3049,4.3791,4.3658,4.4095,4.4505,4.4117,4.4278,4.4618,4.5003,4.5675,4.6338,4.6603,4.6686,4.6552,4.6203,4.5957,4.5798,4.5654,4.4785,4.384,4.3211,4.2801,4.257,4.2633,4.2316,4.1859,4.1506,4.2127,4.2683,4.3173,4.4709,4.5392,4.4914,4.546,4.546,4.464,4.5051,4.5347,4.5324,4.663,4.7431,4.7894,4.8942,4.9525,4.959,4.959,4.9525,4.9461,4.9396,4.9267,4.9137,4.8812,4.8682,4.8616,4.796,4.734,4.6607,4.5119,4.4434,4.4297,3.4746,3.416,3.3711,3.3711,3.3867,3.3926,3.373,3.4062,3.4336,3.4336,3.4726,3.5,3.5,3.5156,3.5273,3.5273,3.5273,3.5273,3.5273,3.5273,3.5273,3.5273,3.5273,3.5262,3.535,3.5482,3.5711,3.6095,3.6224,3.6483,3.6804,3.7011,3.7239,3.7508,3.7715,3.7943,3.8191,3.8191,3.8191,3.8191,3.8191,3.8191,0.0,3.8398,3.875,3.9096,3.9323,3.9716,4.0261,4.0448,4.103,4.1756,4.1756,4.237,4.3071,4.3071,4.3814,4.4709,4.4914,4.546,4.6001,4.5799,4.6001,4.6338,4.6516,4.7117,4.7738,4.8158,4.8175,4.8019,4.78,4.758,4.7311,4.6938,4.6069,4.5326,4.4944,4.4618,4.4452,4.4642,4.4365,4.4132,4.4063,4.3697,4.3617,4.3984,4.5318,4.5957,4.5595,4.6294,4.6429,4.5799,4.6294,4.663,4.663,4.7473,4.8133,4.8486,4.9267,4.959,4.959,4.959,4.959,4.959,4.959,4.959,4.959,4.9396,4.9332,4.9267,4.8682,4.8223,4.7738,4.7008,4.6271,4.5799,3.4707,3.4394,3.416,3.416,3.4512,3.4668,3.4297,3.4551,3.4785,3.4785,3.5234,3.5566,3.5566,3.5937,3.6191,3.6191,3.6191,3.6172,3.6113,3.6094,3.6074,3.6016,3.6016,3.584,3.5555,3.5803,3.6004,3.5997,3.6322,3.6582,3.6926,3.7405,3.7591,3.7612,3.8005,3.8191,3.8191,3.8191,3.8191,3.8191,3.8191,3.8191,3.8233,3.8688,3.9075,3.953,4.0054,4.0261,4.0365,4.0737,4.1381,4.1947,4.1947,4.2721,4.3628,4.3628,4.4457,4.5392,4.5822,4.6496,4.7032,4.7074,4.7364,4.763,4.7696,4.8133,4.8722,4.9072,4.9137,4.9137,4.9137,4.8902,4.8493,4.7678,4.7076,4.6709,4.6646,4.6597,4.6675,4.6992,4.6397,0.0,4.6655,4.5426,4.4658,4.4836,4.5879,4.6405,4.6092,4.6764,4.7032,4.6607,4.7364,4.7696,4.763,4.8264,4.8787,4.9072,4.9461,4.959,4.959,4.959,4.959,4.959,4.959,4.959,4.959,4.959,4.959,4.959,4.9267,4.9137,4.9137,4.8837,4.8092,4.7274,3.4766,3.4648,3.459,3.459,3.4961,3.5254,3.5176,3.5234,3.5273,3.5273,3.5957,3.6445,3.6445,3.6816,3.707,3.707,3.707,3.6934,3.6582,3.6562,3.6406,3.6035,3.6016,3.6112,3.6285,3.6333,3.6582,3.6837,3.7191,3.7391,3.7458,3.7872,3.8067,3.8067,3.815,3.8191,3.8191,3.8191,3.8191,3.8191,3.8191,3.8191,3.8233,3.8688,3.9075,3.953,4.0034,4.0448,4.0779,4.0841,4.1167,4.1615,4.1615,4.23,4.3211,4.3211,4.4159,4.5392,4.5822,4.663,4.7497,4.7762,4.8116,4.8445,4.8747,4.8942,4.9072,4.9461,4.9525,4.9525,4.9525,4.9461,4.9307,4.8883,4.8323,4.7912,4.7592,4.7224,4.6929,4.6992,4.6612,4.6384,4.6655,4.624,4.5946,4.6107,4.6827,4.7165,4.6831,4.7786,4.8116,4.7762,4.842,4.8682,4.8379,4.8812,4.9007,4.9072,4.9461,4.959,4.959,4.959,4.959,4.959,4.959,4.959,4.959,4.959,4.959,4.959,4.9525,4.9525,4.9525,4.9461,4.9267,4.9072,3.4785,3.4902,3.5059,3.5059,3.543,3.5801,3.6016,3.6055,3.6055,3.6055,3.6406,3.6758,3.6973,3.7168,3.7305,3.7305,3.7305,3.7207,3.7012,3.6992,3.6797,3.6367,3.6348,3.6318,3.62,3.6384,3.6722,3.7079,3.7415,3.7703,3.7904,3.8125,3.8191,3.8191,3.8191,3.8191,3.8191,3.8191,3.8191,3.8191,3.8191,3.8316,3.8585,3.8972,3.9426,3.9951,4.0386,4.0696,4.0882,4.0882,4.1188,4.1473,4.1473,4.211,4.2861,4.3071,4.4043,4.5187,4.5957,4.6965,4.7894,4.842,4.8812,4.9162,4.9332,4.9332,4.9396,4.959,4.959,4.959,4.959,4.959,4.9525,4.9396,4.9107,4.8932,4.8739,4.8515,4.8341,4.8341,4.8021,4.7758,4.7702,4.7334,4.6902,4.6204,4.663,4.6965,4.6965,4.7852,4.8379,4.8551,4.9072,4.9267,4.9097,4.9267,4.9332,4.9332,4.9525,4.959,4.959,4.959,4.959,4.959,4.959,4.959,4.959,4.959,4.959,4.959,4.959,4.959,4.959,4.959,4.959,4.9525,3.5059,3.5273,3.5547,3.5644,3.5937,3.6309,3.6738,3.6797,3.6797,3.6797,3.6875,3.707,3.7402,3.7519,3.7578,3.7578,3.7578,3.7519,3.7441,3.7422,3.7246,3.6816,3.6719,3.6504,3.6172,3.6375,3.6654,3.6944,3.7415,3.777,3.8037,3.8191,3.8191,3.8191,3.8191,3.8191,3.8191,3.8191,3.8191,3.8191,3.8191,3.846,3.8827,3.9302,3.9757,4.0282,4.0717,4.0882,4.0882,4.0882,4.1188,4.1473,4.1473,4.2018,4.2651,4.3001,4.3905,4.5074,4.6069,4.7141,4.8158,4.8942,4.9332,4.959,4.959,4.959,4.959,4.959,4.959,4.959,4.959,4.959,4.959,4.959,4.959,4.959,4.959,4.959,4.959,4.959,4.9332,4.8942,4.8641,4.8223,4.7497,4.6362,4.6563,4.6898,4.7165,4.7828,4.8486,4.9072,4.9396,4.959,4.959,4.959,4.959,4.959,4.959,4.959,4.959,4.959,4.959,4.959,4.959,4.959,4.959,4.959,4.959,4.959,4.959,4.959,4.959,4.959,4.959,4.959,3.5898,3.5937,3.6094,3.6484,3.6582,3.6758,3.7168,3.7246,3.7246,3.7246,3.7578,3.7812,3.7851,3.8223,3.8457,3.8457,3.8457,3.8281,3.7891,3.7871,3.7676,3.7266,3.6875,3.666,3.6621,3.6533,3.6519,3.6586,3.728,3.7616,3.7683,3.8037,3.8191,3.8191,3.8191,3.8191,3.8191,3.8191,3.8191,3.8191,3.8191,3.846,3.8827,3.9302,3.9757,4.0282,4.0717,4.0882,4.0882,4.0882,4.1188,4.1473,4.1473,4.2018,4.2651,4.3001,4.3905,4.5074,4.6069,4.7141,4.8158,4.8942,4.9332,4.959,4.959,4.959,4.959,4.959,4.959,4.959,4.959,4.959,4.959,4.959,4.959,4.959,4.959,4.959,4.959,4.959,4.9332,4.8918,4.8567,4.8199,4.7828,4.7364,4.7696,4.7894,4.7894,4.8616,4.9007,4.9072,4.9396,4.959,4.959,4.959,4.959,4.959,4.959,4.959,4.959,4.959,4.959,4.959,4.959,4.959,4.959,4.959,4.959,4.959,4.959,4.959,4.959,4.959,4.959,4.959,3.6738,3.6582,3.6543,3.6973,3.7051,3.7187,3.7617,3.7676,3.7773,3.8027,3.7988,3.8027,3.8281,3.8476,3.8574,3.8574,3.8574,3.8496,3.832,3.832,3.8125,3.7695,3.7519,3.7305,3.7051,3.7153,3.7257,3.7257,3.7691,3.7971,3.7971,3.8104,3.8191,3.8191,3.8191,3.8191,3.8191,3.8191,3.8191,3.8212,3.8481,3.8854,3.9241,3.9716,4.022,4.0634,4.082,4.0882,4.0954,4.1167,4.1402,4.1473,4.1473,4.2018,4.27,4.3258,4.4228,4.5324,4.6405,4.7473,4.8461,4.9007,4.9332,4.959,4.959,4.959,4.959,4.959,4.959,4.959,4.959,4.959,4.959,4.959,4.959,4.959,4.959,4.959,4.959,4.959,4.9461,4.9267,4.8918,4.8747,4.8616,4.8486,4.8158,4.8092,4.8264,4.8812,4.9202,4.9396,4.9525,4.959,4.959,4.959,4.959,4.959,4.959,4.959,4.959,4.959,4.959,4.959,4.959,4.959,4.959,4.959,4.959,4.959,4.959,4.959,4.959,4.959,4.959,4.959,3.7246,3.7051,3.6992,3.7402,3.748,3.7617,3.8047,3.8105,3.8223,3.8535,3.8301,3.8223,3.8535,3.8574,3.8574,3.8574,3.8574,3.8574,3.8574,3.8574,3.8437,3.8125,3.7988,3.7793,3.748,3.7679,3.7726,3.7722,3.8051,3.8249,3.8191,3.8191,3.8191,3.8191,3.8191,3.8191,3.8191,3.8191,3.8253,3.8398,3.873,3.9137,3.9716,4.0096,4.0489,4.0882,4.0882,4.0882,4.0954,4.1331,4.1615,4.1898,4.2089,4.2651,4.3397,4.4274,4.5165,4.6136,4.7117,4.7977,4.8787,4.9137,4.9396,4.959,4.959,4.959,4.959,4.959,4.959,4.959,4.959,4.959,4.959,4.959,4.959,4.959,4.959,4.959,4.959,4.959,4.959,4.9525,4.9267,4.9267,4.9267,4.9267,4.8747,4.8592,4.8787,4.9072,4.9332,4.959,4.959,4.959,4.959,4.959,4.959,4.959,4.959,4.959,4.959,4.959,4.959,4.959,4.959,4.959,4.959,4.959,4.959,4.959,4.959,4.959,4.959,4.959,4.959,4.959,3.7305,3.7285,3.7422,3.7851,3.791,3.8066,3.8496,3.8574,3.8574,3.8574,3.8574,3.8574,3.8574,3.8574,3.8574,3.8574,3.8574,3.8574,3.8574,3.8574,3.8574,3.8574,3.8164,3.793,3.791,3.7854,3.7768,3.7722,3.8085,3.8268,3.8191,3.8191,3.8191,3.8191,3.8191,3.8191,3.8191,3.8191,3.844,3.8765,3.8786,3.9323,4.022,4.0199,4.0468,4.0882,4.0882,4.0882,4.0954,4.1331,4.1947,4.27,4.3467,4.4159,4.5006,4.6069,4.6898,4.763,4.8306,4.8787,4.9202,4.9525,4.959,4.959,4.959,4.959,4.959,4.959,4.959,4.959,4.959,4.959,4.959,4.959,4.959,4.959,4.959,4.959,4.959,4.959,4.959,4.959,4.959,4.959,4.959,4.959,4.959,4.959,4.959,4.959,4.959,4.959,4.959,0.0,4.959,4.959,4.959,4.959,4.959,4.959,4.959,4.959,4.959,4.959,4.959,4.959,4.959,4.959,4.959,4.959,4.959,4.959,4.959,4.959,4.959,4.959,3.8105,3.793,3.7851,3.8301,3.8359,3.8418,3.8555,3.8574,3.8574,3.8574,3.8574,3.8574,3.8574,3.8574,3.8574,3.8574,3.8574,3.8574,3.8574,3.8574,3.8574,3.8574,3.8437,3.8359,3.8359,3.8307,3.8244,3.8226,3.8251,3.8288,3.8191,3.8191,3.8191,3.8191,3.8191,3.8191,3.8212,3.8502,3.8662,3.8827,3.9468,3.9902,4.0261,4.0551,4.0758,4.0882,4.0882,4.1096,4.1444,4.2401,4.329,4.425,4.6034,4.615,4.5686,4.654,4.7407,4.833,4.8787,4.9202,4.9461,4.959,4.959,4.959,4.959,4.959,4.959,4.959,4.959,4.959,4.959,4.959,4.959,4.959,4.959,4.959,4.959,4.959,4.959,4.959,4.959,4.959,4.959,4.959,4.959,4.959,4.959,4.959,4.959,4.959,4.959,4.959,4.959,0.0,4.959,4.959,4.959,4.959,4.959,4.959,4.959,4.959,4.959,4.959,4.959,4.959,4.959,4.959,4.959,4.959,4.959,4.959,4.959,4.959,4.959,4.959,3.8516,3.8359,3.8262,3.8535,3.8574,3.8574,3.8574,3.8574,3.8574,3.8574,3.8574,3.8574,3.8574,3.8574,3.8574,3.8574,3.8574,3.8574,3.8574,3.8574,3.8574,3.8574,3.8574,3.8574,3.8574,3.8537,3.8537,3.8521,3.8575,3.8548,3.8485,3.8621,3.8688,3.8688,3.8688,3.8688,3.8709,3.8999,3.9137,3.9392,3.9992,4.0323,4.051,4.0779,4.0882,4.0954,4.1096,4.1259,4.177,4.3213,4.4286,4.5337,4.7515,4.7922,4.7603,4.8209,4.8942,4.9553,4.9551,4.9761,4.9866,4.964,4.959,4.959,4.959,4.959,4.959,4.959,4.959,4.959,4.959,4.959,4.959,4.959,4.959,4.959,4.959,4.959,4.959,4.959,4.959,4.959,4.959,4.959,4.959,4.959,4.959,4.959,4.959,4.959,4.959,4.959,4.959,4.959,4.959,4.959,4.959,4.959,4.959,4.959,4.959,4.959,4.959,4.959,4.959,4.959,4.959,4.959,4.959,4.959,4.959,4.959,4.959,4.959,4.959,4.959,3.8574,3.8574,3.8574,3.8574,3.8574,3.8574,3.8574,3.8574,3.8574,3.8574,3.8574,3.8574,3.8574,3.8574,3.8574,3.8574,3.8574,3.8574,3.8574,3.8574,3.8574,3.8574,3.8574,3.8574,3.8574,3.8574,3.8577,3.8521,3.8808,3.9004,3.8983,3.933,3.9468,3.9468,3.9468,3.9468,3.9468,3.9509,3.9827,4.0199,4.0241,4.051,4.0882,4.0882,4.0954,4.1025,4.1402,4.1544,4.1962,4.3899,4.5107,4.6058,4.8069,4.9402,5.0284,5.062,5.098,5.1172,5.0619,5.0469,5.0343,4.9841,4.969,4.9665,4.9665,4.9615,4.959,4.959,4.959,4.959,4.959,4.959,4.959,4.959,4.959,4.959,4.959,4.959,4.959,4.959,4.959,4.959,4.959,4.959,4.959,4.959,4.959,4.959,4.959,4.959,4.959,4.959,4.959,4.959,4.959,4.959,4.959,4.959,4.959,4.959,4.959,4.959,4.959,4.959,4.959,4.959,4.959,4.959,4.959,4.959,4.959,4.959,4.959,4.959,4.959,4.959,3.8574,3.8574,3.8574,3.8574,3.8574,3.8574,3.8574,3.8574,3.8574,3.8574,3.8574,3.8574,3.8574,3.8574,3.8574,3.8574,3.8574,3.8574,3.8574,3.8574,3.8574,3.8574,3.8574,3.8574,3.8574,3.8574,3.8577,3.8521,3.8899,3.9029,3.8983,3.933,3.9468,3.9468,3.9468,3.9468,3.9488,3.984,4.0116,4.022,4.0572,4.0779,4.0882,4.0882,4.1096,4.1402,4.1473,4.2229,4.3394,4.4788,4.6128,4.7525,4.9233,5.0173,5.062,5.0687,5.098,5.1247,5.1122,5.1071,5.1046,5.0921,5.0544,5.0218,5.0218,4.9891,4.959,4.959,4.959,4.959,4.959,4.959,4.959,4.959,4.959,4.959,4.959,4.959,4.959,4.959,4.959,4.959,4.959,4.959,4.959,4.959,4.959,4.959,4.959,4.959,4.959,4.959,4.959,4.959,4.959,4.959,4.959,4.959,4.959,4.959,4.959,4.959,4.959,4.959,4.959,4.959,4.959,4.959,4.959,4.959,4.959,4.959,4.959,4.959,4.959,4.959,3.8574,3.8574,3.8574,3.8574,3.8574,3.8574,3.8574,3.8574,3.8574,3.8574,3.8574,3.8574,3.8574,3.8574,3.8574,3.8574,3.8574,3.8574,3.8574,3.8574,3.8574,3.8574,3.8574,3.8574,3.8574,3.8574,3.8602,3.8531,3.9086,3.9394,3.9293,3.9857,4.0158,4.0158,4.0158,4.0158,4.0179,4.0427,4.051,4.053,4.0779,4.0882,4.0882,4.0882,4.1167,4.1544,4.1898,4.284,4.4135,4.576,4.7158,4.8474,4.9909,5.0645,5.098,5.098,5.1314,5.1649,5.1649,5.1649,5.1599,5.1348,5.1046,5.082,5.082,5.0594,5.0293,5.0017,4.9967,4.9891,4.964,4.959,4.959,4.959,4.959,4.959,4.959,4.959,4.959,4.959,4.959,4.959,4.959,4.959,4.959,4.959,4.959,4.959,4.959,4.959,4.959,4.959,4.959,4.959,4.959,4.959,4.959,4.959,4.959,4.959,4.959,4.959,4.959,4.959,4.959,4.959,4.959,4.959,4.959,4.959,4.959,4.959,4.959,4.959,4.959,4.959,3.8574,3.8574,3.8574,3.8574,3.8574,3.8574,3.8574,3.8574,3.8574,3.8574,3.8574,3.8574,3.8574,3.8574,3.8574,3.8574,3.8574,3.8574,3.8574,3.8574,3.8574,3.8574,3.8574,3.8574,3.8574,3.8574,3.8647,3.872,3.9353,3.9714,3.9786,4.0525,4.0882,4.0882,4.0882,4.0882,4.0882,4.0882,4.0954,4.1025,4.1025,4.1025,4.1096,4.1025,4.1239,4.1756,4.2441,4.3445,4.4732,4.6627,4.7945,4.8998,5.0157,5.073,5.1046,5.1122,5.1548,5.2,5.2076,5.2176,5.2126,5.1649,5.1473,5.1398,5.1398,5.1348,5.1147,5.0645,5.0544,5.0368,4.9816,4.9715,4.969,4.9615,4.959,4.959,4.959,0.0,4.959,4.959,4.959,4.959,4.959,4.959,4.959,4.959,4.959,4.959,4.959,4.959,4.959,4.959,4.959,4.959,4.959,4.959,4.959,4.959,4.959,4.959,4.959,4.959,4.959,4.959,4.959,4.959,4.959,4.959,4.959,4.959,4.959,4.959,4.959,4.959,4.959,4.959,3.8574,3.8574,3.8574,3.8574,3.8574,3.8574,3.8574,3.8574,3.8574,3.8574,3.8574,3.8574,3.8574,3.8574,3.8574,3.8574,3.8574,3.8574,3.8574,3.8574,3.8574,3.8574,3.8574,3.8574,3.8574,3.8574,3.8793,3.9103,3.9518,3.9858,4.0238,4.0668,4.0882,4.0882,4.0882,4.0882,4.0882,4.0882,4.1096,4.1402,4.1402,4.1615,4.1806,4.1544,4.1827,4.2511,4.2909,4.4137,4.5822,4.706,4.8148,4.9131,4.9621,4.9776,4.9941,5.0419,5.0971,5.1498,5.1975,5.2452,5.2779,5.2703,5.2327,5.1975,5.1975,5.1624,5.1247,5.1172,5.1147,5.0971,5.0393,5.0293,5.0142,4.9665,4.959,4.959,4.959,0.0,4.959,4.959,4.959,4.959,4.959,4.959,4.959,4.959,4.959,4.959,4.959,4.959,4.959,4.959,4.959,4.959,4.959,4.959,4.959,4.959,4.959,4.959,4.959,4.959,4.959,4.959,4.959,4.959,4.959,4.959,4.959,4.959,4.959,4.959,4.959,4.959,4.959,4.959,3.9297,3.9297,3.9297,3.9297,3.9082,3.8906,3.8906,3.873,3.8574,3.8574,3.8574,3.8574,3.8574,3.8574,3.8574,3.8574,3.8574,3.8574,3.8574,3.8574,3.8574,3.8574,3.8574,3.8574,3.8574,3.8574,3.8793,3.9176,3.9518,3.993,4.031,4.074,4.0882,4.0882,4.0882,4.0882,4.0882,4.0882,4.1096,4.1473,4.1473,4.1827,4.23,4.1877,4.237,4.3211,4.3536,4.4914,4.654,4.7497,4.8486,4.9396,4.9525,4.9791,5.0092,5.0343,5.1046,5.185,5.2402,5.2729,5.2929,5.2929,5.2729,5.2553,5.2553,5.2352,5.2076,5.1774,5.1724,5.1548,5.0996,5.087,5.0795,5.0544,5.0243,5.0042,5.0042,4.9791,4.959,4.959,4.959,4.959,4.959,4.959,4.959,4.959,4.959,4.959,4.959,4.959,4.959,4.959,4.959,4.959,4.959,4.959,4.959,4.959,4.959,4.959,4.959,4.959,4.959,4.959,4.959,4.959,4.959,4.959,4.959,4.959,4.959,4.959,4.959,4.959,4.959,4.964,3.9902,3.9902,3.9902,3.9902,3.9609,3.9355,3.9355,3.9082,3.8848,3.873,3.873,3.8691,3.8594,3.8574,3.8574,3.8574,3.8574,3.8574,3.8574,3.8574,3.8574,3.8574,3.8574,3.8574,3.8574,3.8574,3.8865,3.9321,3.957,3.993,4.0453,4.074,4.0882,4.0882,4.0882,4.0882,4.0882,4.1025,4.131,4.1756,4.1969,4.2441,4.3049,4.277,4.328,4.4112,4.4572,4.5708,4.7141,4.796,4.8877,4.9615,4.9741,5.0067,5.0444,5.0569,5.1322,5.2226,5.2779,5.2929,5.2929,5.2929,5.2929,5.2929,5.2929,5.2929,5.2804,5.2377,5.2302,5.2126,5.1574,5.1473,5.1423,5.1297,0.0,5.0619,5.0619,5.0243,4.9941,4.9791,4.9791,4.9741,4.9615,4.959,4.959,4.959,4.959,4.959,4.959,4.959,4.959,4.959,4.959,4.959,4.959,4.959,4.959,4.959,4.959,4.9665,4.9791,4.9791,4.9866,4.9992,4.9992,4.9992,4.9992,4.9992,4.9992,4.9992,4.9992,4.9992,4.9992,4.9992,4.9992,5.0042,3.9902,3.9902,3.9902,3.9902,3.9863,3.9844,3.9844,3.9824,3.9648,3.9219,3.916,3.9004,3.8613,3.8574,3.8574,3.8574,3.8574,3.8574,3.8574,3.8574,3.8574,3.8574,3.8574,3.8574,3.8574,3.8574,3.8938,3.9642,3.9714,4.0074,4.0882,4.0882,4.0882,4.0882,4.0882,4.0882,4.0954,4.1331,4.1898,4.2581,4.3258,4.3952,4.4663,4.4594,4.4846,4.5256,4.5978,4.6784,4.763,4.8682,4.9267,4.969,5.0193,5.0393,5.0519,5.1046,5.1649,5.2226,5.2779,5.2929,5.2929,5.2929,5.2929,5.2929,5.2929,5.2929,5.2929,5.2879,5.2879,5.2703,5.2151,5.2051,5.1875,5.1373,0.0,0.0,5.1222,5.1172,5.0946,5.0419,5.0368,5.0167,4.964,4.959,4.959,4.959,4.959,4.959,4.959,4.959,4.959,4.959,4.959,4.959,4.959,4.959,4.959,4.959,4.959,4.9866,5.0368,5.0368,5.0645,5.1147,5.1147,5.1147,5.1147,5.1147,5.1147,5.1147,5.1147,5.1147,5.1147,5.1147,5.1147,5.1172,4.0684,4.0684,4.0684,4.0684,4.0469,4.0273,4.0273,4.0059,3.9824,3.9648,3.9629,3.9473,3.9004,3.8965,3.8867,3.8594,3.8574,3.8574,3.8574,3.8574,3.8574,3.8574,3.8574,3.8574,3.8574,3.8574,3.8865,3.9373,3.957,4.0002,4.0525,4.0811,4.0882,4.0882,4.0882,4.0882,4.0954,4.1331,4.1969,4.27,4.3653,4.4618,4.5483,4.5708,4.6136,4.6674,4.7008,4.7539,4.8248,4.9248,4.9831,5.0218,5.077,5.1197,5.1574,5.2126,5.2452,5.2653,5.2879,5.2929,5.2929,5.2929,5.2929,5.2929,5.2929,5.2929,5.2929,5.2929,5.2929,5.2854,5.2653,5.2628,5.2553,5.2327,0.0,5.18,5.18,5.1498,5.1197,5.0971,5.0946,5.087,5.067,5.0645,5.0645,5.0645,5.0645,5.0645,5.0645,5.0645,5.0645,5.0645,5.0645,5.0469,5.0117,5.0117,5.0293,5.0645,5.0645,5.0745,5.0946,5.0946,5.1071,5.1272,5.1272,5.1272,5.1272,5.1272,5.1272,5.1272,5.1272,5.1272,5.1272,5.1272,5.1272,5.1322,4.1172,4.1172,4.1172,4.1172,4.0918,4.0723,4.0723,4.0488,4.0254,4.0117,4.0098,3.9922,3.9473,3.9414,3.9238,3.8809,3.8769,3.8711,3.8594,3.8574,3.8574,3.8574,3.8574,3.8574,3.8574,3.8574,3.8793,3.9176,3.9518,3.993,4.031,4.074,4.0882,4.0882,4.0882,4.0954,4.1096,4.1615,4.23,4.3189,4.4412,4.5504,4.6429,4.6941,4.7407,4.7852,4.796,4.8387,4.9018,4.9809,5.0347,5.0795,5.1348,5.1925,5.2427,5.2829,5.2929,5.2929,5.2929,5.2929,5.2929,5.2929,5.2929,5.2929,5.2929,5.2929,5.2929,5.2929,5.2929,5.2929,5.2929,5.2929,5.2929,5.2929,5.2603,5.2352,5.2352,5.2026,5.1724,5.1548,5.1548,5.1473,5.1297,5.1272,5.1272,5.1272,5.1272,5.1272,5.1272,5.1272,5.1272,5.1272,5.1272,5.1172,5.0946,5.077,5.0896,5.1272,5.1272,5.1373,5.1548,5.1548,5.1624,5.18,5.18,5.18,5.18,5.18,5.18,5.18,5.18,5.18,5.18,5.18,5.18,5.185,4.1172,4.1172,4.1172,4.1172,4.1172,4.1172,4.1172,4.1172,4.1016,4.0586,4.0527,4.0371,3.9941,3.9902,3.9707,3.9258,3.9199,3.9023,3.8613,3.8574,3.8574,3.8574,3.8574,3.8574,3.8574,3.8574,3.8793,3.9176,3.9518,3.9858,4.031,4.074,4.0882,4.0882,4.0882,4.1096,4.1544,4.23,4.3189,4.4297,4.5799,4.6831,4.7563,4.8313,4.86,4.8666,4.9007,4.942,4.9958,5.0287,5.082,5.1373,5.195,5.2477,5.2929,5.2929,5.2929,5.2929,5.2929,5.2929,5.2929,5.2929,5.2929,5.2929,5.2929,5.2929,5.2929,5.2929,5.2929,5.2929,5.2929,5.2929,5.2929,5.2929,5.2929,5.2929,5.2929,5.2929,5.2729,5.2176,5.2126,5.19,5.1348,5.1297,5.1297,5.1297,5.1297,5.1297,5.1297,5.1297,5.1297,5.1297,5.1297,5.1548,5.2101,5.1548,5.1297,5.1297,5.1297,5.1574,5.2126,5.2126,5.2402,5.2929,5.2929,5.2929,5.2929,5.2929,5.2929,5.2929,5.2929,5.2929,5.2929,5.2929,5.2929,5.2929,4.1172,4.1172,4.1172,4.1172,4.1172,4.1172,4.1172,4.1172,4.1133,4.0996,4.0976,4.082,4.0391,4.0332,4.0156,3.9726,3.9394,3.9023,3.8613,3.8574,3.8574,3.8574,3.8574,3.8574,3.8574,3.8574,3.8647,3.8793,3.9156,3.9518,3.9858,4.031,4.0596,4.0882,4.0882,4.1096,4.1544,4.23,4.3397,4.4755,4.6204,4.734,4.8264,4.9007,4.9516,4.9866,4.9972,5.0413,5.0938,5.1406,5.1724,5.195,5.2503,5.2804,5.2929,5.2929,5.2929,5.2929,5.2929,5.2929,5.2929,5.2929,5.2929,5.2929,5.2929,5.2929,5.2929,5.2929,5.2929,5.2929,5.2929,5.2929,5.2929,5.2929,5.2929,5.2929,5.2929,5.2929,5.2879,5.2703,5.2678,5.2628,5.2452,5.2427,5.2427,5.2427,5.2427,5.2427,5.2427,5.2427,5.2427,5.2427,5.2427,5.2528,5.2678,5.2126,5.2051,5.2427,5.2427,5.2528,5.2678,5.2678,5.2779,5.2929,5.2929,5.2929,5.2929,5.2929,5.2929,5.2929,5.2929,5.2929,5.2929,5.2929,5.2929,5.2929,4.1172,4.1172,4.1172,4.1172,4.1172,4.1172,4.1172,4.1172,4.1172,4.1172,4.1172,4.1074,4.0801,4.0781,4.0605,4.0176,3.957,3.9101,3.8828,3.8672,3.8574,3.8574,3.8574,3.8574,3.8574,3.8574,3.8574,3.8574,3.903,3.9373,3.9714,4.0094,4.0525,4.0882,4.0882,4.1167,4.1756,4.2489,4.3744,4.5392,4.6607,4.7925,4.9109,4.9721,5.0268,5.077,5.077,5.1122,5.1649,5.2,5.2251,5.2477,5.2829,5.2929,5.2929,5.2929,5.2929,5.2929,5.2929,5.2929,5.2929,5.2929,5.2929,5.2929,5.2929,5.2929,5.2929,5.2929,5.2929,5.2929,5.2929,5.2929,5.2929,5.2929,5.2929,5.2929,5.2929,5.2929,5.2929,5.2929,5.2929,5.2929,5.2929,5.2929,5.2929,5.2929,5.2929,5.2929,5.2929,5.2929,5.2929,5.2929,5.2929,5.2929,5.2929,5.2603,5.2603,5.2929,5.2929,5.2929,5.2929,5.2929,5.2929,5.2929,5.2929,5.2929,5.2929,5.2929,5.2929,5.2929,5.2929,5.2929,5.2929,5.2929,5.2929,5.2929,4.1172,4.1172,4.1172,4.1172,4.1172,4.1172,4.1172,4.1172,4.1172,4.1172,4.1172,4.1172,4.1172,4.1172,4.1016,4.0625,3.9805,3.9277,3.9199,3.8848,3.8613,3.8574,3.8574,3.8574,3.8574,3.8574,3.8574,3.8574,3.8958,3.9301,3.9714,4.0094,4.0453,4.0882,4.0882,4.131,4.2089,4.277,4.4228,4.6095,4.717,4.8548,5.0033,5.0362,5.0845,5.1348,5.1348,5.1699,5.2176,5.2176,5.2528,5.2929,5.2929,5.2929,5.2929,5.2929,5.2929,5.2929,5.2929,5.2929,5.2929,5.2929,5.2929,5.2929,5.2929,5.2929,5.2929,5.2929,5.2929,5.2929,5.2929,5.2929,5.2929,5.2929,5.2929,5.2929,5.2929,5.2929,5.2929,5.2929,5.2929,5.2929,5.2929,5.2929,5.2929,5.2929,5.2929,5.2929,5.2929,5.2929,5.2929,5.2929,5.2929,5.2929,5.2929,5.2929,5.2929,5.2929,5.2929,5.2929,5.2929,5.2929,5.2929,5.2929,5.2929,5.2929,5.2929,5.2929,5.2929,5.2929,5.2929,5.2929,5.2929,5.2929,5.2929,5.2929,4.1172,4.1172,4.1172,4.1172,4.1172,4.1172,4.1172,4.1172,4.1172,4.1172,4.1172,4.1172,4.1172,4.1172,4.1133,4.1035,4.0547,3.9941,3.9238,3.9121,3.8926,3.8594,3.8574,3.8574,3.8574,3.8574,3.8574,3.8574,3.872,3.9083,3.9714,3.9786,4.0218,4.0882,4.0882,4.131,4.2089,4.277,4.4546,4.697,4.7829,4.9242,5.103,5.1096,5.1448,5.1925,5.1925,5.2277,5.2754,5.2754,5.2829,5.2929,5.2929,5.2929,5.2929,5.2929,5.2929,5.2929,5.2929,5.2929,5.2929,5.2929,5.2929,5.2929,5.2929,5.2929,5.2929,5.2929,5.2929,5.2929,5.2929,5.2929,5.2929,5.2929,5.2929,5.2929,5.2929,5.2929,5.2929,5.2929,5.2929,5.2929,5.2929,5.2929,5.2929,5.2929,5.2929,5.2929,5.2929,5.2929,5.2929,5.2929,5.2929,5.2929,5.2929,5.2929,5.2929,5.2929,5.2929,5.2929,5.2929,5.2929,5.2929,5.2929,5.2929,5.2929,5.2929,5.2929,5.2929,5.2929,5.2929,5.2929,5.2929,5.2929,5.2929,5.2929,4.1172,4.1172,4.1172,4.1172,4.1172,4.1172,4.1172,4.1172,4.1172,4.1172,4.1172,4.1172,4.1172,4.1172,4.1172,4.1172,4.0781,4.0332,3.9863,3.9434,3.9101,3.8887,3.8691,3.8574,3.8574,3.8574,3.8574,3.8574,3.8574,3.9011,3.9714,3.9714,4.0146,4.0882,4.0882,4.1414,4.2358,4.3187,4.5042,4.7579,4.8379,4.9872,5.1674,5.1674,5.2026,5.2503,5.2503,5.2678,5.2929,5.2929,5.2929,5.2929,5.2929,5.2929,5.2929,5.2929,5.2929,5.2929,5.2929,5.2929,5.2929,5.2929,5.2929,5.2929,5.2929,5.2929,5.2929,5.2929,5.2929,5.2929,5.2929,5.2929,5.2929,5.2929,5.2929,5.2929,5.2929,5.2929,5.2929,5.2929,5.2929,5.2929,5.2929,5.2929,5.2929,5.2929,5.2929,5.2929,5.2929,5.2929,5.2929,5.2929,5.2929,5.2929,5.2929,5.2929,5.2929,5.2929,5.2929,5.2929,5.2929,5.2929,5.2929,5.2929,5.2929,5.2929,5.2929,5.2929,5.2929,5.2929,5.2929,5.2929,5.2929,5.2929,5.2929,5.2929,4.1172,4.1172,4.1172,4.1172,4.1172,4.1172,4.1172,4.1172,4.1172,4.1172,4.1172,4.1172,4.1172,4.1172,4.1172,4.1172,4.084,4.0605,4.0527,3.9824,3.9355,3.9199,3.8867,3.8652,3.8574,3.8574,3.8574,3.8574,3.8574,3.9011,3.9714,3.9714,4.0146,4.0882,4.0965,4.1644,4.272,4.3736,4.563,4.8121,4.8974,5.0504,5.2251,5.2251,5.2528,5.2929,5.2929,5.2929,5.2929,5.2929,5.2929,5.2929,5.2929,5.2929,5.2929,5.2929,5.2929,5.2929,5.2929,5.2929,5.2929,5.2929,5.2929,5.2929,5.2929,5.2929,5.2929,5.2929,5.2929,5.2929,5.2929,5.2929,5.2929,5.2929,5.2929,5.2929,5.2929,5.2929,5.2929,5.2929,5.2929,5.2929,5.2929,5.2929,5.2929,5.2929,5.2929,5.2929,5.2929,5.2929,5.2929,5.2929,5.2929,5.2929,5.2929,5.2929,5.2929,5.2929,5.2929,5.2929,5.2929,5.2929,5.2929,5.2929,5.2929,5.2929,5.2929,5.2929,5.2929,5.2929,5.2929,5.2929,5.2929,5.2929,5.2929,5.2929,4.1172,4.1172,4.1172,4.1172,4.1172,4.1172,4.1172,4.1172,4.1172,4.1172,4.1172,4.1172,4.1172,4.1172,4.1172,4.1172,4.1113,4.0918,4.0547,4.041,4.0,3.9238,3.9141,3.8945,3.8574,3.8574,3.8574,3.8574,3.8574,3.9011,3.9714,3.9714,4.0146,4.0903,4.1296,4.1937,4.2813,4.4326,4.634,4.8732,4.9873,5.1319,5.2804,5.2804,5.2854,5.2929,5.2929,5.2929,5.2929,5.2929,5.2929,5.2929,5.2929,5.2929,5.2929,5.2929,5.2929,5.2929,5.2929,5.2929,5.2929,5.2929,5.2929,5.2929,5.2929,5.2929,5.2929,5.2929,5.2929,5.2929,5.2929,5.2929,5.2929,5.2929,5.2929,5.2929,5.2929,5.2929,5.2929,5.2929,5.2929,5.2929,5.2929,5.2929,5.2929,5.2929,5.2929,5.2929,5.2929,5.2929,5.2929,5.2929,5.2929,5.2929,5.2929,5.2929,5.2929,5.2929,5.2929,5.2929,5.2929,5.2929,5.2929,5.2929,5.2929,5.2929,5.2929,5.2929,5.2929,5.2929,5.2929,5.2929,5.2929,5.2929,5.2929,5.2929,4.1172,4.1172,4.1172,4.1172,4.1172,4.1172,4.1172,4.1172,4.1172,4.1172,4.1172,4.1172,4.1172,4.1172,4.1172,4.1172,4.1172,4.1094,4.0898,4.0664,4.0351,3.9961,3.9707,3.9512,3.9316,3.9316,3.9316,3.9316,3.8809,3.9011,3.9714,3.9976,4.0532,4.1276,4.1752,4.2523,4.358,4.4917,4.6932,4.9275,5.0427,5.1713,5.2929,5.2929,5.2929,5.2929,5.2929,5.2929,5.2929,5.2929,5.2929,5.2929,5.2929,5.2929,5.2929,5.2929,5.2929,5.2929,5.2929,5.2929,5.2929,5.2929,5.2929,5.2929,5.2929,5.2929,5.2929,5.2929,5.2929,5.2929,5.2929,5.2929,5.2929,5.2929,5.2929,5.2929,5.2929,5.2929,5.2929,5.2929,5.2929,5.2929,5.2929,5.2929,5.2929,5.2929,5.2929,5.2929,5.2929,5.2929,5.2929,5.2929,5.2929,5.2929,5.2929,5.2929,5.2929,5.2929,5.2929,5.2929,5.2929,5.2929,5.2929,5.2929,5.2929,5.2929,5.2929,5.2929,5.2929,5.2929,5.2929,5.2929,5.2929,5.2929,5.2929,5.2929]}]]